<?xml version="1.0" encoding="UTF-8" standalone="no" ?>
<gpx xmlns="http://www.topografix.com/GPX/1/1" xmlns:xsi="http://www.w3.org/2001/XMLSchema-instance" xsi:schemaLocation="http://www.topografix.com/GPX/1/1 http://www.topografix.com/GPX/1/1/gpx.xsd" version="1.1" creator="VisuGPX - https://www.visugpx.com">
  <metadata>
    <name>Grange Joigny</name>
    <desc><![CDATA[Barraux, Chapareillan, Col du Granier, Grange s Joigny, Re Col Granier, Lac Noir.]]></desc>
  </metadata>
  <trk>
    <name><![CDATA[2016-09-09 09:17]]></name>
    <desc><![CDATA[<p>Heure de départ: 09/09/2016 09:17</p><p>Heure d'arrivée: 09/09/2016 13:38</p><p>Distance: 43,3 km (04:20)</p><p>Temps déplacement: 03:35</p><p>Vitesse moyenne: 9,96 km/h</p><p>Vitesse moyenne mouv.: 12,07 km/h</p><p>Vitesse Max.: 44,61km/h</p><p>Altitude minimale: 301 m</p><p>Altitude maximale: 1188 m</p><p>Vitesse de montée: 597,4 m/h</p><p>Vitesse de descente: -1274 m/h</p><p>Gain d'altitude: 1688 m</p><p>Perte d'altitude: -1666 m</p><p>Temps de montée: 02:49</p><p>Temps de descente: 01:18</p><hr align="center" width="480" style="height: 2px; width: 517px"/>]]></desc>
    <trkseg>
      <trkpt lat="45.42912" lon="5.98392">
        <ele>344.45</ele>
        <time>2016-09-09T07:17:56Z</time>
      </trkpt>
      <trkpt lat="45.42929" lon="5.98403">
        <ele>343.49</ele>
        <time>2016-09-09T07:22:38Z</time>
      </trkpt>
      <trkpt lat="45.42926" lon="5.98432">
        <ele>342.44</ele>
        <time>2016-09-09T07:22:44Z</time>
      </trkpt>
      <trkpt lat="45.42932" lon="5.98458">
        <ele>341.3</ele>
        <time>2016-09-09T07:22:49Z</time>
      </trkpt>
      <trkpt lat="45.42951" lon="5.9846">
        <ele>340.89</ele>
        <time>2016-09-09T07:23:00Z</time>
      </trkpt>
      <trkpt lat="45.42964" lon="5.98438">
        <ele>341.25</ele>
        <time>2016-09-09T07:23:06Z</time>
      </trkpt>
      <trkpt lat="45.42978" lon="5.9842">
        <ele>341.65</ele>
        <time>2016-09-09T07:23:12Z</time>
      </trkpt>
      <trkpt lat="45.42996" lon="5.98433">
        <ele>343.55</ele>
        <time>2016-09-09T07:23:19Z</time>
      </trkpt>
      <trkpt lat="45.43013" lon="5.98447">
        <ele>344.55</ele>
        <time>2016-09-09T07:23:25Z</time>
      </trkpt>
      <trkpt lat="45.4303" lon="5.98459">
        <ele>345.77</ele>
        <time>2016-09-09T07:23:31Z</time>
      </trkpt>
      <trkpt lat="45.43047" lon="5.98468">
        <ele>346.52</ele>
        <time>2016-09-09T07:23:37Z</time>
      </trkpt>
      <trkpt lat="45.43066" lon="5.98479">
        <ele>347.43</ele>
        <time>2016-09-09T07:23:43Z</time>
      </trkpt>
      <trkpt lat="45.43086" lon="5.98491">
        <ele>347.86</ele>
        <time>2016-09-09T07:23:49Z</time>
      </trkpt>
      <trkpt lat="45.43104" lon="5.98503">
        <ele>348.15</ele>
        <time>2016-09-09T07:23:54Z</time>
      </trkpt>
      <trkpt lat="45.43122" lon="5.98513">
        <ele>348.25</ele>
        <time>2016-09-09T07:23:59Z</time>
      </trkpt>
      <trkpt lat="45.43141" lon="5.98523">
        <ele>348.36</ele>
        <time>2016-09-09T07:24:04Z</time>
      </trkpt>
      <trkpt lat="45.4316" lon="5.98534">
        <ele>348.67</ele>
        <time>2016-09-09T07:24:09Z</time>
      </trkpt>
      <trkpt lat="45.43178" lon="5.98546">
        <ele>349.08</ele>
        <time>2016-09-09T07:24:14Z</time>
      </trkpt>
      <trkpt lat="45.43196" lon="5.98561">
        <ele>350.1</ele>
        <time>2016-09-09T07:24:20Z</time>
      </trkpt>
      <trkpt lat="45.43206" lon="5.98588">
        <ele>351.08</ele>
        <time>2016-09-09T07:24:27Z</time>
      </trkpt>
      <trkpt lat="45.43213" lon="5.98614">
        <ele>351.68</ele>
        <time>2016-09-09T07:24:32Z</time>
      </trkpt>
      <trkpt lat="45.43228" lon="5.98634">
        <ele>353.76</ele>
        <time>2016-09-09T07:24:39Z</time>
      </trkpt>
      <trkpt lat="45.43243" lon="5.98651">
        <ele>353.33</ele>
        <time>2016-09-09T07:24:43Z</time>
      </trkpt>
      <trkpt lat="45.43259" lon="5.98667">
        <ele>352.98</ele>
        <time>2016-09-09T07:24:47Z</time>
      </trkpt>
      <trkpt lat="45.43276" lon="5.98683">
        <ele>352.77</ele>
        <time>2016-09-09T07:24:51Z</time>
      </trkpt>
      <trkpt lat="45.43291" lon="5.98697">
        <ele>352.78</ele>
        <time>2016-09-09T07:24:55Z</time>
      </trkpt>
      <trkpt lat="45.43308" lon="5.98711">
        <ele>352.47</ele>
        <time>2016-09-09T07:24:59Z</time>
      </trkpt>
      <trkpt lat="45.43329" lon="5.98726">
        <ele>350.99</ele>
        <time>2016-09-09T07:25:03Z</time>
      </trkpt>
      <trkpt lat="45.43345" lon="5.98741">
        <ele>349.95</ele>
        <time>2016-09-09T07:25:06Z</time>
      </trkpt>
      <trkpt lat="45.43357" lon="5.98762">
        <ele>349.06</ele>
        <time>2016-09-09T07:25:09Z</time>
      </trkpt>
      <trkpt lat="45.43368" lon="5.98785">
        <ele>348.28</ele>
        <time>2016-09-09T07:25:12Z</time>
      </trkpt>
      <trkpt lat="45.43382" lon="5.98811">
        <ele>346.53</ele>
        <time>2016-09-09T07:25:15Z</time>
      </trkpt>
      <trkpt lat="45.43397" lon="5.98825">
        <ele>346.25</ele>
        <time>2016-09-09T07:25:18Z</time>
      </trkpt>
      <trkpt lat="45.43415" lon="5.98839">
        <ele>349.46</ele>
        <time>2016-09-09T07:25:24Z</time>
      </trkpt>
      <trkpt lat="45.43433" lon="5.98848">
        <ele>350.84</ele>
        <time>2016-09-09T07:25:30Z</time>
      </trkpt>
      <trkpt lat="45.43451" lon="5.98868">
        <ele>350.88</ele>
        <time>2016-09-09T07:25:36Z</time>
      </trkpt>
      <trkpt lat="45.43462" lon="5.98888">
        <ele>349.47</ele>
        <time>2016-09-09T07:25:39Z</time>
      </trkpt>
      <trkpt lat="45.43477" lon="5.98905">
        <ele>348.02</ele>
        <time>2016-09-09T07:25:42Z</time>
      </trkpt>
      <trkpt lat="45.43496" lon="5.98907">
        <ele>347.06</ele>
        <time>2016-09-09T07:25:46Z</time>
      </trkpt>
      <trkpt lat="45.43512" lon="5.98895">
        <ele>350.07</ele>
        <time>2016-09-09T07:25:54Z</time>
      </trkpt>
      <trkpt lat="45.4353" lon="5.98899">
        <ele>352.61</ele>
        <time>2016-09-09T07:26:02Z</time>
      </trkpt>
      <trkpt lat="45.43548" lon="5.98911">
        <ele>353.37</ele>
        <time>2016-09-09T07:26:08Z</time>
      </trkpt>
      <trkpt lat="45.43565" lon="5.98919">
        <ele>352.96</ele>
        <time>2016-09-09T07:26:13Z</time>
      </trkpt>
      <trkpt lat="45.43582" lon="5.98906">
        <ele>355.25</ele>
        <time>2016-09-09T07:26:21Z</time>
      </trkpt>
      <trkpt lat="45.43601" lon="5.98909">
        <ele>356.67</ele>
        <time>2016-09-09T07:26:28Z</time>
      </trkpt>
      <trkpt lat="45.43618" lon="5.98918">
        <ele>356.6</ele>
        <time>2016-09-09T07:26:34Z</time>
      </trkpt>
      <trkpt lat="45.43637" lon="5.98928">
        <ele>356.53</ele>
        <time>2016-09-09T07:26:40Z</time>
      </trkpt>
      <trkpt lat="45.43657" lon="5.98941">
        <ele>355.61</ele>
        <time>2016-09-09T07:26:45Z</time>
      </trkpt>
      <trkpt lat="45.43678" lon="5.98957">
        <ele>354.12</ele>
        <time>2016-09-09T07:26:49Z</time>
      </trkpt>
      <trkpt lat="45.43698" lon="5.98975">
        <ele>351.56</ele>
        <time>2016-09-09T07:26:52Z</time>
      </trkpt>
      <trkpt lat="45.43718" lon="5.9899">
        <ele>349.96</ele>
        <time>2016-09-09T07:26:55Z</time>
      </trkpt>
      <trkpt lat="45.43738" lon="5.98989">
        <ele>350.44</ele>
        <time>2016-09-09T07:26:59Z</time>
      </trkpt>
      <trkpt lat="45.43753" lon="5.98971">
        <ele>354.12</ele>
        <time>2016-09-09T07:27:07Z</time>
      </trkpt>
      <trkpt lat="45.43774" lon="5.9897">
        <ele>355.24</ele>
        <time>2016-09-09T07:27:14Z</time>
      </trkpt>
      <trkpt lat="45.43792" lon="5.98966">
        <ele>356.02</ele>
        <time>2016-09-09T07:27:21Z</time>
      </trkpt>
      <trkpt lat="45.43812" lon="5.98963">
        <ele>356.82</ele>
        <time>2016-09-09T07:27:28Z</time>
      </trkpt>
      <trkpt lat="45.43831" lon="5.98958">
        <ele>357.52</ele>
        <time>2016-09-09T07:27:34Z</time>
      </trkpt>
      <trkpt lat="45.43849" lon="5.98955">
        <ele>358.4</ele>
        <time>2016-09-09T07:27:40Z</time>
      </trkpt>
      <trkpt lat="45.43867" lon="5.98949">
        <ele>359.04</ele>
        <time>2016-09-09T07:27:46Z</time>
      </trkpt>
      <trkpt lat="45.43881" lon="5.98932">
        <ele>361.34</ele>
        <time>2016-09-09T07:27:54Z</time>
      </trkpt>
      <trkpt lat="45.43895" lon="5.98912">
        <ele>363.32</ele>
        <time>2016-09-09T07:28:02Z</time>
      </trkpt>
      <trkpt lat="45.4391" lon="5.98893">
        <ele>363.18</ele>
        <time>2016-09-09T07:28:08Z</time>
      </trkpt>
      <trkpt lat="45.43899" lon="5.9887">
        <ele>364.24</ele>
        <time>2016-09-09T07:28:16Z</time>
      </trkpt>
      <trkpt lat="45.43883" lon="5.98855">
        <ele>365.34</ele>
        <time>2016-09-09T07:28:23Z</time>
      </trkpt>
      <trkpt lat="45.43873" lon="5.98833">
        <ele>365.31</ele>
        <time>2016-09-09T07:28:28Z</time>
      </trkpt>
      <trkpt lat="45.43867" lon="5.98805">
        <ele>364.98</ele>
        <time>2016-09-09T07:28:33Z</time>
      </trkpt>
      <trkpt lat="45.43858" lon="5.98782">
        <ele>364.27</ele>
        <time>2016-09-09T07:28:37Z</time>
      </trkpt>
      <trkpt lat="45.43847" lon="5.98762">
        <ele>364.34</ele>
        <time>2016-09-09T07:28:41Z</time>
      </trkpt>
      <trkpt lat="45.43835" lon="5.98736">
        <ele>364.79</ele>
        <time>2016-09-09T07:28:46Z</time>
      </trkpt>
      <trkpt lat="45.43822" lon="5.98714">
        <ele>365.48</ele>
        <time>2016-09-09T07:28:51Z</time>
      </trkpt>
      <trkpt lat="45.43809" lon="5.98695">
        <ele>366.35</ele>
        <time>2016-09-09T07:28:56Z</time>
      </trkpt>
      <trkpt lat="45.43801" lon="5.98667">
        <ele>366.51</ele>
        <time>2016-09-09T07:29:01Z</time>
      </trkpt>
      <trkpt lat="45.43797" lon="5.98638">
        <ele>366.54</ele>
        <time>2016-09-09T07:29:06Z</time>
      </trkpt>
      <trkpt lat="45.43789" lon="5.98613">
        <ele>366.95</ele>
        <time>2016-09-09T07:29:11Z</time>
      </trkpt>
      <trkpt lat="45.43769" lon="5.986">
        <ele>366.27</ele>
        <time>2016-09-09T07:29:17Z</time>
      </trkpt>
      <trkpt lat="45.43789" lon="5.98599">
        <ele>364.22</ele>
        <time>2016-09-09T07:29:31Z</time>
      </trkpt>
      <trkpt lat="45.43809" lon="5.98605">
        <ele>362.39</ele>
        <time>2016-09-09T07:29:34Z</time>
      </trkpt>
      <trkpt lat="45.43819" lon="5.98579">
        <ele>360.2</ele>
        <time>2016-09-09T07:29:37Z</time>
      </trkpt>
      <trkpt lat="45.43819" lon="5.98542">
        <ele>357.83</ele>
        <time>2016-09-09T07:29:40Z</time>
      </trkpt>
      <trkpt lat="45.43822" lon="5.98514">
        <ele>356.74</ele>
        <time>2016-09-09T07:29:42Z</time>
      </trkpt>
      <trkpt lat="45.43828" lon="5.98478">
        <ele>355.7</ele>
        <time>2016-09-09T07:29:45Z</time>
      </trkpt>
      <trkpt lat="45.43833" lon="5.98444">
        <ele>355.52</ele>
        <time>2016-09-09T07:29:48Z</time>
      </trkpt>
      <trkpt lat="45.4383" lon="5.98416">
        <ele>355.94</ele>
        <time>2016-09-09T07:29:51Z</time>
      </trkpt>
      <trkpt lat="45.43819" lon="5.9839">
        <ele>356.95</ele>
        <time>2016-09-09T07:29:55Z</time>
      </trkpt>
      <trkpt lat="45.43802" lon="5.98378">
        <ele>357.31</ele>
        <time>2016-09-09T07:29:59Z</time>
      </trkpt>
      <trkpt lat="45.43787" lon="5.98363">
        <ele>357.57</ele>
        <time>2016-09-09T07:30:03Z</time>
      </trkpt>
      <trkpt lat="45.43773" lon="5.98338">
        <ele>358.64</ele>
        <time>2016-09-09T07:30:08Z</time>
      </trkpt>
      <trkpt lat="45.43761" lon="5.98312">
        <ele>359.5</ele>
        <time>2016-09-09T07:30:13Z</time>
      </trkpt>
      <trkpt lat="45.4375" lon="5.98286">
        <ele>360.29</ele>
        <time>2016-09-09T07:30:18Z</time>
      </trkpt>
      <trkpt lat="45.43739" lon="5.98261">
        <ele>361.13</ele>
        <time>2016-09-09T07:30:23Z</time>
      </trkpt>
      <trkpt lat="45.43727" lon="5.98235">
        <ele>361.82</ele>
        <time>2016-09-09T07:30:28Z</time>
      </trkpt>
      <trkpt lat="45.43715" lon="5.98211">
        <ele>362.43</ele>
        <time>2016-09-09T07:30:33Z</time>
      </trkpt>
      <trkpt lat="45.43703" lon="5.98188">
        <ele>362.75</ele>
        <time>2016-09-09T07:30:38Z</time>
      </trkpt>
      <trkpt lat="45.43692" lon="5.98164">
        <ele>363.31</ele>
        <time>2016-09-09T07:30:43Z</time>
      </trkpt>
      <trkpt lat="45.43681" lon="5.98141">
        <ele>363.68</ele>
        <time>2016-09-09T07:30:48Z</time>
      </trkpt>
      <trkpt lat="45.4367" lon="5.98117">
        <ele>364.19</ele>
        <time>2016-09-09T07:30:53Z</time>
      </trkpt>
      <trkpt lat="45.43658" lon="5.98093">
        <ele>364.58</ele>
        <time>2016-09-09T07:30:58Z</time>
      </trkpt>
      <trkpt lat="45.43644" lon="5.98071">
        <ele>364.75</ele>
        <time>2016-09-09T07:31:03Z</time>
      </trkpt>
      <trkpt lat="45.43632" lon="5.98048">
        <ele>365.07</ele>
        <time>2016-09-09T07:31:08Z</time>
      </trkpt>
      <trkpt lat="45.43634" lon="5.98018">
        <ele>364.93</ele>
        <time>2016-09-09T07:31:13Z</time>
      </trkpt>
      <trkpt lat="45.43638" lon="5.97988">
        <ele>365.48</ele>
        <time>2016-09-09T07:31:18Z</time>
      </trkpt>
      <trkpt lat="45.43647" lon="5.97963">
        <ele>366.49</ele>
        <time>2016-09-09T07:31:23Z</time>
      </trkpt>
      <trkpt lat="45.43654" lon="5.97935">
        <ele>367.46</ele>
        <time>2016-09-09T07:31:28Z</time>
      </trkpt>
      <trkpt lat="45.43661" lon="5.97911">
        <ele>368.15</ele>
        <time>2016-09-09T07:31:33Z</time>
      </trkpt>
      <trkpt lat="45.43666" lon="5.97883">
        <ele>368.82</ele>
        <time>2016-09-09T07:31:38Z</time>
      </trkpt>
      <trkpt lat="45.43673" lon="5.97858">
        <ele>369.33</ele>
        <time>2016-09-09T07:31:43Z</time>
      </trkpt>
      <trkpt lat="45.43692" lon="5.97868">
        <ele>370.18</ele>
        <time>2016-09-09T07:31:48Z</time>
      </trkpt>
      <trkpt lat="45.4371" lon="5.97879">
        <ele>371.02</ele>
        <time>2016-09-09T07:31:53Z</time>
      </trkpt>
      <trkpt lat="45.43727" lon="5.97891">
        <ele>371.95</ele>
        <time>2016-09-09T07:31:58Z</time>
      </trkpt>
      <trkpt lat="45.43748" lon="5.97902">
        <ele>372.93</ele>
        <time>2016-09-09T07:32:03Z</time>
      </trkpt>
      <trkpt lat="45.43767" lon="5.9791">
        <ele>373.88</ele>
        <time>2016-09-09T07:32:08Z</time>
      </trkpt>
      <trkpt lat="45.43786" lon="5.97921">
        <ele>374.59</ele>
        <time>2016-09-09T07:32:13Z</time>
      </trkpt>
      <trkpt lat="45.43805" lon="5.97927">
        <ele>375.05</ele>
        <time>2016-09-09T07:32:17Z</time>
      </trkpt>
      <trkpt lat="45.43825" lon="5.97936">
        <ele>375.93</ele>
        <time>2016-09-09T07:32:22Z</time>
      </trkpt>
      <trkpt lat="45.43842" lon="5.97946">
        <ele>376.52</ele>
        <time>2016-09-09T07:32:27Z</time>
      </trkpt>
      <trkpt lat="45.43859" lon="5.97959">
        <ele>376.98</ele>
        <time>2016-09-09T07:32:32Z</time>
      </trkpt>
      <trkpt lat="45.43877" lon="5.9797">
        <ele>377.22</ele>
        <time>2016-09-09T07:32:37Z</time>
      </trkpt>
      <trkpt lat="45.43897" lon="5.97983">
        <ele>377.28</ele>
        <time>2016-09-09T07:32:42Z</time>
      </trkpt>
      <trkpt lat="45.43918" lon="5.97994">
        <ele>377.14</ele>
        <time>2016-09-09T07:32:47Z</time>
      </trkpt>
      <trkpt lat="45.43936" lon="5.98003">
        <ele>376.77</ele>
        <time>2016-09-09T07:32:51Z</time>
      </trkpt>
      <trkpt lat="45.43954" lon="5.98009">
        <ele>376.28</ele>
        <time>2016-09-09T07:32:55Z</time>
      </trkpt>
      <trkpt lat="45.43976" lon="5.98014">
        <ele>376.05</ele>
        <time>2016-09-09T07:33:00Z</time>
      </trkpt>
      <trkpt lat="45.43998" lon="5.98019">
        <ele>375.76</ele>
        <time>2016-09-09T07:33:05Z</time>
      </trkpt>
      <trkpt lat="45.44018" lon="5.98024">
        <ele>375</ele>
        <time>2016-09-09T07:33:09Z</time>
      </trkpt>
      <trkpt lat="45.44039" lon="5.98028">
        <ele>374.09</ele>
        <time>2016-09-09T07:33:13Z</time>
      </trkpt>
      <trkpt lat="45.44059" lon="5.98034">
        <ele>372.94</ele>
        <time>2016-09-09T07:33:17Z</time>
      </trkpt>
      <trkpt lat="45.44038" lon="5.98026">
        <ele>373.46</ele>
        <time>2016-09-09T07:33:29Z</time>
      </trkpt>
      <trkpt lat="45.44016" lon="5.98022">
        <ele>374.34</ele>
        <time>2016-09-09T07:33:35Z</time>
      </trkpt>
      <trkpt lat="45.43998" lon="5.98019">
        <ele>375.09</ele>
        <time>2016-09-09T07:33:40Z</time>
      </trkpt>
      <trkpt lat="45.43977" lon="5.9801">
        <ele>375.7</ele>
        <time>2016-09-09T07:33:45Z</time>
      </trkpt>
      <trkpt lat="45.43957" lon="5.98007">
        <ele>376.22</ele>
        <time>2016-09-09T07:33:50Z</time>
      </trkpt>
      <trkpt lat="45.43953" lon="5.98032">
        <ele>375.54</ele>
        <time>2016-09-09T07:34:01Z</time>
      </trkpt>
      <trkpt lat="45.43948" lon="5.98065">
        <ele>373.54</ele>
        <time>2016-09-09T07:34:05Z</time>
      </trkpt>
      <trkpt lat="45.43946" lon="5.98098">
        <ele>371.72</ele>
        <time>2016-09-09T07:34:09Z</time>
      </trkpt>
      <trkpt lat="45.43944" lon="5.98126">
        <ele>369.8</ele>
        <time>2016-09-09T07:34:15Z</time>
      </trkpt>
      <trkpt lat="45.43939" lon="5.98152">
        <ele>368.82</ele>
        <time>2016-09-09T07:34:22Z</time>
      </trkpt>
      <trkpt lat="45.43937" lon="5.98182">
        <ele>367.04</ele>
        <time>2016-09-09T07:34:27Z</time>
      </trkpt>
      <trkpt lat="45.43935" lon="5.98208">
        <ele>365.89</ele>
        <time>2016-09-09T07:34:31Z</time>
      </trkpt>
      <trkpt lat="45.43933" lon="5.98235">
        <ele>364.68</ele>
        <time>2016-09-09T07:34:35Z</time>
      </trkpt>
      <trkpt lat="45.43929" lon="5.98265">
        <ele>363.53</ele>
        <time>2016-09-09T07:34:39Z</time>
      </trkpt>
      <trkpt lat="45.43925" lon="5.98296">
        <ele>362.15</ele>
        <time>2016-09-09T07:34:43Z</time>
      </trkpt>
      <trkpt lat="45.43923" lon="5.98324">
        <ele>360.78</ele>
        <time>2016-09-09T07:34:46Z</time>
      </trkpt>
      <trkpt lat="45.43919" lon="5.98358">
        <ele>359.32</ele>
        <time>2016-09-09T07:34:50Z</time>
      </trkpt>
      <trkpt lat="45.43918" lon="5.98385">
        <ele>358.31</ele>
        <time>2016-09-09T07:34:54Z</time>
      </trkpt>
      <trkpt lat="45.43907" lon="5.98409">
        <ele>356.7</ele>
        <time>2016-09-09T07:35:01Z</time>
      </trkpt>
      <trkpt lat="45.43921" lon="5.98429">
        <ele>355.5</ele>
        <time>2016-09-09T07:35:10Z</time>
      </trkpt>
      <trkpt lat="45.43942" lon="5.98436">
        <ele>355.02</ele>
        <time>2016-09-09T07:35:14Z</time>
      </trkpt>
      <trkpt lat="45.43965" lon="5.98444">
        <ele>354.16</ele>
        <time>2016-09-09T07:35:18Z</time>
      </trkpt>
      <trkpt lat="45.43987" lon="5.98452">
        <ele>353.47</ele>
        <time>2016-09-09T07:35:22Z</time>
      </trkpt>
      <trkpt lat="45.44005" lon="5.98459">
        <ele>352.97</ele>
        <time>2016-09-09T07:35:25Z</time>
      </trkpt>
      <trkpt lat="45.44023" lon="5.98465">
        <ele>352.42</ele>
        <time>2016-09-09T07:35:28Z</time>
      </trkpt>
      <trkpt lat="45.44046" lon="5.98471">
        <ele>352.06</ele>
        <time>2016-09-09T07:35:32Z</time>
      </trkpt>
      <trkpt lat="45.44066" lon="5.98478">
        <ele>352.2</ele>
        <time>2016-09-09T07:35:36Z</time>
      </trkpt>
      <trkpt lat="45.44088" lon="5.98487">
        <ele>352.36</ele>
        <time>2016-09-09T07:35:40Z</time>
      </trkpt>
      <trkpt lat="45.44109" lon="5.98495">
        <ele>352.45</ele>
        <time>2016-09-09T07:35:44Z</time>
      </trkpt>
      <trkpt lat="45.44129" lon="5.98501">
        <ele>352.34</ele>
        <time>2016-09-09T07:35:48Z</time>
      </trkpt>
      <trkpt lat="45.4415" lon="5.9851">
        <ele>352.27</ele>
        <time>2016-09-09T07:35:52Z</time>
      </trkpt>
      <trkpt lat="45.44169" lon="5.98515">
        <ele>351.96</ele>
        <time>2016-09-09T07:35:56Z</time>
      </trkpt>
      <trkpt lat="45.44188" lon="5.98503">
        <ele>351.89</ele>
        <time>2016-09-09T07:36:00Z</time>
      </trkpt>
      <trkpt lat="45.442" lon="5.9848">
        <ele>353.57</ele>
        <time>2016-09-09T07:36:05Z</time>
      </trkpt>
      <trkpt lat="45.44209" lon="5.98453">
        <ele>354.65</ele>
        <time>2016-09-09T07:36:10Z</time>
      </trkpt>
      <trkpt lat="45.4422" lon="5.98425">
        <ele>355.67</ele>
        <time>2016-09-09T07:36:15Z</time>
      </trkpt>
      <trkpt lat="45.44228" lon="5.98398">
        <ele>356.67</ele>
        <time>2016-09-09T07:36:20Z</time>
      </trkpt>
      <trkpt lat="45.44239" lon="5.98371">
        <ele>357.77</ele>
        <time>2016-09-09T07:36:25Z</time>
      </trkpt>
      <trkpt lat="45.44247" lon="5.98347">
        <ele>358.92</ele>
        <time>2016-09-09T07:36:30Z</time>
      </trkpt>
      <trkpt lat="45.44256" lon="5.9832">
        <ele>360.15</ele>
        <time>2016-09-09T07:36:36Z</time>
      </trkpt>
      <trkpt lat="45.44266" lon="5.98293">
        <ele>361.54</ele>
        <time>2016-09-09T07:36:42Z</time>
      </trkpt>
      <trkpt lat="45.44275" lon="5.98265">
        <ele>362.81</ele>
        <time>2016-09-09T07:36:48Z</time>
      </trkpt>
      <trkpt lat="45.44284" lon="5.98239">
        <ele>364.13</ele>
        <time>2016-09-09T07:36:54Z</time>
      </trkpt>
      <trkpt lat="45.44293" lon="5.98216">
        <ele>365.11</ele>
        <time>2016-09-09T07:36:59Z</time>
      </trkpt>
      <trkpt lat="45.443" lon="5.98192">
        <ele>366.56</ele>
        <time>2016-09-09T07:37:05Z</time>
      </trkpt>
      <trkpt lat="45.4431" lon="5.98168">
        <ele>367.57</ele>
        <time>2016-09-09T07:37:11Z</time>
      </trkpt>
      <trkpt lat="45.44319" lon="5.98144">
        <ele>368.37</ele>
        <time>2016-09-09T07:37:16Z</time>
      </trkpt>
      <trkpt lat="45.44327" lon="5.98118">
        <ele>369.46</ele>
        <time>2016-09-09T07:37:22Z</time>
      </trkpt>
      <trkpt lat="45.44334" lon="5.98093">
        <ele>371.03</ele>
        <time>2016-09-09T07:37:28Z</time>
      </trkpt>
      <trkpt lat="45.44354" lon="5.9809">
        <ele>373.02</ele>
        <time>2016-09-09T07:37:37Z</time>
      </trkpt>
      <trkpt lat="45.44373" lon="5.98106">
        <ele>373.23</ele>
        <time>2016-09-09T07:37:42Z</time>
      </trkpt>
      <trkpt lat="45.44389" lon="5.98121">
        <ele>373.78</ele>
        <time>2016-09-09T07:37:46Z</time>
      </trkpt>
      <trkpt lat="45.44405" lon="5.98137">
        <ele>374.45</ele>
        <time>2016-09-09T07:37:51Z</time>
      </trkpt>
      <trkpt lat="45.44421" lon="5.98153">
        <ele>374.93</ele>
        <time>2016-09-09T07:37:56Z</time>
      </trkpt>
      <trkpt lat="45.44437" lon="5.98171">
        <ele>375.12</ele>
        <time>2016-09-09T07:38:01Z</time>
      </trkpt>
      <trkpt lat="45.44452" lon="5.98185">
        <ele>375.09</ele>
        <time>2016-09-09T07:38:05Z</time>
      </trkpt>
      <trkpt lat="45.44468" lon="5.98201">
        <ele>374.9</ele>
        <time>2016-09-09T07:38:09Z</time>
      </trkpt>
      <trkpt lat="45.44486" lon="5.98212">
        <ele>374.55</ele>
        <time>2016-09-09T07:38:13Z</time>
      </trkpt>
      <trkpt lat="45.44506" lon="5.98214">
        <ele>374.61</ele>
        <time>2016-09-09T07:38:18Z</time>
      </trkpt>
      <trkpt lat="45.44525" lon="5.98226">
        <ele>375.1</ele>
        <time>2016-09-09T07:38:23Z</time>
      </trkpt>
      <trkpt lat="45.44542" lon="5.98242">
        <ele>375.12</ele>
        <time>2016-09-09T07:38:27Z</time>
      </trkpt>
      <trkpt lat="45.44558" lon="5.98265">
        <ele>374.27</ele>
        <time>2016-09-09T07:38:31Z</time>
      </trkpt>
      <trkpt lat="45.44575" lon="5.98279">
        <ele>373.57</ele>
        <time>2016-09-09T07:38:34Z</time>
      </trkpt>
      <trkpt lat="45.44593" lon="5.98291">
        <ele>372.9</ele>
        <time>2016-09-09T07:38:37Z</time>
      </trkpt>
      <trkpt lat="45.4461" lon="5.98305">
        <ele>372.18</ele>
        <time>2016-09-09T07:38:40Z</time>
      </trkpt>
      <trkpt lat="45.44629" lon="5.98317">
        <ele>371.64</ele>
        <time>2016-09-09T07:38:43Z</time>
      </trkpt>
      <trkpt lat="45.44645" lon="5.98329">
        <ele>371.62</ele>
        <time>2016-09-09T07:38:46Z</time>
      </trkpt>
      <trkpt lat="45.44664" lon="5.98343">
        <ele>371.75</ele>
        <time>2016-09-09T07:38:50Z</time>
      </trkpt>
      <trkpt lat="45.44682" lon="5.98354">
        <ele>371.78</ele>
        <time>2016-09-09T07:38:53Z</time>
      </trkpt>
      <trkpt lat="45.447" lon="5.98363">
        <ele>372.16</ele>
        <time>2016-09-09T07:38:57Z</time>
      </trkpt>
      <trkpt lat="45.44721" lon="5.98372">
        <ele>372.86</ele>
        <time>2016-09-09T07:39:01Z</time>
      </trkpt>
      <trkpt lat="45.44743" lon="5.98378">
        <ele>373.87</ele>
        <time>2016-09-09T07:39:06Z</time>
      </trkpt>
      <trkpt lat="45.44762" lon="5.98383">
        <ele>374.77</ele>
        <time>2016-09-09T07:39:11Z</time>
      </trkpt>
      <trkpt lat="45.44783" lon="5.98384">
        <ele>375.55</ele>
        <time>2016-09-09T07:39:16Z</time>
      </trkpt>
      <trkpt lat="45.44801" lon="5.98379">
        <ele>377.15</ele>
        <time>2016-09-09T07:39:22Z</time>
      </trkpt>
      <trkpt lat="45.4482" lon="5.98373">
        <ele>378.99</ele>
        <time>2016-09-09T07:39:30Z</time>
      </trkpt>
      <trkpt lat="45.4484" lon="5.98375">
        <ele>380.37</ele>
        <time>2016-09-09T07:39:37Z</time>
      </trkpt>
      <trkpt lat="45.44861" lon="5.98382">
        <ele>381.7</ele>
        <time>2016-09-09T07:39:45Z</time>
      </trkpt>
      <trkpt lat="45.44881" lon="5.98393">
        <ele>382.71</ele>
        <time>2016-09-09T07:39:51Z</time>
      </trkpt>
      <trkpt lat="45.44896" lon="5.98408">
        <ele>383.83</ele>
        <time>2016-09-09T07:39:57Z</time>
      </trkpt>
      <trkpt lat="45.44913" lon="5.98424">
        <ele>385.12</ele>
        <time>2016-09-09T07:40:04Z</time>
      </trkpt>
      <trkpt lat="45.44932" lon="5.98434">
        <ele>386.7</ele>
        <time>2016-09-09T07:40:12Z</time>
      </trkpt>
      <trkpt lat="45.44951" lon="5.98431">
        <ele>387.95</ele>
        <time>2016-09-09T07:40:20Z</time>
      </trkpt>
      <trkpt lat="45.44972" lon="5.98431">
        <ele>389.07</ele>
        <time>2016-09-09T07:40:26Z</time>
      </trkpt>
      <trkpt lat="45.44991" lon="5.9843">
        <ele>389.92</ele>
        <time>2016-09-09T07:40:33Z</time>
      </trkpt>
      <trkpt lat="45.45011" lon="5.98436">
        <ele>390.64</ele>
        <time>2016-09-09T07:40:39Z</time>
      </trkpt>
      <trkpt lat="45.4503" lon="5.98435">
        <ele>391.43</ele>
        <time>2016-09-09T07:40:46Z</time>
      </trkpt>
      <trkpt lat="45.45049" lon="5.98436">
        <ele>392.57</ele>
        <time>2016-09-09T07:40:53Z</time>
      </trkpt>
      <trkpt lat="45.45069" lon="5.98437">
        <ele>393.01</ele>
        <time>2016-09-09T07:40:58Z</time>
      </trkpt>
      <trkpt lat="45.4509" lon="5.98442">
        <ele>394.18</ele>
        <time>2016-09-09T07:41:05Z</time>
      </trkpt>
      <trkpt lat="45.45108" lon="5.98448">
        <ele>395.08</ele>
        <time>2016-09-09T07:41:10Z</time>
      </trkpt>
      <trkpt lat="45.45127" lon="5.98461">
        <ele>396.9</ele>
        <time>2016-09-09T07:41:18Z</time>
      </trkpt>
      <trkpt lat="45.45145" lon="5.9847">
        <ele>398.2</ele>
        <time>2016-09-09T07:41:25Z</time>
      </trkpt>
      <trkpt lat="45.45163" lon="5.98477">
        <ele>399.89</ele>
        <time>2016-09-09T07:41:33Z</time>
      </trkpt>
      <trkpt lat="45.45183" lon="5.98484">
        <ele>401.39</ele>
        <time>2016-09-09T07:41:40Z</time>
      </trkpt>
      <trkpt lat="45.45203" lon="5.98491">
        <ele>402.85</ele>
        <time>2016-09-09T07:41:48Z</time>
      </trkpt>
      <trkpt lat="45.45222" lon="5.98499">
        <ele>403.92</ele>
        <time>2016-09-09T07:41:54Z</time>
      </trkpt>
      <trkpt lat="45.45241" lon="5.98508">
        <ele>405.22</ele>
        <time>2016-09-09T07:42:02Z</time>
      </trkpt>
      <trkpt lat="45.4526" lon="5.98501">
        <ele>404.83</ele>
        <time>2016-09-09T07:42:07Z</time>
      </trkpt>
      <trkpt lat="45.45282" lon="5.98494">
        <ele>401.33</ele>
        <time>2016-09-09T07:42:12Z</time>
      </trkpt>
      <trkpt lat="45.45302" lon="5.98488">
        <ele>397.6</ele>
        <time>2016-09-09T07:42:17Z</time>
      </trkpt>
      <trkpt lat="45.45321" lon="5.9848">
        <ele>397.39</ele>
        <time>2016-09-09T07:42:24Z</time>
      </trkpt>
      <trkpt lat="45.45337" lon="5.98464">
        <ele>398.29</ele>
        <time>2016-09-09T07:42:31Z</time>
      </trkpt>
      <trkpt lat="45.45348" lon="5.98441">
        <ele>397.15</ele>
        <time>2016-09-09T07:42:37Z</time>
      </trkpt>
      <trkpt lat="45.4536" lon="5.9842">
        <ele>395.15</ele>
        <time>2016-09-09T07:42:43Z</time>
      </trkpt>
      <trkpt lat="45.45373" lon="5.98395">
        <ele>394.93</ele>
        <time>2016-09-09T07:42:50Z</time>
      </trkpt>
      <trkpt lat="45.45387" lon="5.98373">
        <ele>396.57</ele>
        <time>2016-09-09T07:42:58Z</time>
      </trkpt>
      <trkpt lat="45.45402" lon="5.98359">
        <ele>398.8</ele>
        <time>2016-09-09T07:43:06Z</time>
      </trkpt>
      <trkpt lat="45.45414" lon="5.98338">
        <ele>399.62</ele>
        <time>2016-09-09T07:43:13Z</time>
      </trkpt>
      <trkpt lat="45.45422" lon="5.98307">
        <ele>398.26</ele>
        <time>2016-09-09T07:43:18Z</time>
      </trkpt>
      <trkpt lat="45.45431" lon="5.98279">
        <ele>395.84</ele>
        <time>2016-09-09T07:43:23Z</time>
      </trkpt>
      <trkpt lat="45.45435" lon="5.9825">
        <ele>395.12</ele>
        <time>2016-09-09T07:43:28Z</time>
      </trkpt>
      <trkpt lat="45.45443" lon="5.98226">
        <ele>395.09</ele>
        <time>2016-09-09T07:43:44Z</time>
      </trkpt>
      <trkpt lat="45.45457" lon="5.98208">
        <ele>393.62</ele>
        <time>2016-09-09T07:43:49Z</time>
      </trkpt>
      <trkpt lat="45.45469" lon="5.98185">
        <ele>388.93</ele>
        <time>2016-09-09T07:43:53Z</time>
      </trkpt>
      <trkpt lat="45.4548" lon="5.98163">
        <ele>383.2</ele>
        <time>2016-09-09T07:43:56Z</time>
      </trkpt>
      <trkpt lat="45.45496" lon="5.98146">
        <ele>377.84</ele>
        <time>2016-09-09T07:43:59Z</time>
      </trkpt>
      <trkpt lat="45.45515" lon="5.98129">
        <ele>369.74</ele>
        <time>2016-09-09T07:44:06Z</time>
      </trkpt>
      <trkpt lat="45.45531" lon="5.98116">
        <ele>366.87</ele>
        <time>2016-09-09T07:44:10Z</time>
      </trkpt>
      <trkpt lat="45.45548" lon="5.98094">
        <ele>363.7</ele>
        <time>2016-09-09T07:44:15Z</time>
      </trkpt>
      <trkpt lat="45.45562" lon="5.98075">
        <ele>358.09</ele>
        <time>2016-09-09T07:44:20Z</time>
      </trkpt>
      <trkpt lat="45.45582" lon="5.98087">
        <ele>353.19</ele>
        <time>2016-09-09T07:44:26Z</time>
      </trkpt>
      <trkpt lat="45.45584" lon="5.98118">
        <ele>351.11</ele>
        <time>2016-09-09T07:44:29Z</time>
      </trkpt>
      <trkpt lat="45.45576" lon="5.98151">
        <ele>349.55</ele>
        <time>2016-09-09T07:44:32Z</time>
      </trkpt>
      <trkpt lat="45.45565" lon="5.98179">
        <ele>348.4</ele>
        <time>2016-09-09T07:44:35Z</time>
      </trkpt>
      <trkpt lat="45.45554" lon="5.98208">
        <ele>346.97</ele>
        <time>2016-09-09T07:44:38Z</time>
      </trkpt>
      <trkpt lat="45.45539" lon="5.98228">
        <ele>346.14</ele>
        <time>2016-09-09T07:44:41Z</time>
      </trkpt>
      <trkpt lat="45.45526" lon="5.98249">
        <ele>346.31</ele>
        <time>2016-09-09T07:44:44Z</time>
      </trkpt>
      <trkpt lat="45.45513" lon="5.98274">
        <ele>345.4</ele>
        <time>2016-09-09T07:44:47Z</time>
      </trkpt>
      <trkpt lat="45.45503" lon="5.98304">
        <ele>343.83</ele>
        <time>2016-09-09T07:44:50Z</time>
      </trkpt>
      <trkpt lat="45.45516" lon="5.98334">
        <ele>341.76</ele>
        <time>2016-09-09T07:44:53Z</time>
      </trkpt>
      <trkpt lat="45.45535" lon="5.98351">
        <ele>339.85</ele>
        <time>2016-09-09T07:44:56Z</time>
      </trkpt>
      <trkpt lat="45.45551" lon="5.98374">
        <ele>339.07</ele>
        <time>2016-09-09T07:44:59Z</time>
      </trkpt>
      <trkpt lat="45.45562" lon="5.98399">
        <ele>338.67</ele>
        <time>2016-09-09T07:45:02Z</time>
      </trkpt>
      <trkpt lat="45.45574" lon="5.98428">
        <ele>339.36</ele>
        <time>2016-09-09T07:45:06Z</time>
      </trkpt>
      <trkpt lat="45.45586" lon="5.98451">
        <ele>338.73</ele>
        <time>2016-09-09T07:45:09Z</time>
      </trkpt>
      <trkpt lat="45.45606" lon="5.98464">
        <ele>336.82</ele>
        <time>2016-09-09T07:45:12Z</time>
      </trkpt>
      <trkpt lat="45.45626" lon="5.98471">
        <ele>335.94</ele>
        <time>2016-09-09T07:45:14Z</time>
      </trkpt>
      <trkpt lat="45.45645" lon="5.98459">
        <ele>335.31</ele>
        <time>2016-09-09T07:45:17Z</time>
      </trkpt>
      <trkpt lat="45.45671" lon="5.98466">
        <ele>334.31</ele>
        <time>2016-09-09T07:45:20Z</time>
      </trkpt>
      <trkpt lat="45.45687" lon="5.98482">
        <ele>333.58</ele>
        <time>2016-09-09T07:45:23Z</time>
      </trkpt>
      <trkpt lat="45.45701" lon="5.9851">
        <ele>332.74</ele>
        <time>2016-09-09T07:45:26Z</time>
      </trkpt>
      <trkpt lat="45.45703" lon="5.98546">
        <ele>331.43</ele>
        <time>2016-09-09T07:45:29Z</time>
      </trkpt>
      <trkpt lat="45.45704" lon="5.98584">
        <ele>329.61</ele>
        <time>2016-09-09T07:45:32Z</time>
      </trkpt>
      <trkpt lat="45.4572" lon="5.98614">
        <ele>328.06</ele>
        <time>2016-09-09T07:45:35Z</time>
      </trkpt>
      <trkpt lat="45.45743" lon="5.98633">
        <ele>326.88</ele>
        <time>2016-09-09T07:45:38Z</time>
      </trkpt>
      <trkpt lat="45.45759" lon="5.98644">
        <ele>325.73</ele>
        <time>2016-09-09T07:45:40Z</time>
      </trkpt>
      <trkpt lat="45.45777" lon="5.98653">
        <ele>324.96</ele>
        <time>2016-09-09T07:45:42Z</time>
      </trkpt>
      <trkpt lat="45.45795" lon="5.9866">
        <ele>323.85</ele>
        <time>2016-09-09T07:45:44Z</time>
      </trkpt>
      <trkpt lat="45.45814" lon="5.98668">
        <ele>322.88</ele>
        <time>2016-09-09T07:45:46Z</time>
      </trkpt>
      <trkpt lat="45.45831" lon="5.98675">
        <ele>322.23</ele>
        <time>2016-09-09T07:45:48Z</time>
      </trkpt>
      <trkpt lat="45.45849" lon="5.98687">
        <ele>321.73</ele>
        <time>2016-09-09T07:45:50Z</time>
      </trkpt>
      <trkpt lat="45.45867" lon="5.9871">
        <ele>321.19</ele>
        <time>2016-09-09T07:45:53Z</time>
      </trkpt>
      <trkpt lat="45.45876" lon="5.98741">
        <ele>320.28</ele>
        <time>2016-09-09T07:45:56Z</time>
      </trkpt>
      <trkpt lat="45.45894" lon="5.98761">
        <ele>318.64</ele>
        <time>2016-09-09T07:45:59Z</time>
      </trkpt>
      <trkpt lat="45.45908" lon="5.98781">
        <ele>316.95</ele>
        <time>2016-09-09T07:46:03Z</time>
      </trkpt>
      <trkpt lat="45.45921" lon="5.98801">
        <ele>315.57</ele>
        <time>2016-09-09T07:46:06Z</time>
      </trkpt>
      <trkpt lat="45.45937" lon="5.98824">
        <ele>314.47</ele>
        <time>2016-09-09T07:46:09Z</time>
      </trkpt>
      <trkpt lat="45.45954" lon="5.98843">
        <ele>313.52</ele>
        <time>2016-09-09T07:46:12Z</time>
      </trkpt>
      <trkpt lat="45.45974" lon="5.98859">
        <ele>312.56</ele>
        <time>2016-09-09T07:46:15Z</time>
      </trkpt>
      <trkpt lat="45.45997" lon="5.98869">
        <ele>311.37</ele>
        <time>2016-09-09T07:46:18Z</time>
      </trkpt>
      <trkpt lat="45.46018" lon="5.98887">
        <ele>309.68</ele>
        <time>2016-09-09T07:46:21Z</time>
      </trkpt>
      <trkpt lat="45.46039" lon="5.98906">
        <ele>308.57</ele>
        <time>2016-09-09T07:46:24Z</time>
      </trkpt>
      <trkpt lat="45.46061" lon="5.98922">
        <ele>307.99</ele>
        <time>2016-09-09T07:46:27Z</time>
      </trkpt>
      <trkpt lat="45.46079" lon="5.98927">
        <ele>307.1</ele>
        <time>2016-09-09T07:46:30Z</time>
      </trkpt>
      <trkpt lat="45.46099" lon="5.98925">
        <ele>306.88</ele>
        <time>2016-09-09T07:46:37Z</time>
      </trkpt>
      <trkpt lat="45.46119" lon="5.98921">
        <ele>306.67</ele>
        <time>2016-09-09T07:46:42Z</time>
      </trkpt>
      <trkpt lat="45.4614" lon="5.98922">
        <ele>306.55</ele>
        <time>2016-09-09T07:46:47Z</time>
      </trkpt>
      <trkpt lat="45.46161" lon="5.98934">
        <ele>305.92</ele>
        <time>2016-09-09T07:46:52Z</time>
      </trkpt>
      <trkpt lat="45.46179" lon="5.98944">
        <ele>305.41</ele>
        <time>2016-09-09T07:46:56Z</time>
      </trkpt>
      <trkpt lat="45.46196" lon="5.98957">
        <ele>304.58</ele>
        <time>2016-09-09T07:47:01Z</time>
      </trkpt>
      <trkpt lat="45.46215" lon="5.98962">
        <ele>304.19</ele>
        <time>2016-09-09T07:47:07Z</time>
      </trkpt>
      <trkpt lat="45.46232" lon="5.98972">
        <ele>303.75</ele>
        <time>2016-09-09T07:47:11Z</time>
      </trkpt>
      <trkpt lat="45.46251" lon="5.98987">
        <ele>303.52</ele>
        <time>2016-09-09T07:47:16Z</time>
      </trkpt>
      <trkpt lat="45.46268" lon="5.98997">
        <ele>303.3</ele>
        <time>2016-09-09T07:47:20Z</time>
      </trkpt>
      <trkpt lat="45.46284" lon="5.99016">
        <ele>302.73</ele>
        <time>2016-09-09T07:47:25Z</time>
      </trkpt>
      <trkpt lat="45.463" lon="5.99029">
        <ele>302.28</ele>
        <time>2016-09-09T07:47:29Z</time>
      </trkpt>
      <trkpt lat="45.46318" lon="5.99037">
        <ele>302.32</ele>
        <time>2016-09-09T07:48:16Z</time>
      </trkpt>
      <trkpt lat="45.46337" lon="5.99037">
        <ele>302.13</ele>
        <time>2016-09-09T07:48:21Z</time>
      </trkpt>
      <trkpt lat="45.46357" lon="5.99035">
        <ele>302.19</ele>
        <time>2016-09-09T07:48:26Z</time>
      </trkpt>
      <trkpt lat="45.46376" lon="5.9903">
        <ele>301.96</ele>
        <time>2016-09-09T07:48:32Z</time>
      </trkpt>
      <trkpt lat="45.46391" lon="5.99013">
        <ele>301.16</ele>
        <time>2016-09-09T07:48:40Z</time>
      </trkpt>
      <trkpt lat="45.46393" lon="5.98983">
        <ele>301.92</ele>
        <time>2016-09-09T07:48:46Z</time>
      </trkpt>
      <trkpt lat="45.46392" lon="5.98955">
        <ele>302.28</ele>
        <time>2016-09-09T07:48:51Z</time>
      </trkpt>
      <trkpt lat="45.46389" lon="5.98927">
        <ele>302.43</ele>
        <time>2016-09-09T07:48:56Z</time>
      </trkpt>
      <trkpt lat="45.46385" lon="5.98897">
        <ele>302.73</ele>
        <time>2016-09-09T07:49:01Z</time>
      </trkpt>
      <trkpt lat="45.46384" lon="5.98869">
        <ele>303.07</ele>
        <time>2016-09-09T07:49:06Z</time>
      </trkpt>
      <trkpt lat="45.46382" lon="5.98842">
        <ele>303.64</ele>
        <time>2016-09-09T07:49:11Z</time>
      </trkpt>
      <trkpt lat="45.46381" lon="5.98815">
        <ele>304.29</ele>
        <time>2016-09-09T07:49:16Z</time>
      </trkpt>
      <trkpt lat="45.46378" lon="5.98789">
        <ele>304.79</ele>
        <time>2016-09-09T07:49:21Z</time>
      </trkpt>
      <trkpt lat="45.46372" lon="5.98762">
        <ele>305.8</ele>
        <time>2016-09-09T07:51:17Z</time>
      </trkpt>
      <trkpt lat="45.46368" lon="5.98736">
        <ele>307.16</ele>
        <time>2016-09-09T07:51:24Z</time>
      </trkpt>
      <trkpt lat="45.46361" lon="5.98708">
        <ele>308.4</ele>
        <time>2016-09-09T07:51:31Z</time>
      </trkpt>
      <trkpt lat="45.46364" lon="5.98681">
        <ele>310.18</ele>
        <time>2016-09-09T07:51:39Z</time>
      </trkpt>
      <trkpt lat="45.46382" lon="5.98674">
        <ele>309.74</ele>
        <time>2016-09-09T07:51:44Z</time>
      </trkpt>
      <trkpt lat="45.464" lon="5.98669">
        <ele>308.48</ele>
        <time>2016-09-09T07:51:47Z</time>
      </trkpt>
      <trkpt lat="45.46421" lon="5.98666">
        <ele>306.84</ele>
        <time>2016-09-09T07:51:50Z</time>
      </trkpt>
      <trkpt lat="45.46442" lon="5.98661">
        <ele>305.63</ele>
        <time>2016-09-09T07:51:53Z</time>
      </trkpt>
      <trkpt lat="45.46464" lon="5.98655">
        <ele>304.63</ele>
        <time>2016-09-09T07:51:56Z</time>
      </trkpt>
      <trkpt lat="45.46487" lon="5.9865">
        <ele>303.65</ele>
        <time>2016-09-09T07:51:59Z</time>
      </trkpt>
      <trkpt lat="45.46504" lon="5.98638">
        <ele>303.21</ele>
        <time>2016-09-09T07:52:02Z</time>
      </trkpt>
      <trkpt lat="45.46524" lon="5.98628">
        <ele>302.99</ele>
        <time>2016-09-09T07:52:05Z</time>
      </trkpt>
      <trkpt lat="45.46533" lon="5.98605">
        <ele>303.36</ele>
        <time>2016-09-09T07:52:17Z</time>
      </trkpt>
      <trkpt lat="45.46527" lon="5.9858">
        <ele>305.1</ele>
        <time>2016-09-09T07:52:24Z</time>
      </trkpt>
      <trkpt lat="45.46521" lon="5.98556">
        <ele>306.99</ele>
        <time>2016-09-09T07:52:32Z</time>
      </trkpt>
      <trkpt lat="45.46516" lon="5.9853">
        <ele>308.26</ele>
        <time>2016-09-09T07:52:39Z</time>
      </trkpt>
      <trkpt lat="45.46505" lon="5.9851">
        <ele>310.47</ele>
        <time>2016-09-09T07:52:47Z</time>
      </trkpt>
      <trkpt lat="45.46486" lon="5.9852">
        <ele>312.32</ele>
        <time>2016-09-09T07:52:55Z</time>
      </trkpt>
      <trkpt lat="45.46476" lon="5.98544">
        <ele>314.42</ele>
        <time>2016-09-09T07:53:03Z</time>
      </trkpt>
      <trkpt lat="45.46469" lon="5.9857">
        <ele>316.83</ele>
        <time>2016-09-09T07:53:11Z</time>
      </trkpt>
      <trkpt lat="45.46458" lon="5.98591">
        <ele>318.84</ele>
        <time>2016-09-09T07:53:19Z</time>
      </trkpt>
      <trkpt lat="45.46441" lon="5.98579">
        <ele>321.5</ele>
        <time>2016-09-09T07:53:28Z</time>
      </trkpt>
      <trkpt lat="45.4644" lon="5.98551">
        <ele>324.23</ele>
        <time>2016-09-09T07:53:38Z</time>
      </trkpt>
      <trkpt lat="45.4644" lon="5.98523">
        <ele>326.53</ele>
        <time>2016-09-09T07:53:47Z</time>
      </trkpt>
      <trkpt lat="45.46428" lon="5.98502">
        <ele>328.99</ele>
        <time>2016-09-09T07:53:57Z</time>
      </trkpt>
      <trkpt lat="45.46417" lon="5.98481">
        <ele>331.2</ele>
        <time>2016-09-09T07:54:07Z</time>
      </trkpt>
      <trkpt lat="45.464" lon="5.98467">
        <ele>333.28</ele>
        <time>2016-09-09T07:54:16Z</time>
      </trkpt>
      <trkpt lat="45.46383" lon="5.98453">
        <ele>334.91</ele>
        <time>2016-09-09T07:54:24Z</time>
      </trkpt>
      <trkpt lat="45.46368" lon="5.98437">
        <ele>336.78</ele>
        <time>2016-09-09T07:54:33Z</time>
      </trkpt>
      <trkpt lat="45.46351" lon="5.98422">
        <ele>338.71</ele>
        <time>2016-09-09T07:54:41Z</time>
      </trkpt>
      <trkpt lat="45.46334" lon="5.98409">
        <ele>340.41</ele>
        <time>2016-09-09T07:54:49Z</time>
      </trkpt>
      <trkpt lat="45.4632" lon="5.9839">
        <ele>342.63</ele>
        <time>2016-09-09T07:54:57Z</time>
      </trkpt>
      <trkpt lat="45.46312" lon="5.98366">
        <ele>344.35</ele>
        <time>2016-09-09T07:55:05Z</time>
      </trkpt>
      <trkpt lat="45.46307" lon="5.98337">
        <ele>345.74</ele>
        <time>2016-09-09T07:55:13Z</time>
      </trkpt>
      <trkpt lat="45.463" lon="5.9831">
        <ele>346.87</ele>
        <time>2016-09-09T07:55:20Z</time>
      </trkpt>
      <trkpt lat="45.46296" lon="5.98283">
        <ele>348.26</ele>
        <time>2016-09-09T07:55:27Z</time>
      </trkpt>
      <trkpt lat="45.46283" lon="5.98264">
        <ele>349.66</ele>
        <time>2016-09-09T07:55:34Z</time>
      </trkpt>
      <trkpt lat="45.46277" lon="5.98238">
        <ele>352.05</ele>
        <time>2016-09-09T07:55:44Z</time>
      </trkpt>
      <trkpt lat="45.46282" lon="5.98213">
        <ele>353.96</ele>
        <time>2016-09-09T07:55:51Z</time>
      </trkpt>
      <trkpt lat="45.46268" lon="5.98196">
        <ele>358.15</ele>
        <time>2016-09-09T07:56:04Z</time>
      </trkpt>
      <trkpt lat="45.4626" lon="5.98223">
        <ele>360.57</ele>
        <time>2016-09-09T07:56:14Z</time>
      </trkpt>
      <trkpt lat="45.46259" lon="5.9825">
        <ele>363.3</ele>
        <time>2016-09-09T07:56:24Z</time>
      </trkpt>
      <trkpt lat="45.4626" lon="5.98277">
        <ele>366.06</ele>
        <time>2016-09-09T07:56:34Z</time>
      </trkpt>
      <trkpt lat="45.46256" lon="5.98304">
        <ele>368.52</ele>
        <time>2016-09-09T07:56:43Z</time>
      </trkpt>
      <trkpt lat="45.46252" lon="5.98329">
        <ele>370.92</ele>
        <time>2016-09-09T07:56:52Z</time>
      </trkpt>
      <trkpt lat="45.46244" lon="5.98354">
        <ele>373.06</ele>
        <time>2016-09-09T07:57:00Z</time>
      </trkpt>
      <trkpt lat="45.46234" lon="5.98377">
        <ele>375.73</ele>
        <time>2016-09-09T07:57:10Z</time>
      </trkpt>
      <trkpt lat="45.46216" lon="5.98385">
        <ele>378.14</ele>
        <time>2016-09-09T07:57:19Z</time>
      </trkpt>
      <trkpt lat="45.46197" lon="5.9839">
        <ele>381.25</ele>
        <time>2016-09-09T07:57:31Z</time>
      </trkpt>
      <trkpt lat="45.46184" lon="5.98408">
        <ele>383.85</ele>
        <time>2016-09-09T07:57:41Z</time>
      </trkpt>
      <trkpt lat="45.46171" lon="5.98427">
        <ele>386.29</ele>
        <time>2016-09-09T07:57:51Z</time>
      </trkpt>
      <trkpt lat="45.46155" lon="5.98444">
        <ele>388.37</ele>
        <time>2016-09-09T07:57:59Z</time>
      </trkpt>
      <trkpt lat="45.46138" lon="5.98455">
        <ele>390.78</ele>
        <time>2016-09-09T07:58:09Z</time>
      </trkpt>
      <trkpt lat="45.46123" lon="5.98469">
        <ele>393.14</ele>
        <time>2016-09-09T07:58:18Z</time>
      </trkpt>
      <trkpt lat="45.46103" lon="5.9847">
        <ele>395.14</ele>
        <time>2016-09-09T07:58:27Z</time>
      </trkpt>
      <trkpt lat="45.46083" lon="5.98477">
        <ele>397.57</ele>
        <time>2016-09-09T07:58:37Z</time>
      </trkpt>
      <trkpt lat="45.46065" lon="5.98487">
        <ele>399.8</ele>
        <time>2016-09-09T07:58:46Z</time>
      </trkpt>
      <trkpt lat="45.46046" lon="5.98491">
        <ele>402.19</ele>
        <time>2016-09-09T07:58:56Z</time>
      </trkpt>
      <trkpt lat="45.46028" lon="5.98487">
        <ele>404.66</ele>
        <time>2016-09-09T07:59:05Z</time>
      </trkpt>
      <trkpt lat="45.46015" lon="5.98468">
        <ele>406.92</ele>
        <time>2016-09-09T07:59:14Z</time>
      </trkpt>
      <trkpt lat="45.46" lon="5.9845">
        <ele>409.91</ele>
        <time>2016-09-09T07:59:25Z</time>
      </trkpt>
      <trkpt lat="45.45988" lon="5.98431">
        <ele>412.54</ele>
        <time>2016-09-09T07:59:34Z</time>
      </trkpt>
      <trkpt lat="45.45977" lon="5.9841">
        <ele>414.93</ele>
        <time>2016-09-09T07:59:43Z</time>
      </trkpt>
      <trkpt lat="45.45975" lon="5.98381">
        <ele>417.83</ele>
        <time>2016-09-09T07:59:53Z</time>
      </trkpt>
      <trkpt lat="45.45979" lon="5.98356">
        <ele>420.12</ele>
        <time>2016-09-09T08:00:03Z</time>
      </trkpt>
      <trkpt lat="45.45987" lon="5.98332">
        <ele>421.44</ele>
        <time>2016-09-09T08:00:12Z</time>
      </trkpt>
      <trkpt lat="45.45996" lon="5.98308">
        <ele>423.05</ele>
        <time>2016-09-09T08:00:21Z</time>
      </trkpt>
      <trkpt lat="45.46003" lon="5.98283">
        <ele>424.06</ele>
        <time>2016-09-09T08:00:28Z</time>
      </trkpt>
      <trkpt lat="45.46011" lon="5.98256">
        <ele>425.02</ele>
        <time>2016-09-09T08:00:35Z</time>
      </trkpt>
      <trkpt lat="45.46021" lon="5.98234">
        <ele>426.46</ele>
        <time>2016-09-09T08:00:42Z</time>
      </trkpt>
      <trkpt lat="45.46021" lon="5.98207">
        <ele>428.37</ele>
        <time>2016-09-09T08:00:51Z</time>
      </trkpt>
      <trkpt lat="45.46001" lon="5.98208">
        <ele>430.62</ele>
        <time>2016-09-09T08:01:00Z</time>
      </trkpt>
      <trkpt lat="45.45983" lon="5.9822">
        <ele>432.49</ele>
        <time>2016-09-09T08:01:09Z</time>
      </trkpt>
      <trkpt lat="45.45965" lon="5.98226">
        <ele>434.49</ele>
        <time>2016-09-09T08:01:17Z</time>
      </trkpt>
      <trkpt lat="45.45949" lon="5.9824">
        <ele>436.6</ele>
        <time>2016-09-09T08:01:26Z</time>
      </trkpt>
      <trkpt lat="45.45931" lon="5.98233">
        <ele>439.43</ele>
        <time>2016-09-09T08:01:37Z</time>
      </trkpt>
      <trkpt lat="45.4594" lon="5.98208">
        <ele>442.67</ele>
        <time>2016-09-09T08:01:50Z</time>
      </trkpt>
      <trkpt lat="45.45949" lon="5.98184">
        <ele>445.11</ele>
        <time>2016-09-09T08:02:00Z</time>
      </trkpt>
      <trkpt lat="45.45959" lon="5.98162">
        <ele>447.37</ele>
        <time>2016-09-09T08:02:10Z</time>
      </trkpt>
      <trkpt lat="45.45966" lon="5.98138">
        <ele>449.44</ele>
        <time>2016-09-09T08:02:19Z</time>
      </trkpt>
      <trkpt lat="45.45973" lon="5.98115">
        <ele>451.24</ele>
        <time>2016-09-09T08:02:28Z</time>
      </trkpt>
      <trkpt lat="45.45981" lon="5.98088">
        <ele>453.81</ele>
        <time>2016-09-09T08:02:38Z</time>
      </trkpt>
      <trkpt lat="45.45988" lon="5.98064">
        <ele>455.49</ele>
        <time>2016-09-09T08:02:47Z</time>
      </trkpt>
      <trkpt lat="45.45991" lon="5.98039">
        <ele>457.59</ele>
        <time>2016-09-09T08:02:57Z</time>
      </trkpt>
      <trkpt lat="45.45988" lon="5.98012">
        <ele>459.72</ele>
        <time>2016-09-09T08:03:06Z</time>
      </trkpt>
      <trkpt lat="45.45983" lon="5.97986">
        <ele>462.26</ele>
        <time>2016-09-09T08:03:17Z</time>
      </trkpt>
      <trkpt lat="45.45975" lon="5.97962">
        <ele>464.56</ele>
        <time>2016-09-09T08:03:28Z</time>
      </trkpt>
      <trkpt lat="45.45972" lon="5.97936">
        <ele>466.73</ele>
        <time>2016-09-09T08:03:38Z</time>
      </trkpt>
      <trkpt lat="45.45973" lon="5.97908">
        <ele>468.76</ele>
        <time>2016-09-09T08:03:48Z</time>
      </trkpt>
      <trkpt lat="45.45974" lon="5.97881">
        <ele>471.06</ele>
        <time>2016-09-09T08:03:58Z</time>
      </trkpt>
      <trkpt lat="45.45975" lon="5.97856">
        <ele>473.12</ele>
        <time>2016-09-09T08:04:08Z</time>
      </trkpt>
      <trkpt lat="45.45979" lon="5.9783">
        <ele>474.58</ele>
        <time>2016-09-09T08:04:16Z</time>
      </trkpt>
      <trkpt lat="45.4599" lon="5.97807">
        <ele>476.82</ele>
        <time>2016-09-09T08:04:28Z</time>
      </trkpt>
      <trkpt lat="45.46" lon="5.97785">
        <ele>478.17</ele>
        <time>2016-09-09T08:04:35Z</time>
      </trkpt>
      <trkpt lat="45.46012" lon="5.97765">
        <ele>479.67</ele>
        <time>2016-09-09T08:04:44Z</time>
      </trkpt>
      <trkpt lat="45.46026" lon="5.97746">
        <ele>480.59</ele>
        <time>2016-09-09T08:04:50Z</time>
      </trkpt>
      <trkpt lat="45.46039" lon="5.97725">
        <ele>481.63</ele>
        <time>2016-09-09T08:04:57Z</time>
      </trkpt>
      <trkpt lat="45.4605" lon="5.97702">
        <ele>483.19</ele>
        <time>2016-09-09T08:05:05Z</time>
      </trkpt>
      <trkpt lat="45.46063" lon="5.97681">
        <ele>484.48</ele>
        <time>2016-09-09T08:05:11Z</time>
      </trkpt>
      <trkpt lat="45.46075" lon="5.97658">
        <ele>485.87</ele>
        <time>2016-09-09T08:05:18Z</time>
      </trkpt>
      <trkpt lat="45.46085" lon="5.97636">
        <ele>487.36</ele>
        <time>2016-09-09T08:05:25Z</time>
      </trkpt>
      <trkpt lat="45.46097" lon="5.97614">
        <ele>489.06</ele>
        <time>2016-09-09T08:05:32Z</time>
      </trkpt>
      <trkpt lat="45.46107" lon="5.97593">
        <ele>490.52</ele>
        <time>2016-09-09T08:05:39Z</time>
      </trkpt>
      <trkpt lat="45.46117" lon="5.97569">
        <ele>492.82</ele>
        <time>2016-09-09T08:05:47Z</time>
      </trkpt>
      <trkpt lat="45.46127" lon="5.97544">
        <ele>495.27</ele>
        <time>2016-09-09T08:05:56Z</time>
      </trkpt>
      <trkpt lat="45.46137" lon="5.97522">
        <ele>497.33</ele>
        <time>2016-09-09T08:06:04Z</time>
      </trkpt>
      <trkpt lat="45.46152" lon="5.97504">
        <ele>499.4</ele>
        <time>2016-09-09T08:06:13Z</time>
      </trkpt>
      <trkpt lat="45.46168" lon="5.97488">
        <ele>501.71</ele>
        <time>2016-09-09T08:06:23Z</time>
      </trkpt>
      <trkpt lat="45.46186" lon="5.97481">
        <ele>503.42</ele>
        <time>2016-09-09T08:06:31Z</time>
      </trkpt>
      <trkpt lat="45.46205" lon="5.97473">
        <ele>505.56</ele>
        <time>2016-09-09T08:06:41Z</time>
      </trkpt>
      <trkpt lat="45.46223" lon="5.97462">
        <ele>507.97</ele>
        <time>2016-09-09T08:06:51Z</time>
      </trkpt>
      <trkpt lat="45.46241" lon="5.97454">
        <ele>510.74</ele>
        <time>2016-09-09T08:07:03Z</time>
      </trkpt>
      <trkpt lat="45.4626" lon="5.97447">
        <ele>513.06</ele>
        <time>2016-09-09T08:07:12Z</time>
      </trkpt>
      <trkpt lat="45.46276" lon="5.97433">
        <ele>515.18</ele>
        <time>2016-09-09T08:07:20Z</time>
      </trkpt>
      <trkpt lat="45.46293" lon="5.97424">
        <ele>517.36</ele>
        <time>2016-09-09T08:07:27Z</time>
      </trkpt>
      <trkpt lat="45.46309" lon="5.97409">
        <ele>519.16</ele>
        <time>2016-09-09T08:07:35Z</time>
      </trkpt>
      <trkpt lat="45.46324" lon="5.97393">
        <ele>520.9</ele>
        <time>2016-09-09T08:07:44Z</time>
      </trkpt>
      <trkpt lat="45.4634" lon="5.97377">
        <ele>521.87</ele>
        <time>2016-09-09T08:07:51Z</time>
      </trkpt>
      <trkpt lat="45.46356" lon="5.97359">
        <ele>522.84</ele>
        <time>2016-09-09T08:07:58Z</time>
      </trkpt>
      <trkpt lat="45.46368" lon="5.9734">
        <ele>523.89</ele>
        <time>2016-09-09T08:08:05Z</time>
      </trkpt>
      <trkpt lat="45.46382" lon="5.97319">
        <ele>525.6</ele>
        <time>2016-09-09T08:08:13Z</time>
      </trkpt>
      <trkpt lat="45.46391" lon="5.97295">
        <ele>527.42</ele>
        <time>2016-09-09T08:08:21Z</time>
      </trkpt>
      <trkpt lat="45.46401" lon="5.9727">
        <ele>529.17</ele>
        <time>2016-09-09T08:08:29Z</time>
      </trkpt>
      <trkpt lat="45.46412" lon="5.97247">
        <ele>530.02</ele>
        <time>2016-09-09T08:08:35Z</time>
      </trkpt>
      <trkpt lat="45.46423" lon="5.97224">
        <ele>531.49</ele>
        <time>2016-09-09T08:08:43Z</time>
      </trkpt>
      <trkpt lat="45.46442" lon="5.97223">
        <ele>533.09</ele>
        <time>2016-09-09T08:08:51Z</time>
      </trkpt>
      <trkpt lat="45.46459" lon="5.97233">
        <ele>534.13</ele>
        <time>2016-09-09T08:08:57Z</time>
      </trkpt>
      <trkpt lat="45.46476" lon="5.97241">
        <ele>535.17</ele>
        <time>2016-09-09T08:09:03Z</time>
      </trkpt>
      <trkpt lat="45.46495" lon="5.9725">
        <ele>536.48</ele>
        <time>2016-09-09T08:09:10Z</time>
      </trkpt>
      <trkpt lat="45.46515" lon="5.97257">
        <ele>536.97</ele>
        <time>2016-09-09T08:09:17Z</time>
      </trkpt>
      <trkpt lat="45.46533" lon="5.97264">
        <ele>537.41</ele>
        <time>2016-09-09T08:09:26Z</time>
      </trkpt>
      <trkpt lat="45.46552" lon="5.97268">
        <ele>538.05</ele>
        <time>2016-09-09T08:14:36Z</time>
      </trkpt>
      <trkpt lat="45.4657" lon="5.97273">
        <ele>538.3</ele>
        <time>2016-09-09T08:16:04Z</time>
      </trkpt>
      <trkpt lat="45.46588" lon="5.97268">
        <ele>538.53</ele>
        <time>2016-09-09T08:16:09Z</time>
      </trkpt>
      <trkpt lat="45.46607" lon="5.97268">
        <ele>539.28</ele>
        <time>2016-09-09T08:16:20Z</time>
      </trkpt>
      <trkpt lat="45.46628" lon="5.97273">
        <ele>539.52</ele>
        <time>2016-09-09T08:16:28Z</time>
      </trkpt>
      <trkpt lat="45.46649" lon="5.97275">
        <ele>539.75</ele>
        <time>2016-09-09T08:16:34Z</time>
      </trkpt>
      <trkpt lat="45.46668" lon="5.97281">
        <ele>540.16</ele>
        <time>2016-09-09T08:16:39Z</time>
      </trkpt>
      <trkpt lat="45.46685" lon="5.97289">
        <ele>541.24</ele>
        <time>2016-09-09T08:16:45Z</time>
      </trkpt>
      <trkpt lat="45.46702" lon="5.97299">
        <ele>541.95</ele>
        <time>2016-09-09T08:16:52Z</time>
      </trkpt>
      <trkpt lat="45.46723" lon="5.97304">
        <ele>542.33</ele>
        <time>2016-09-09T08:16:59Z</time>
      </trkpt>
      <trkpt lat="45.46744" lon="5.97307">
        <ele>541.9</ele>
        <time>2016-09-09T08:17:04Z</time>
      </trkpt>
      <trkpt lat="45.46766" lon="5.97312">
        <ele>541.71</ele>
        <time>2016-09-09T08:17:09Z</time>
      </trkpt>
      <trkpt lat="45.46786" lon="5.97317">
        <ele>541.26</ele>
        <time>2016-09-09T08:17:14Z</time>
      </trkpt>
      <trkpt lat="45.46808" lon="5.97321">
        <ele>541.09</ele>
        <time>2016-09-09T08:17:19Z</time>
      </trkpt>
      <trkpt lat="45.46827" lon="5.97329">
        <ele>540.97</ele>
        <time>2016-09-09T08:17:24Z</time>
      </trkpt>
      <trkpt lat="45.46845" lon="5.97334">
        <ele>540.79</ele>
        <time>2016-09-09T08:17:29Z</time>
      </trkpt>
      <trkpt lat="45.46864" lon="5.97333">
        <ele>540.38</ele>
        <time>2016-09-09T08:17:33Z</time>
      </trkpt>
      <trkpt lat="45.4688" lon="5.97309">
        <ele>539.23</ele>
        <time>2016-09-09T08:17:37Z</time>
      </trkpt>
      <trkpt lat="45.46893" lon="5.9728">
        <ele>537.99</ele>
        <time>2016-09-09T08:17:41Z</time>
      </trkpt>
      <trkpt lat="45.46907" lon="5.97256">
        <ele>535.71</ele>
        <time>2016-09-09T08:17:44Z</time>
      </trkpt>
      <trkpt lat="45.46926" lon="5.97244">
        <ele>532.85</ele>
        <time>2016-09-09T08:17:47Z</time>
      </trkpt>
      <trkpt lat="45.46952" lon="5.97245">
        <ele>530.05</ele>
        <time>2016-09-09T08:17:50Z</time>
      </trkpt>
      <trkpt lat="45.4697" lon="5.97233">
        <ele>527.84</ele>
        <time>2016-09-09T08:17:52Z</time>
      </trkpt>
      <trkpt lat="45.4699" lon="5.97214">
        <ele>525.11</ele>
        <time>2016-09-09T08:17:54Z</time>
      </trkpt>
      <trkpt lat="45.47008" lon="5.97192">
        <ele>522.33</ele>
        <time>2016-09-09T08:17:56Z</time>
      </trkpt>
      <trkpt lat="45.47027" lon="5.9717">
        <ele>520.17</ele>
        <time>2016-09-09T08:17:58Z</time>
      </trkpt>
      <trkpt lat="45.4704" lon="5.97149">
        <ele>518.02</ele>
        <time>2016-09-09T08:18:01Z</time>
      </trkpt>
      <trkpt lat="45.47057" lon="5.97136">
        <ele>516.54</ele>
        <time>2016-09-09T08:18:06Z</time>
      </trkpt>
      <trkpt lat="45.47078" lon="5.97135">
        <ele>515.6</ele>
        <time>2016-09-09T08:18:10Z</time>
      </trkpt>
      <trkpt lat="45.47102" lon="5.97138">
        <ele>514.15</ele>
        <time>2016-09-09T08:18:14Z</time>
      </trkpt>
      <trkpt lat="45.47123" lon="5.97139">
        <ele>512.73</ele>
        <time>2016-09-09T08:18:17Z</time>
      </trkpt>
      <trkpt lat="45.47148" lon="5.97144">
        <ele>511.07</ele>
        <time>2016-09-09T08:18:20Z</time>
      </trkpt>
      <trkpt lat="45.47167" lon="5.97147">
        <ele>509.99</ele>
        <time>2016-09-09T08:18:22Z</time>
      </trkpt>
      <trkpt lat="45.47185" lon="5.97146">
        <ele>508.81</ele>
        <time>2016-09-09T08:18:24Z</time>
      </trkpt>
      <trkpt lat="45.47204" lon="5.97139">
        <ele>507.43</ele>
        <time>2016-09-09T08:18:26Z</time>
      </trkpt>
      <trkpt lat="45.47225" lon="5.97129">
        <ele>505.61</ele>
        <time>2016-09-09T08:18:29Z</time>
      </trkpt>
      <trkpt lat="45.47243" lon="5.97121">
        <ele>503.94</ele>
        <time>2016-09-09T08:18:37Z</time>
      </trkpt>
      <trkpt lat="45.47261" lon="5.9711">
        <ele>502.99</ele>
        <time>2016-09-09T08:18:41Z</time>
      </trkpt>
      <trkpt lat="45.47279" lon="5.97102">
        <ele>501.55</ele>
        <time>2016-09-09T08:18:44Z</time>
      </trkpt>
      <trkpt lat="45.473" lon="5.97091">
        <ele>500.12</ele>
        <time>2016-09-09T08:18:47Z</time>
      </trkpt>
      <trkpt lat="45.47324" lon="5.9708">
        <ele>498.6</ele>
        <time>2016-09-09T08:18:50Z</time>
      </trkpt>
      <trkpt lat="45.47348" lon="5.97068">
        <ele>496.9</ele>
        <time>2016-09-09T08:18:53Z</time>
      </trkpt>
      <trkpt lat="45.47372" lon="5.97055">
        <ele>495.18</ele>
        <time>2016-09-09T08:18:56Z</time>
      </trkpt>
      <trkpt lat="45.4739" lon="5.97045">
        <ele>493.93</ele>
        <time>2016-09-09T08:18:58Z</time>
      </trkpt>
      <trkpt lat="45.47413" lon="5.9703">
        <ele>492.17</ele>
        <time>2016-09-09T08:19:01Z</time>
      </trkpt>
      <trkpt lat="45.47427" lon="5.97007">
        <ele>490.87</ele>
        <time>2016-09-09T08:19:04Z</time>
      </trkpt>
      <trkpt lat="45.47433" lon="5.96975">
        <ele>489.82</ele>
        <time>2016-09-09T08:19:07Z</time>
      </trkpt>
      <trkpt lat="45.47432" lon="5.96942">
        <ele>488.54</ele>
        <time>2016-09-09T08:19:10Z</time>
      </trkpt>
      <trkpt lat="45.47438" lon="5.96915">
        <ele>487.11</ele>
        <time>2016-09-09T08:19:13Z</time>
      </trkpt>
      <trkpt lat="45.47457" lon="5.96909">
        <ele>485.8</ele>
        <time>2016-09-09T08:19:16Z</time>
      </trkpt>
      <trkpt lat="45.47472" lon="5.96931">
        <ele>484.95</ele>
        <time>2016-09-09T08:19:19Z</time>
      </trkpt>
      <trkpt lat="45.47478" lon="5.96963">
        <ele>484</ele>
        <time>2016-09-09T08:19:22Z</time>
      </trkpt>
      <trkpt lat="45.47485" lon="5.96994">
        <ele>483.05</ele>
        <time>2016-09-09T08:19:25Z</time>
      </trkpt>
      <trkpt lat="45.47496" lon="5.97022">
        <ele>482.14</ele>
        <time>2016-09-09T08:19:28Z</time>
      </trkpt>
      <trkpt lat="45.47515" lon="5.97039">
        <ele>481.29</ele>
        <time>2016-09-09T08:19:31Z</time>
      </trkpt>
      <trkpt lat="45.47538" lon="5.97045">
        <ele>480.54</ele>
        <time>2016-09-09T08:19:34Z</time>
      </trkpt>
      <trkpt lat="45.47561" lon="5.97046">
        <ele>480.1</ele>
        <time>2016-09-09T08:19:37Z</time>
      </trkpt>
      <trkpt lat="45.47581" lon="5.97049">
        <ele>480.27</ele>
        <time>2016-09-09T08:19:40Z</time>
      </trkpt>
      <trkpt lat="45.47601" lon="5.97054">
        <ele>480.27</ele>
        <time>2016-09-09T08:19:44Z</time>
      </trkpt>
      <trkpt lat="45.4762" lon="5.97055">
        <ele>480.57</ele>
        <time>2016-09-09T08:19:49Z</time>
      </trkpt>
      <trkpt lat="45.47638" lon="5.97051">
        <ele>480.01</ele>
        <time>2016-09-09T08:19:55Z</time>
      </trkpt>
      <trkpt lat="45.47658" lon="5.97045">
        <ele>479.07</ele>
        <time>2016-09-09T08:20:00Z</time>
      </trkpt>
      <trkpt lat="45.47678" lon="5.97038">
        <ele>478.56</ele>
        <time>2016-09-09T08:20:04Z</time>
      </trkpt>
      <trkpt lat="45.47699" lon="5.97032">
        <ele>477.95</ele>
        <time>2016-09-09T08:20:08Z</time>
      </trkpt>
      <trkpt lat="45.4772" lon="5.97024">
        <ele>477.52</ele>
        <time>2016-09-09T08:20:12Z</time>
      </trkpt>
      <trkpt lat="45.4774" lon="5.97016">
        <ele>476.74</ele>
        <time>2016-09-09T08:20:16Z</time>
      </trkpt>
      <trkpt lat="45.4776" lon="5.97009">
        <ele>476.52</ele>
        <time>2016-09-09T08:20:20Z</time>
      </trkpt>
      <trkpt lat="45.4778" lon="5.97009">
        <ele>476.85</ele>
        <time>2016-09-09T08:20:25Z</time>
      </trkpt>
      <trkpt lat="45.478" lon="5.97011">
        <ele>477.14</ele>
        <time>2016-09-09T08:20:30Z</time>
      </trkpt>
      <trkpt lat="45.47819" lon="5.97013">
        <ele>477.59</ele>
        <time>2016-09-09T08:20:35Z</time>
      </trkpt>
      <trkpt lat="45.47838" lon="5.97016">
        <ele>478.02</ele>
        <time>2016-09-09T08:20:40Z</time>
      </trkpt>
      <trkpt lat="45.47857" lon="5.97023">
        <ele>478.14</ele>
        <time>2016-09-09T08:20:45Z</time>
      </trkpt>
      <trkpt lat="45.47878" lon="5.97037">
        <ele>477.4</ele>
        <time>2016-09-09T08:20:50Z</time>
      </trkpt>
      <trkpt lat="45.47897" lon="5.97053">
        <ele>476.18</ele>
        <time>2016-09-09T08:20:54Z</time>
      </trkpt>
      <trkpt lat="45.47916" lon="5.97058">
        <ele>474.75</ele>
        <time>2016-09-09T08:20:59Z</time>
      </trkpt>
      <trkpt lat="45.47936" lon="5.97062">
        <ele>473.59</ele>
        <time>2016-09-09T08:21:09Z</time>
      </trkpt>
      <trkpt lat="45.47956" lon="5.97063">
        <ele>471.84</ele>
        <time>2016-09-09T08:21:13Z</time>
      </trkpt>
      <trkpt lat="45.47969" lon="5.97042">
        <ele>471.18</ele>
        <time>2016-09-09T08:21:18Z</time>
      </trkpt>
      <trkpt lat="45.47982" lon="5.97022">
        <ele>472.81</ele>
        <time>2016-09-09T08:21:24Z</time>
      </trkpt>
      <trkpt lat="45.47997" lon="5.97006">
        <ele>473.73</ele>
        <time>2016-09-09T08:21:31Z</time>
      </trkpt>
      <trkpt lat="45.48014" lon="5.96992">
        <ele>475.27</ele>
        <time>2016-09-09T08:21:38Z</time>
      </trkpt>
      <trkpt lat="45.48032" lon="5.96981">
        <ele>477.16</ele>
        <time>2016-09-09T08:21:46Z</time>
      </trkpt>
      <trkpt lat="45.48049" lon="5.96971">
        <ele>479.31</ele>
        <time>2016-09-09T08:21:55Z</time>
      </trkpt>
      <trkpt lat="45.48069" lon="5.96964">
        <ele>481.44</ele>
        <time>2016-09-09T08:22:04Z</time>
      </trkpt>
      <trkpt lat="45.48088" lon="5.96959">
        <ele>483</ele>
        <time>2016-09-09T08:22:12Z</time>
      </trkpt>
      <trkpt lat="45.48106" lon="5.96949">
        <ele>484.47</ele>
        <time>2016-09-09T08:22:20Z</time>
      </trkpt>
      <trkpt lat="45.48124" lon="5.96943">
        <ele>485.86</ele>
        <time>2016-09-09T08:22:28Z</time>
      </trkpt>
      <trkpt lat="45.48143" lon="5.96938">
        <ele>488.1</ele>
        <time>2016-09-09T08:22:37Z</time>
      </trkpt>
      <trkpt lat="45.4816" lon="5.96948">
        <ele>490.01</ele>
        <time>2016-09-09T08:22:47Z</time>
      </trkpt>
      <trkpt lat="45.48179" lon="5.96948">
        <ele>492.46</ele>
        <time>2016-09-09T08:22:55Z</time>
      </trkpt>
      <trkpt lat="45.48197" lon="5.96944">
        <ele>494.67</ele>
        <time>2016-09-09T08:23:03Z</time>
      </trkpt>
      <trkpt lat="45.48216" lon="5.96936">
        <ele>496.5</ele>
        <time>2016-09-09T08:23:11Z</time>
      </trkpt>
      <trkpt lat="45.48232" lon="5.96921">
        <ele>496.75</ele>
        <time>2016-09-09T08:23:19Z</time>
      </trkpt>
      <trkpt lat="45.48243" lon="5.96895">
        <ele>495.11</ele>
        <time>2016-09-09T08:23:34Z</time>
      </trkpt>
      <trkpt lat="45.48261" lon="5.96882">
        <ele>493.5</ele>
        <time>2016-09-09T08:23:38Z</time>
      </trkpt>
      <trkpt lat="45.48283" lon="5.96879">
        <ele>491.99</ele>
        <time>2016-09-09T08:23:42Z</time>
      </trkpt>
      <trkpt lat="45.48295" lon="5.96854">
        <ele>487.23</ele>
        <time>2016-09-09T08:23:50Z</time>
      </trkpt>
      <trkpt lat="45.48298" lon="5.96827">
        <ele>484.15</ele>
        <time>2016-09-09T08:23:53Z</time>
      </trkpt>
      <trkpt lat="45.48311" lon="5.9681">
        <ele>479.95</ele>
        <time>2016-09-09T08:23:57Z</time>
      </trkpt>
      <trkpt lat="45.48335" lon="5.96807">
        <ele>476.27</ele>
        <time>2016-09-09T08:24:01Z</time>
      </trkpt>
      <trkpt lat="45.4835" lon="5.96794">
        <ele>473.92</ele>
        <time>2016-09-09T08:24:06Z</time>
      </trkpt>
      <trkpt lat="45.4837" lon="5.96798">
        <ele>472.64</ele>
        <time>2016-09-09T08:24:39Z</time>
      </trkpt>
      <trkpt lat="45.48386" lon="5.96814">
        <ele>470.32</ele>
        <time>2016-09-09T08:24:43Z</time>
      </trkpt>
      <trkpt lat="45.48404" lon="5.96828">
        <ele>467.91</ele>
        <time>2016-09-09T08:24:49Z</time>
      </trkpt>
      <trkpt lat="45.48417" lon="5.96807">
        <ele>467.17</ele>
        <time>2016-09-09T08:25:14Z</time>
      </trkpt>
      <trkpt lat="45.48422" lon="5.96777">
        <ele>466.32</ele>
        <time>2016-09-09T08:25:20Z</time>
      </trkpt>
      <trkpt lat="45.48415" lon="5.96746">
        <ele>466.01</ele>
        <time>2016-09-09T08:25:25Z</time>
      </trkpt>
      <trkpt lat="45.4841" lon="5.9672">
        <ele>466.54</ele>
        <time>2016-09-09T08:25:30Z</time>
      </trkpt>
      <trkpt lat="45.48417" lon="5.96691">
        <ele>466.42</ele>
        <time>2016-09-09T08:25:35Z</time>
      </trkpt>
      <trkpt lat="45.48435" lon="5.96675">
        <ele>464.96</ele>
        <time>2016-09-09T08:25:39Z</time>
      </trkpt>
      <trkpt lat="45.48453" lon="5.96669">
        <ele>463.43</ele>
        <time>2016-09-09T08:25:42Z</time>
      </trkpt>
      <trkpt lat="45.48474" lon="5.96662">
        <ele>461.52</ele>
        <time>2016-09-09T08:25:45Z</time>
      </trkpt>
      <trkpt lat="45.48493" lon="5.9665">
        <ele>459.48</ele>
        <time>2016-09-09T08:25:49Z</time>
      </trkpt>
      <trkpt lat="45.48511" lon="5.9663">
        <ele>456.44</ele>
        <time>2016-09-09T08:25:53Z</time>
      </trkpt>
      <trkpt lat="45.48531" lon="5.96627">
        <ele>453.27</ele>
        <time>2016-09-09T08:25:56Z</time>
      </trkpt>
      <trkpt lat="45.48549" lon="5.96616">
        <ele>450.52</ele>
        <time>2016-09-09T08:26:00Z</time>
      </trkpt>
      <trkpt lat="45.48567" lon="5.96603">
        <ele>447.12</ele>
        <time>2016-09-09T08:26:04Z</time>
      </trkpt>
      <trkpt lat="45.48575" lon="5.96574">
        <ele>444.5</ele>
        <time>2016-09-09T08:26:09Z</time>
      </trkpt>
      <trkpt lat="45.4858" lon="5.96546">
        <ele>443.44</ele>
        <time>2016-09-09T08:26:13Z</time>
      </trkpt>
      <trkpt lat="45.48592" lon="5.96524">
        <ele>442.78</ele>
        <time>2016-09-09T08:26:17Z</time>
      </trkpt>
      <trkpt lat="45.4861" lon="5.96512">
        <ele>442.2</ele>
        <time>2016-09-09T08:26:21Z</time>
      </trkpt>
      <trkpt lat="45.48628" lon="5.96502">
        <ele>442.12</ele>
        <time>2016-09-09T08:26:25Z</time>
      </trkpt>
      <trkpt lat="45.48649" lon="5.96485">
        <ele>442.15</ele>
        <time>2016-09-09T08:26:30Z</time>
      </trkpt>
      <trkpt lat="45.48668" lon="5.96474">
        <ele>442.08</ele>
        <time>2016-09-09T08:26:34Z</time>
      </trkpt>
      <trkpt lat="45.48687" lon="5.96461">
        <ele>442.23</ele>
        <time>2016-09-09T08:26:38Z</time>
      </trkpt>
      <trkpt lat="45.48702" lon="5.96439">
        <ele>442.24</ele>
        <time>2016-09-09T08:26:42Z</time>
      </trkpt>
      <trkpt lat="45.48717" lon="5.96417">
        <ele>441.85</ele>
        <time>2016-09-09T08:26:46Z</time>
      </trkpt>
      <trkpt lat="45.48728" lon="5.96394">
        <ele>441.65</ele>
        <time>2016-09-09T08:26:50Z</time>
      </trkpt>
      <trkpt lat="45.48749" lon="5.96385">
        <ele>441.86</ele>
        <time>2016-09-09T08:26:55Z</time>
      </trkpt>
      <trkpt lat="45.48767" lon="5.96385">
        <ele>441.65</ele>
        <time>2016-09-09T08:27:08Z</time>
      </trkpt>
      <trkpt lat="45.48782" lon="5.96366">
        <ele>441.92</ele>
        <time>2016-09-09T08:27:30Z</time>
      </trkpt>
      <trkpt lat="45.488" lon="5.96354">
        <ele>442.79</ele>
        <time>2016-09-09T08:27:36Z</time>
      </trkpt>
      <trkpt lat="45.48817" lon="5.9634">
        <ele>444.58</ele>
        <time>2016-09-09T08:27:43Z</time>
      </trkpt>
      <trkpt lat="45.48835" lon="5.96331">
        <ele>446.72</ele>
        <time>2016-09-09T08:27:50Z</time>
      </trkpt>
      <trkpt lat="45.48854" lon="5.96319">
        <ele>448.52</ele>
        <time>2016-09-09T08:27:57Z</time>
      </trkpt>
      <trkpt lat="45.48869" lon="5.96303">
        <ele>450.3</ele>
        <time>2016-09-09T08:28:04Z</time>
      </trkpt>
      <trkpt lat="45.48886" lon="5.96293">
        <ele>452.47</ele>
        <time>2016-09-09T08:28:12Z</time>
      </trkpt>
      <trkpt lat="45.48905" lon="5.96284">
        <ele>453.14</ele>
        <time>2016-09-09T08:28:19Z</time>
      </trkpt>
      <trkpt lat="45.48922" lon="5.9627">
        <ele>453.09</ele>
        <time>2016-09-09T08:28:24Z</time>
      </trkpt>
      <trkpt lat="45.48936" lon="5.96254">
        <ele>452.73</ele>
        <time>2016-09-09T08:28:29Z</time>
      </trkpt>
      <trkpt lat="45.48956" lon="5.96245">
        <ele>452.34</ele>
        <time>2016-09-09T08:28:34Z</time>
      </trkpt>
      <trkpt lat="45.48972" lon="5.96233">
        <ele>453.32</ele>
        <time>2016-09-09T08:28:39Z</time>
      </trkpt>
      <trkpt lat="45.48981" lon="5.96207">
        <ele>454.56</ele>
        <time>2016-09-09T08:28:45Z</time>
      </trkpt>
      <trkpt lat="45.48995" lon="5.96186">
        <ele>453.93</ele>
        <time>2016-09-09T08:28:50Z</time>
      </trkpt>
      <trkpt lat="45.49009" lon="5.96168">
        <ele>452.92</ele>
        <time>2016-09-09T08:28:54Z</time>
      </trkpt>
      <trkpt lat="45.49024" lon="5.96151">
        <ele>452.63</ele>
        <time>2016-09-09T08:28:58Z</time>
      </trkpt>
      <trkpt lat="45.49039" lon="5.96132">
        <ele>452.16</ele>
        <time>2016-09-09T08:29:02Z</time>
      </trkpt>
      <trkpt lat="45.49045" lon="5.96105">
        <ele>450.78</ele>
        <time>2016-09-09T08:29:05Z</time>
      </trkpt>
      <trkpt lat="45.49059" lon="5.96087">
        <ele>449.79</ele>
        <time>2016-09-09T08:29:08Z</time>
      </trkpt>
      <trkpt lat="45.49079" lon="5.96085">
        <ele>450.38</ele>
        <time>2016-09-09T08:29:12Z</time>
      </trkpt>
      <trkpt lat="45.49097" lon="5.96077">
        <ele>450.64</ele>
        <time>2016-09-09T08:29:16Z</time>
      </trkpt>
      <trkpt lat="45.49115" lon="5.96064">
        <ele>451.83</ele>
        <time>2016-09-09T08:29:21Z</time>
      </trkpt>
      <trkpt lat="45.49133" lon="5.96056">
        <ele>453.93</ele>
        <time>2016-09-09T08:29:28Z</time>
      </trkpt>
      <trkpt lat="45.49148" lon="5.96037">
        <ele>455.33</ele>
        <time>2016-09-09T08:30:59Z</time>
      </trkpt>
      <trkpt lat="45.49143" lon="5.96012">
        <ele>456.35</ele>
        <time>2016-09-09T08:31:06Z</time>
      </trkpt>
      <trkpt lat="45.4914" lon="5.95985">
        <ele>458.13</ele>
        <time>2016-09-09T08:31:13Z</time>
      </trkpt>
      <trkpt lat="45.4914" lon="5.95956">
        <ele>460.27</ele>
        <time>2016-09-09T08:31:21Z</time>
      </trkpt>
      <trkpt lat="45.49151" lon="5.95935">
        <ele>460.94</ele>
        <time>2016-09-09T08:31:27Z</time>
      </trkpt>
      <trkpt lat="45.49161" lon="5.95912">
        <ele>461.61</ele>
        <time>2016-09-09T08:31:34Z</time>
      </trkpt>
      <trkpt lat="45.49147" lon="5.95935">
        <ele>461.18</ele>
        <time>2016-09-09T08:31:42Z</time>
      </trkpt>
      <trkpt lat="45.49139" lon="5.95962">
        <ele>461</ele>
        <time>2016-09-09T08:31:47Z</time>
      </trkpt>
      <trkpt lat="45.49143" lon="5.95995">
        <ele>459.53</ele>
        <time>2016-09-09T08:31:51Z</time>
      </trkpt>
      <trkpt lat="45.49147" lon="5.96023">
        <ele>457.6</ele>
        <time>2016-09-09T08:31:54Z</time>
      </trkpt>
      <trkpt lat="45.49148" lon="5.96055">
        <ele>454.97</ele>
        <time>2016-09-09T08:31:59Z</time>
      </trkpt>
      <trkpt lat="45.49145" lon="5.96083">
        <ele>453.31</ele>
        <time>2016-09-09T08:32:02Z</time>
      </trkpt>
      <trkpt lat="45.49141" lon="5.96118">
        <ele>450.98</ele>
        <time>2016-09-09T08:32:05Z</time>
      </trkpt>
      <trkpt lat="45.49143" lon="5.96145">
        <ele>448.32</ele>
        <time>2016-09-09T08:32:08Z</time>
      </trkpt>
      <trkpt lat="45.49163" lon="5.96158">
        <ele>446.31</ele>
        <time>2016-09-09T08:32:11Z</time>
      </trkpt>
      <trkpt lat="45.49184" lon="5.96164">
        <ele>443.68</ele>
        <time>2016-09-09T08:32:14Z</time>
      </trkpt>
      <trkpt lat="45.49203" lon="5.96161">
        <ele>440.6</ele>
        <time>2016-09-09T08:32:19Z</time>
      </trkpt>
      <trkpt lat="45.49214" lon="5.96138">
        <ele>438.88</ele>
        <time>2016-09-09T08:32:28Z</time>
      </trkpt>
      <trkpt lat="45.49225" lon="5.96111">
        <ele>437.07</ele>
        <time>2016-09-09T08:32:32Z</time>
      </trkpt>
      <trkpt lat="45.49241" lon="5.96094">
        <ele>435.73</ele>
        <time>2016-09-09T08:32:35Z</time>
      </trkpt>
      <trkpt lat="45.49261" lon="5.96092">
        <ele>434.89</ele>
        <time>2016-09-09T08:32:39Z</time>
      </trkpt>
      <trkpt lat="45.4928" lon="5.96094">
        <ele>433.79</ele>
        <time>2016-09-09T08:32:42Z</time>
      </trkpt>
      <trkpt lat="45.49305" lon="5.96098">
        <ele>431.66</ele>
        <time>2016-09-09T08:32:45Z</time>
      </trkpt>
      <trkpt lat="45.49323" lon="5.96098">
        <ele>429.9</ele>
        <time>2016-09-09T08:32:47Z</time>
      </trkpt>
      <trkpt lat="45.49343" lon="5.96099">
        <ele>428.06</ele>
        <time>2016-09-09T08:32:49Z</time>
      </trkpt>
      <trkpt lat="45.49363" lon="5.96092">
        <ele>426.61</ele>
        <time>2016-09-09T08:32:51Z</time>
      </trkpt>
      <trkpt lat="45.49379" lon="5.96079">
        <ele>425.58</ele>
        <time>2016-09-09T08:32:53Z</time>
      </trkpt>
      <trkpt lat="45.49393" lon="5.96061">
        <ele>424.42</ele>
        <time>2016-09-09T08:32:57Z</time>
      </trkpt>
      <trkpt lat="45.49415" lon="5.96062">
        <ele>423.75</ele>
        <time>2016-09-09T08:33:36Z</time>
      </trkpt>
      <trkpt lat="45.49434" lon="5.9607">
        <ele>423.5</ele>
        <time>2016-09-09T08:33:42Z</time>
      </trkpt>
      <trkpt lat="45.49451" lon="5.96081">
        <ele>423.34</ele>
        <time>2016-09-09T08:33:47Z</time>
      </trkpt>
      <trkpt lat="45.4946" lon="5.96106">
        <ele>422.83</ele>
        <time>2016-09-09T08:33:52Z</time>
      </trkpt>
      <trkpt lat="45.49469" lon="5.9613">
        <ele>422.2</ele>
        <time>2016-09-09T08:33:56Z</time>
      </trkpt>
      <trkpt lat="45.49478" lon="5.96156">
        <ele>421.51</ele>
        <time>2016-09-09T08:34:00Z</time>
      </trkpt>
      <trkpt lat="45.49489" lon="5.96182">
        <ele>421.17</ele>
        <time>2016-09-09T08:34:04Z</time>
      </trkpt>
      <trkpt lat="45.495" lon="5.96204">
        <ele>420.71</ele>
        <time>2016-09-09T08:34:10Z</time>
      </trkpt>
      <trkpt lat="45.49509" lon="5.96231">
        <ele>420.52</ele>
        <time>2016-09-09T08:34:18Z</time>
      </trkpt>
      <trkpt lat="45.49518" lon="5.96257">
        <ele>420.32</ele>
        <time>2016-09-09T08:34:24Z</time>
      </trkpt>
      <trkpt lat="45.49532" lon="5.96274">
        <ele>419.84</ele>
        <time>2016-09-09T08:34:28Z</time>
      </trkpt>
      <trkpt lat="45.49546" lon="5.96293">
        <ele>419.41</ele>
        <time>2016-09-09T08:34:32Z</time>
      </trkpt>
      <trkpt lat="45.49559" lon="5.96314">
        <ele>419.13</ele>
        <time>2016-09-09T08:34:36Z</time>
      </trkpt>
      <trkpt lat="45.4955" lon="5.96337">
        <ele>418.52</ele>
        <time>2016-09-09T08:34:40Z</time>
      </trkpt>
      <trkpt lat="45.49536" lon="5.96362">
        <ele>418.22</ele>
        <time>2016-09-09T08:34:45Z</time>
      </trkpt>
      <trkpt lat="45.49539" lon="5.96388">
        <ele>418.12</ele>
        <time>2016-09-09T08:34:50Z</time>
      </trkpt>
      <trkpt lat="45.49554" lon="5.96408">
        <ele>418.45</ele>
        <time>2016-09-09T08:34:56Z</time>
      </trkpt>
      <trkpt lat="45.49566" lon="5.96429">
        <ele>417.92</ele>
        <time>2016-09-09T08:35:01Z</time>
      </trkpt>
      <trkpt lat="45.49577" lon="5.96448">
        <ele>417.29</ele>
        <time>2016-09-09T08:35:06Z</time>
      </trkpt>
      <trkpt lat="45.49597" lon="5.96463">
        <ele>416.33</ele>
        <time>2016-09-09T08:35:12Z</time>
      </trkpt>
      <trkpt lat="45.49596" lon="5.96496">
        <ele>414.48</ele>
        <time>2016-09-09T08:35:16Z</time>
      </trkpt>
      <trkpt lat="45.49587" lon="5.96529">
        <ele>411.8</ele>
        <time>2016-09-09T08:35:19Z</time>
      </trkpt>
      <trkpt lat="45.49586" lon="5.96555">
        <ele>409.93</ele>
        <time>2016-09-09T08:35:21Z</time>
      </trkpt>
      <trkpt lat="45.49583" lon="5.96589">
        <ele>407.55</ele>
        <time>2016-09-09T08:35:24Z</time>
      </trkpt>
      <trkpt lat="45.49578" lon="5.96618">
        <ele>406.82</ele>
        <time>2016-09-09T08:35:27Z</time>
      </trkpt>
      <trkpt lat="45.49592" lon="5.96637">
        <ele>405</ele>
        <time>2016-09-09T08:35:32Z</time>
      </trkpt>
      <trkpt lat="45.49612" lon="5.9664">
        <ele>403.14</ele>
        <time>2016-09-09T08:35:35Z</time>
      </trkpt>
      <trkpt lat="45.49636" lon="5.96644">
        <ele>401.48</ele>
        <time>2016-09-09T08:35:38Z</time>
      </trkpt>
      <trkpt lat="45.49659" lon="5.96652">
        <ele>399.65</ele>
        <time>2016-09-09T08:35:41Z</time>
      </trkpt>
      <trkpt lat="45.49678" lon="5.96655">
        <ele>398.06</ele>
        <time>2016-09-09T08:35:44Z</time>
      </trkpt>
      <trkpt lat="45.49695" lon="5.96645">
        <ele>395.36</ele>
        <time>2016-09-09T08:35:50Z</time>
      </trkpt>
      <trkpt lat="45.49693" lon="5.96618">
        <ele>395.75</ele>
        <time>2016-09-09T08:35:56Z</time>
      </trkpt>
      <trkpt lat="45.49693" lon="5.96591">
        <ele>397.51</ele>
        <time>2016-09-09T08:36:26Z</time>
      </trkpt>
      <trkpt lat="45.49692" lon="5.96562">
        <ele>400.45</ele>
        <time>2016-09-09T08:36:34Z</time>
      </trkpt>
      <trkpt lat="45.49692" lon="5.96533">
        <ele>402.49</ele>
        <time>2016-09-09T08:36:42Z</time>
      </trkpt>
      <trkpt lat="45.49706" lon="5.96513">
        <ele>403.36</ele>
        <time>2016-09-09T08:36:49Z</time>
      </trkpt>
      <trkpt lat="45.49721" lon="5.96493">
        <ele>403.48</ele>
        <time>2016-09-09T08:36:55Z</time>
      </trkpt>
      <trkpt lat="45.49727" lon="5.96468">
        <ele>403.62</ele>
        <time>2016-09-09T08:37:00Z</time>
      </trkpt>
      <trkpt lat="45.49733" lon="5.9644">
        <ele>404.37</ele>
        <time>2016-09-09T08:37:06Z</time>
      </trkpt>
      <trkpt lat="45.49735" lon="5.96414">
        <ele>404.87</ele>
        <time>2016-09-09T08:37:11Z</time>
      </trkpt>
      <trkpt lat="45.49738" lon="5.96384">
        <ele>405.74</ele>
        <time>2016-09-09T08:37:17Z</time>
      </trkpt>
      <trkpt lat="45.49752" lon="5.96363">
        <ele>406.78</ele>
        <time>2016-09-09T08:37:23Z</time>
      </trkpt>
      <trkpt lat="45.49754" lon="5.96333">
        <ele>407.83</ele>
        <time>2016-09-09T08:37:29Z</time>
      </trkpt>
      <trkpt lat="45.49759" lon="5.96305">
        <ele>409.16</ele>
        <time>2016-09-09T08:37:35Z</time>
      </trkpt>
      <trkpt lat="45.49761" lon="5.96279">
        <ele>410.85</ele>
        <time>2016-09-09T08:37:41Z</time>
      </trkpt>
      <trkpt lat="45.49754" lon="5.96252">
        <ele>411.54</ele>
        <time>2016-09-09T08:37:47Z</time>
      </trkpt>
      <trkpt lat="45.49753" lon="5.96223">
        <ele>412.57</ele>
        <time>2016-09-09T08:37:53Z</time>
      </trkpt>
      <trkpt lat="45.49751" lon="5.96197">
        <ele>414.81</ele>
        <time>2016-09-09T08:38:01Z</time>
      </trkpt>
      <trkpt lat="45.49749" lon="5.9617">
        <ele>417.21</ele>
        <time>2016-09-09T08:38:09Z</time>
      </trkpt>
      <trkpt lat="45.49755" lon="5.96144">
        <ele>420.63</ele>
        <time>2016-09-09T08:38:19Z</time>
      </trkpt>
      <trkpt lat="45.49769" lon="5.96126">
        <ele>423.99</ele>
        <time>2016-09-09T08:38:29Z</time>
      </trkpt>
      <trkpt lat="45.49777" lon="5.96102">
        <ele>425.96</ele>
        <time>2016-09-09T08:38:38Z</time>
      </trkpt>
      <trkpt lat="45.49782" lon="5.96076">
        <ele>428.02</ele>
        <time>2016-09-09T08:38:47Z</time>
      </trkpt>
      <trkpt lat="45.49782" lon="5.9605">
        <ele>430.26</ele>
        <time>2016-09-09T08:38:56Z</time>
      </trkpt>
      <trkpt lat="45.49777" lon="5.96025">
        <ele>431.49</ele>
        <time>2016-09-09T08:39:04Z</time>
      </trkpt>
      <trkpt lat="45.49776" lon="5.95998">
        <ele>434.06</ele>
        <time>2016-09-09T08:39:13Z</time>
      </trkpt>
      <trkpt lat="45.49775" lon="5.95972">
        <ele>437.21</ele>
        <time>2016-09-09T08:39:23Z</time>
      </trkpt>
      <trkpt lat="45.49774" lon="5.95945">
        <ele>440.01</ele>
        <time>2016-09-09T08:39:33Z</time>
      </trkpt>
      <trkpt lat="45.49779" lon="5.9592">
        <ele>441.78</ele>
        <time>2016-09-09T08:39:41Z</time>
      </trkpt>
      <trkpt lat="45.49789" lon="5.95898">
        <ele>442.74</ele>
        <time>2016-09-09T08:39:48Z</time>
      </trkpt>
      <trkpt lat="45.49798" lon="5.95872">
        <ele>442.6</ele>
        <time>2016-09-09T08:39:54Z</time>
      </trkpt>
      <trkpt lat="45.49807" lon="5.95844">
        <ele>442.74</ele>
        <time>2016-09-09T08:40:00Z</time>
      </trkpt>
      <trkpt lat="45.49809" lon="5.95816">
        <ele>444.1</ele>
        <time>2016-09-09T08:40:07Z</time>
      </trkpt>
      <trkpt lat="45.498" lon="5.95793">
        <ele>446.93</ele>
        <time>2016-09-09T08:40:16Z</time>
      </trkpt>
      <trkpt lat="45.4979" lon="5.95769">
        <ele>449.43</ele>
        <time>2016-09-09T08:40:25Z</time>
      </trkpt>
      <trkpt lat="45.49777" lon="5.95746">
        <ele>451.13</ele>
        <time>2016-09-09T08:40:34Z</time>
      </trkpt>
      <trkpt lat="45.49769" lon="5.95721">
        <ele>453.61</ele>
        <time>2016-09-09T08:40:43Z</time>
      </trkpt>
      <trkpt lat="45.49763" lon="5.95695">
        <ele>455.46</ele>
        <time>2016-09-09T08:40:52Z</time>
      </trkpt>
      <trkpt lat="45.49758" lon="5.95669">
        <ele>456.98</ele>
        <time>2016-09-09T08:41:00Z</time>
      </trkpt>
      <trkpt lat="45.4975" lon="5.95644">
        <ele>459.81</ele>
        <time>2016-09-09T08:41:09Z</time>
      </trkpt>
      <trkpt lat="45.4974" lon="5.95622">
        <ele>462.3</ele>
        <time>2016-09-09T08:41:17Z</time>
      </trkpt>
      <trkpt lat="45.49729" lon="5.956">
        <ele>464.34</ele>
        <time>2016-09-09T08:41:25Z</time>
      </trkpt>
      <trkpt lat="45.49717" lon="5.95576">
        <ele>465.84</ele>
        <time>2016-09-09T08:41:33Z</time>
      </trkpt>
      <trkpt lat="45.49705" lon="5.95556">
        <ele>467.3</ele>
        <time>2016-09-09T08:41:40Z</time>
      </trkpt>
      <trkpt lat="45.49694" lon="5.95535">
        <ele>468.94</ele>
        <time>2016-09-09T08:41:47Z</time>
      </trkpt>
      <trkpt lat="45.49683" lon="5.9551">
        <ele>469.16</ele>
        <time>2016-09-09T08:41:54Z</time>
      </trkpt>
      <trkpt lat="45.49673" lon="5.95488">
        <ele>469.4</ele>
        <time>2016-09-09T08:42:00Z</time>
      </trkpt>
      <trkpt lat="45.49663" lon="5.95464">
        <ele>471.02</ele>
        <time>2016-09-09T08:42:07Z</time>
      </trkpt>
      <trkpt lat="45.49654" lon="5.95442">
        <ele>472.63</ele>
        <time>2016-09-09T08:42:14Z</time>
      </trkpt>
      <trkpt lat="45.49644" lon="5.95417">
        <ele>474.72</ele>
        <time>2016-09-09T08:42:22Z</time>
      </trkpt>
      <trkpt lat="45.49636" lon="5.95392">
        <ele>477.18</ele>
        <time>2016-09-09T08:42:30Z</time>
      </trkpt>
      <trkpt lat="45.49632" lon="5.95366">
        <ele>479.23</ele>
        <time>2016-09-09T08:42:38Z</time>
      </trkpt>
      <trkpt lat="45.49629" lon="5.95339">
        <ele>480.84</ele>
        <time>2016-09-09T08:42:46Z</time>
      </trkpt>
      <trkpt lat="45.49624" lon="5.95313">
        <ele>481.15</ele>
        <time>2016-09-09T08:42:52Z</time>
      </trkpt>
      <trkpt lat="45.49621" lon="5.95284">
        <ele>481.63</ele>
        <time>2016-09-09T08:42:58Z</time>
      </trkpt>
      <trkpt lat="45.49623" lon="5.95256">
        <ele>482.45</ele>
        <time>2016-09-09T08:43:04Z</time>
      </trkpt>
      <trkpt lat="45.49622" lon="5.95227">
        <ele>484.09</ele>
        <time>2016-09-09T08:43:11Z</time>
      </trkpt>
      <trkpt lat="45.49618" lon="5.95201">
        <ele>485.64</ele>
        <time>2016-09-09T08:43:18Z</time>
      </trkpt>
      <trkpt lat="45.49603" lon="5.95187">
        <ele>487.6</ele>
        <time>2016-09-09T08:43:25Z</time>
      </trkpt>
      <trkpt lat="45.49584" lon="5.95181">
        <ele>489.78</ele>
        <time>2016-09-09T08:43:33Z</time>
      </trkpt>
      <trkpt lat="45.49575" lon="5.95157">
        <ele>492.37</ele>
        <time>2016-09-09T08:43:42Z</time>
      </trkpt>
      <trkpt lat="45.49584" lon="5.95134">
        <ele>494.73</ele>
        <time>2016-09-09T08:43:51Z</time>
      </trkpt>
      <trkpt lat="45.49602" lon="5.95126">
        <ele>495.4</ele>
        <time>2016-09-09T08:43:57Z</time>
      </trkpt>
      <trkpt lat="45.49614" lon="5.95103">
        <ele>496.24</ele>
        <time>2016-09-09T08:44:04Z</time>
      </trkpt>
      <trkpt lat="45.49631" lon="5.95092">
        <ele>498.03</ele>
        <time>2016-09-09T08:44:12Z</time>
      </trkpt>
      <trkpt lat="45.4965" lon="5.95084">
        <ele>499.24</ele>
        <time>2016-09-09T08:44:19Z</time>
      </trkpt>
      <trkpt lat="45.4966" lon="5.95061">
        <ele>500.45</ele>
        <time>2016-09-09T08:44:26Z</time>
      </trkpt>
      <trkpt lat="45.49663" lon="5.95035">
        <ele>501.59</ele>
        <time>2016-09-09T08:44:32Z</time>
      </trkpt>
      <trkpt lat="45.49667" lon="5.95008">
        <ele>502.13</ele>
        <time>2016-09-09T08:44:38Z</time>
      </trkpt>
      <trkpt lat="45.49669" lon="5.94978">
        <ele>502.35</ele>
        <time>2016-09-09T08:44:45Z</time>
      </trkpt>
      <trkpt lat="45.49656" lon="5.94959">
        <ele>503.03</ele>
        <time>2016-09-09T08:44:51Z</time>
      </trkpt>
      <trkpt lat="45.49642" lon="5.94943">
        <ele>504.6</ele>
        <time>2016-09-09T08:45:01Z</time>
      </trkpt>
      <trkpt lat="45.49631" lon="5.94922">
        <ele>507.37</ele>
        <time>2016-09-09T08:45:11Z</time>
      </trkpt>
      <trkpt lat="45.49631" lon="5.94896">
        <ele>510.75</ele>
        <time>2016-09-09T08:45:41Z</time>
      </trkpt>
      <trkpt lat="45.4965" lon="5.94889">
        <ele>512.13</ele>
        <time>2016-09-09T08:45:50Z</time>
      </trkpt>
      <trkpt lat="45.49632" lon="5.9489">
        <ele>512.18</ele>
        <time>2016-09-09T08:46:05Z</time>
      </trkpt>
      <trkpt lat="45.49614" lon="5.94886">
        <ele>513.14</ele>
        <time>2016-09-09T08:46:12Z</time>
      </trkpt>
      <trkpt lat="45.49595" lon="5.94883">
        <ele>516.89</ele>
        <time>2016-09-09T08:46:21Z</time>
      </trkpt>
      <trkpt lat="45.49615" lon="5.9489">
        <ele>516.11</ele>
        <time>2016-09-09T08:46:48Z</time>
      </trkpt>
      <trkpt lat="45.49632" lon="5.94907">
        <ele>511.94</ele>
        <time>2016-09-09T08:46:53Z</time>
      </trkpt>
      <trkpt lat="45.49641" lon="5.94931">
        <ele>508.94</ele>
        <time>2016-09-09T08:46:56Z</time>
      </trkpt>
      <trkpt lat="45.49646" lon="5.94957">
        <ele>504.96</ele>
        <time>2016-09-09T08:47:01Z</time>
      </trkpt>
      <trkpt lat="45.49628" lon="5.94958">
        <ele>506.44</ele>
        <time>2016-09-09T08:47:08Z</time>
      </trkpt>
      <trkpt lat="45.49608" lon="5.94953">
        <ele>508.74</ele>
        <time>2016-09-09T08:47:16Z</time>
      </trkpt>
      <trkpt lat="45.49589" lon="5.94947">
        <ele>511.16</ele>
        <time>2016-09-09T08:47:25Z</time>
      </trkpt>
      <trkpt lat="45.49572" lon="5.9493">
        <ele>513.3</ele>
        <time>2016-09-09T08:47:33Z</time>
      </trkpt>
      <trkpt lat="45.49562" lon="5.94906">
        <ele>515.38</ele>
        <time>2016-09-09T08:47:41Z</time>
      </trkpt>
      <trkpt lat="45.49549" lon="5.94885">
        <ele>517.8</ele>
        <time>2016-09-09T08:47:49Z</time>
      </trkpt>
      <trkpt lat="45.49536" lon="5.94865">
        <ele>520.03</ele>
        <time>2016-09-09T08:47:57Z</time>
      </trkpt>
      <trkpt lat="45.49524" lon="5.94842">
        <ele>522.73</ele>
        <time>2016-09-09T08:48:06Z</time>
      </trkpt>
      <trkpt lat="45.49513" lon="5.9482">
        <ele>525.17</ele>
        <time>2016-09-09T08:48:15Z</time>
      </trkpt>
      <trkpt lat="45.49499" lon="5.94801">
        <ele>527.44</ele>
        <time>2016-09-09T08:48:24Z</time>
      </trkpt>
      <trkpt lat="45.49499" lon="5.94828">
        <ele>528.8</ele>
        <time>2016-09-09T08:48:34Z</time>
      </trkpt>
      <trkpt lat="45.49483" lon="5.94813">
        <ele>531.47</ele>
        <time>2016-09-09T08:48:46Z</time>
      </trkpt>
      <trkpt lat="45.49475" lon="5.94791">
        <ele>533.53</ele>
        <time>2016-09-09T08:48:54Z</time>
      </trkpt>
      <trkpt lat="45.49462" lon="5.94768">
        <ele>535.7</ele>
        <time>2016-09-09T08:49:02Z</time>
      </trkpt>
      <trkpt lat="45.49446" lon="5.94754">
        <ele>537.85</ele>
        <time>2016-09-09T08:49:10Z</time>
      </trkpt>
      <trkpt lat="45.49432" lon="5.94733">
        <ele>539.82</ele>
        <time>2016-09-09T08:49:18Z</time>
      </trkpt>
      <trkpt lat="45.49426" lon="5.94706">
        <ele>541.07</ele>
        <time>2016-09-09T08:49:26Z</time>
      </trkpt>
      <trkpt lat="45.49426" lon="5.94678">
        <ele>543.49</ele>
        <time>2016-09-09T08:49:35Z</time>
      </trkpt>
      <trkpt lat="45.49426" lon="5.9465">
        <ele>545.95</ele>
        <time>2016-09-09T08:49:44Z</time>
      </trkpt>
      <trkpt lat="45.49426" lon="5.94623">
        <ele>548.77</ele>
        <time>2016-09-09T08:49:54Z</time>
      </trkpt>
      <trkpt lat="45.49418" lon="5.94597">
        <ele>551.48</ele>
        <time>2016-09-09T08:50:04Z</time>
      </trkpt>
      <trkpt lat="45.49411" lon="5.94573">
        <ele>553.99</ele>
        <time>2016-09-09T08:50:12Z</time>
      </trkpt>
      <trkpt lat="45.49403" lon="5.9455">
        <ele>556.47</ele>
        <time>2016-09-09T08:50:20Z</time>
      </trkpt>
      <trkpt lat="45.49393" lon="5.94527">
        <ele>559.05</ele>
        <time>2016-09-09T08:50:29Z</time>
      </trkpt>
      <trkpt lat="45.4938" lon="5.94507">
        <ele>561.66</ele>
        <time>2016-09-09T08:50:38Z</time>
      </trkpt>
      <trkpt lat="45.49371" lon="5.94483">
        <ele>563.91</ele>
        <time>2016-09-09T08:50:47Z</time>
      </trkpt>
      <trkpt lat="45.49362" lon="5.94459">
        <ele>566.57</ele>
        <time>2016-09-09T08:50:57Z</time>
      </trkpt>
      <trkpt lat="45.49352" lon="5.94436">
        <ele>568.76</ele>
        <time>2016-09-09T08:51:06Z</time>
      </trkpt>
      <trkpt lat="45.49343" lon="5.94412">
        <ele>570.99</ele>
        <time>2016-09-09T08:51:15Z</time>
      </trkpt>
      <trkpt lat="45.49347" lon="5.94387">
        <ele>573.06</ele>
        <time>2016-09-09T08:51:24Z</time>
      </trkpt>
      <trkpt lat="45.49365" lon="5.94401">
        <ele>575.17</ele>
        <time>2016-09-09T08:51:34Z</time>
      </trkpt>
      <trkpt lat="45.4938" lon="5.94415">
        <ele>576.56</ele>
        <time>2016-09-09T08:51:42Z</time>
      </trkpt>
      <trkpt lat="45.49399" lon="5.94426">
        <ele>578.34</ele>
        <time>2016-09-09T08:51:51Z</time>
      </trkpt>
      <trkpt lat="45.49417" lon="5.94432">
        <ele>579.58</ele>
        <time>2016-09-09T08:51:59Z</time>
      </trkpt>
      <trkpt lat="45.49434" lon="5.94444">
        <ele>579.61</ele>
        <time>2016-09-09T08:52:06Z</time>
      </trkpt>
      <trkpt lat="45.49448" lon="5.94462">
        <ele>580.92</ele>
        <time>2016-09-09T08:52:15Z</time>
      </trkpt>
      <trkpt lat="45.49463" lon="5.94482">
        <ele>583.39</ele>
        <time>2016-09-09T08:52:24Z</time>
      </trkpt>
      <trkpt lat="45.4947" lon="5.94507">
        <ele>584.28</ele>
        <time>2016-09-09T08:52:31Z</time>
      </trkpt>
      <trkpt lat="45.49478" lon="5.94532">
        <ele>585.29</ele>
        <time>2016-09-09T08:52:38Z</time>
      </trkpt>
      <trkpt lat="45.49498" lon="5.9454">
        <ele>585.86</ele>
        <time>2016-09-09T08:52:45Z</time>
      </trkpt>
      <trkpt lat="45.49518" lon="5.94539">
        <ele>587.57</ele>
        <time>2016-09-09T08:52:53Z</time>
      </trkpt>
      <trkpt lat="45.49537" lon="5.94539">
        <ele>589.43</ele>
        <time>2016-09-09T08:53:01Z</time>
      </trkpt>
      <trkpt lat="45.49556" lon="5.94535">
        <ele>591.17</ele>
        <time>2016-09-09T08:53:09Z</time>
      </trkpt>
      <trkpt lat="45.49574" lon="5.94529">
        <ele>592.64</ele>
        <time>2016-09-09T08:53:17Z</time>
      </trkpt>
      <trkpt lat="45.49593" lon="5.94523">
        <ele>594.35</ele>
        <time>2016-09-09T08:53:25Z</time>
      </trkpt>
      <trkpt lat="45.49613" lon="5.94517">
        <ele>595.58</ele>
        <time>2016-09-09T08:53:32Z</time>
      </trkpt>
      <trkpt lat="45.49631" lon="5.94514">
        <ele>597.85</ele>
        <time>2016-09-09T08:53:42Z</time>
      </trkpt>
      <trkpt lat="45.49651" lon="5.9452">
        <ele>599.82</ele>
        <time>2016-09-09T08:53:50Z</time>
      </trkpt>
      <trkpt lat="45.49672" lon="5.94517">
        <ele>602.34</ele>
        <time>2016-09-09T08:53:59Z</time>
      </trkpt>
      <trkpt lat="45.4969" lon="5.94514">
        <ele>603.87</ele>
        <time>2016-09-09T08:54:05Z</time>
      </trkpt>
      <trkpt lat="45.49709" lon="5.94512">
        <ele>605.81</ele>
        <time>2016-09-09T08:54:12Z</time>
      </trkpt>
      <trkpt lat="45.49727" lon="5.9451">
        <ele>607.26</ele>
        <time>2016-09-09T08:54:18Z</time>
      </trkpt>
      <trkpt lat="45.49747" lon="5.94509">
        <ele>609.17</ele>
        <time>2016-09-09T08:54:26Z</time>
      </trkpt>
      <trkpt lat="45.49765" lon="5.94509">
        <ele>610.17</ele>
        <time>2016-09-09T08:54:33Z</time>
      </trkpt>
      <trkpt lat="45.49784" lon="5.94508">
        <ele>611.15</ele>
        <time>2016-09-09T08:54:40Z</time>
      </trkpt>
      <trkpt lat="45.49803" lon="5.94506">
        <ele>611.69</ele>
        <time>2016-09-09T08:54:47Z</time>
      </trkpt>
      <trkpt lat="45.49821" lon="5.94505">
        <ele>612.27</ele>
        <time>2016-09-09T08:54:53Z</time>
      </trkpt>
      <trkpt lat="45.4984" lon="5.94503">
        <ele>613.41</ele>
        <time>2016-09-09T08:55:00Z</time>
      </trkpt>
      <trkpt lat="45.49861" lon="5.94501">
        <ele>614.45</ele>
        <time>2016-09-09T08:55:08Z</time>
      </trkpt>
      <trkpt lat="45.49879" lon="5.94495">
        <ele>615.58</ele>
        <time>2016-09-09T08:55:15Z</time>
      </trkpt>
      <trkpt lat="45.49897" lon="5.94489">
        <ele>617.21</ele>
        <time>2016-09-09T08:55:23Z</time>
      </trkpt>
      <trkpt lat="45.49915" lon="5.94483">
        <ele>618.83</ele>
        <time>2016-09-09T08:55:30Z</time>
      </trkpt>
      <trkpt lat="45.49934" lon="5.94473">
        <ele>620.73</ele>
        <time>2016-09-09T08:55:38Z</time>
      </trkpt>
      <trkpt lat="45.49951" lon="5.94459">
        <ele>622.69</ele>
        <time>2016-09-09T08:55:46Z</time>
      </trkpt>
      <trkpt lat="45.49966" lon="5.94441">
        <ele>625.57</ele>
        <time>2016-09-09T08:55:55Z</time>
      </trkpt>
      <trkpt lat="45.4998" lon="5.94422">
        <ele>627.99</ele>
        <time>2016-09-09T08:56:03Z</time>
      </trkpt>
      <trkpt lat="45.49991" lon="5.94399">
        <ele>630.5</ele>
        <time>2016-09-09T08:56:12Z</time>
      </trkpt>
      <trkpt lat="45.49986" lon="5.94373">
        <ele>632.77</ele>
        <time>2016-09-09T08:56:20Z</time>
      </trkpt>
      <trkpt lat="45.4997" lon="5.9436">
        <ele>635.65</ele>
        <time>2016-09-09T08:56:29Z</time>
      </trkpt>
      <trkpt lat="45.4995" lon="5.94361">
        <ele>638.36</ele>
        <time>2016-09-09T08:56:39Z</time>
      </trkpt>
      <trkpt lat="45.49932" lon="5.94359">
        <ele>640.74</ele>
        <time>2016-09-09T08:56:48Z</time>
      </trkpt>
      <trkpt lat="45.49914" lon="5.94361">
        <ele>642.97</ele>
        <time>2016-09-09T08:56:58Z</time>
      </trkpt>
      <trkpt lat="45.49894" lon="5.94359">
        <ele>644.65</ele>
        <time>2016-09-09T08:57:06Z</time>
      </trkpt>
      <trkpt lat="45.49875" lon="5.9436">
        <ele>646.48</ele>
        <time>2016-09-09T08:57:14Z</time>
      </trkpt>
      <trkpt lat="45.49856" lon="5.94361">
        <ele>648.24</ele>
        <time>2016-09-09T08:57:22Z</time>
      </trkpt>
      <trkpt lat="45.49837" lon="5.94359">
        <ele>650.61</ele>
        <time>2016-09-09T08:57:32Z</time>
      </trkpt>
      <trkpt lat="45.49817" lon="5.94359">
        <ele>652.41</ele>
        <time>2016-09-09T08:57:41Z</time>
      </trkpt>
      <trkpt lat="45.49797" lon="5.94356">
        <ele>654.3</ele>
        <time>2016-09-09T08:57:50Z</time>
      </trkpt>
      <trkpt lat="45.49777" lon="5.94352">
        <ele>656.07</ele>
        <time>2016-09-09T08:57:59Z</time>
      </trkpt>
      <trkpt lat="45.49758" lon="5.94347">
        <ele>657.98</ele>
        <time>2016-09-09T08:58:08Z</time>
      </trkpt>
      <trkpt lat="45.4974" lon="5.94333">
        <ele>659.92</ele>
        <time>2016-09-09T08:58:17Z</time>
      </trkpt>
      <trkpt lat="45.49721" lon="5.94322">
        <ele>661.6</ele>
        <time>2016-09-09T08:58:25Z</time>
      </trkpt>
      <trkpt lat="45.49702" lon="5.94314">
        <ele>663.03</ele>
        <time>2016-09-09T08:58:32Z</time>
      </trkpt>
      <trkpt lat="45.49684" lon="5.94307">
        <ele>664.9</ele>
        <time>2016-09-09T08:58:40Z</time>
      </trkpt>
      <trkpt lat="45.49667" lon="5.94298">
        <ele>666.27</ele>
        <time>2016-09-09T08:58:47Z</time>
      </trkpt>
      <trkpt lat="45.49647" lon="5.9429">
        <ele>667.86</ele>
        <time>2016-09-09T08:58:55Z</time>
      </trkpt>
      <trkpt lat="45.49629" lon="5.9428">
        <ele>669.45</ele>
        <time>2016-09-09T08:59:02Z</time>
      </trkpt>
      <trkpt lat="45.49612" lon="5.9427">
        <ele>670.63</ele>
        <time>2016-09-09T08:59:08Z</time>
      </trkpt>
      <trkpt lat="45.49595" lon="5.94256">
        <ele>672.16</ele>
        <time>2016-09-09T08:59:16Z</time>
      </trkpt>
      <trkpt lat="45.49579" lon="5.94242">
        <ele>674.07</ele>
        <time>2016-09-09T08:59:24Z</time>
      </trkpt>
      <trkpt lat="45.49566" lon="5.94224">
        <ele>676.15</ele>
        <time>2016-09-09T08:59:32Z</time>
      </trkpt>
      <trkpt lat="45.4955" lon="5.94208">
        <ele>678.34</ele>
        <time>2016-09-09T08:59:40Z</time>
      </trkpt>
      <trkpt lat="45.49536" lon="5.94188">
        <ele>680.83</ele>
        <time>2016-09-09T08:59:50Z</time>
      </trkpt>
      <trkpt lat="45.4952" lon="5.94173">
        <ele>683.31</ele>
        <time>2016-09-09T09:00:00Z</time>
      </trkpt>
      <trkpt lat="45.49506" lon="5.94154">
        <ele>685.59</ele>
        <time>2016-09-09T09:00:10Z</time>
      </trkpt>
      <trkpt lat="45.4949" lon="5.94142">
        <ele>687.84</ele>
        <time>2016-09-09T09:00:20Z</time>
      </trkpt>
      <trkpt lat="45.49471" lon="5.94136">
        <ele>689.93</ele>
        <time>2016-09-09T09:00:29Z</time>
      </trkpt>
      <trkpt lat="45.49452" lon="5.94131">
        <ele>692.17</ele>
        <time>2016-09-09T09:00:40Z</time>
      </trkpt>
      <trkpt lat="45.49458" lon="5.94104">
        <ele>694.36</ele>
        <time>2016-09-09T09:01:44Z</time>
      </trkpt>
      <trkpt lat="45.49476" lon="5.94101">
        <ele>696.74</ele>
        <time>2016-09-09T09:01:54Z</time>
      </trkpt>
      <trkpt lat="45.49495" lon="5.941">
        <ele>698.95</ele>
        <time>2016-09-09T09:02:05Z</time>
      </trkpt>
      <trkpt lat="45.49514" lon="5.94097">
        <ele>701.25</ele>
        <time>2016-09-09T09:02:15Z</time>
      </trkpt>
      <trkpt lat="45.49532" lon="5.94094">
        <ele>703.3</ele>
        <time>2016-09-09T09:02:23Z</time>
      </trkpt>
      <trkpt lat="45.49549" lon="5.94086">
        <ele>705.26</ele>
        <time>2016-09-09T09:02:31Z</time>
      </trkpt>
      <trkpt lat="45.49564" lon="5.94071">
        <ele>707.16</ele>
        <time>2016-09-09T09:02:40Z</time>
      </trkpt>
      <trkpt lat="45.49571" lon="5.94045">
        <ele>708.63</ele>
        <time>2016-09-09T09:02:48Z</time>
      </trkpt>
      <trkpt lat="45.49577" lon="5.94019">
        <ele>710.06</ele>
        <time>2016-09-09T09:02:55Z</time>
      </trkpt>
      <trkpt lat="45.49588" lon="5.93997">
        <ele>712.2</ele>
        <time>2016-09-09T09:03:04Z</time>
      </trkpt>
      <trkpt lat="45.49602" lon="5.93978">
        <ele>714.66</ele>
        <time>2016-09-09T09:03:13Z</time>
      </trkpt>
      <trkpt lat="45.49617" lon="5.93965">
        <ele>716.54</ele>
        <time>2016-09-09T09:03:22Z</time>
      </trkpt>
      <trkpt lat="45.49629" lon="5.93945">
        <ele>718.81</ele>
        <time>2016-09-09T09:03:32Z</time>
      </trkpt>
      <trkpt lat="45.49611" lon="5.93935">
        <ele>720.6</ele>
        <time>2016-09-09T09:03:43Z</time>
      </trkpt>
      <trkpt lat="45.49592" lon="5.93937">
        <ele>721.59</ele>
        <time>2016-09-09T09:03:51Z</time>
      </trkpt>
      <trkpt lat="45.49574" lon="5.93941">
        <ele>722.93</ele>
        <time>2016-09-09T09:03:58Z</time>
      </trkpt>
      <trkpt lat="45.49556" lon="5.93937">
        <ele>724.35</ele>
        <time>2016-09-09T09:04:05Z</time>
      </trkpt>
      <trkpt lat="45.49536" lon="5.9393">
        <ele>726.62</ele>
        <time>2016-09-09T09:04:15Z</time>
      </trkpt>
      <trkpt lat="45.49518" lon="5.93925">
        <ele>728.1</ele>
        <time>2016-09-09T09:04:22Z</time>
      </trkpt>
      <trkpt lat="45.49499" lon="5.9392">
        <ele>729.95</ele>
        <time>2016-09-09T09:04:30Z</time>
      </trkpt>
      <trkpt lat="45.49482" lon="5.93912">
        <ele>731.46</ele>
        <time>2016-09-09T09:04:37Z</time>
      </trkpt>
      <trkpt lat="45.49462" lon="5.93907">
        <ele>733.23</ele>
        <time>2016-09-09T09:04:45Z</time>
      </trkpt>
      <trkpt lat="45.49443" lon="5.93903">
        <ele>734.81</ele>
        <time>2016-09-09T09:04:53Z</time>
      </trkpt>
      <trkpt lat="45.49423" lon="5.939">
        <ele>736.32</ele>
        <time>2016-09-09T09:05:01Z</time>
      </trkpt>
      <trkpt lat="45.49404" lon="5.939">
        <ele>737.78</ele>
        <time>2016-09-09T09:05:09Z</time>
      </trkpt>
      <trkpt lat="45.49384" lon="5.93898">
        <ele>739.31</ele>
        <time>2016-09-09T09:05:17Z</time>
      </trkpt>
      <trkpt lat="45.49389" lon="5.93873">
        <ele>741.98</ele>
        <time>2016-09-09T09:05:28Z</time>
      </trkpt>
      <trkpt lat="45.49405" lon="5.93862">
        <ele>743.69</ele>
        <time>2016-09-09T09:05:36Z</time>
      </trkpt>
      <trkpt lat="45.49421" lon="5.93847">
        <ele>745.86</ele>
        <time>2016-09-09T09:05:44Z</time>
      </trkpt>
      <trkpt lat="45.49433" lon="5.93825">
        <ele>747.69</ele>
        <time>2016-09-09T09:05:52Z</time>
      </trkpt>
      <trkpt lat="45.49444" lon="5.93805">
        <ele>749.43</ele>
        <time>2016-09-09T09:06:00Z</time>
      </trkpt>
      <trkpt lat="45.49459" lon="5.93786">
        <ele>751.35</ele>
        <time>2016-09-09T09:06:08Z</time>
      </trkpt>
      <trkpt lat="45.49475" lon="5.9377">
        <ele>753.06</ele>
        <time>2016-09-09T09:06:16Z</time>
      </trkpt>
      <trkpt lat="45.49492" lon="5.93755">
        <ele>755.95</ele>
        <time>2016-09-09T09:06:26Z</time>
      </trkpt>
      <trkpt lat="45.49508" lon="5.93741">
        <ele>757.55</ele>
        <time>2016-09-09T09:06:33Z</time>
      </trkpt>
      <trkpt lat="45.49525" lon="5.93725">
        <ele>759.57</ele>
        <time>2016-09-09T09:06:41Z</time>
      </trkpt>
      <trkpt lat="45.49541" lon="5.93711">
        <ele>761.24</ele>
        <time>2016-09-09T09:06:49Z</time>
      </trkpt>
      <trkpt lat="45.49558" lon="5.93702">
        <ele>763.15</ele>
        <time>2016-09-09T09:06:57Z</time>
      </trkpt>
      <trkpt lat="45.49575" lon="5.93693">
        <ele>764.94</ele>
        <time>2016-09-09T09:07:05Z</time>
      </trkpt>
      <trkpt lat="45.49593" lon="5.93681">
        <ele>767.1</ele>
        <time>2016-09-09T09:07:14Z</time>
      </trkpt>
      <trkpt lat="45.49612" lon="5.93669">
        <ele>769.24</ele>
        <time>2016-09-09T09:07:23Z</time>
      </trkpt>
      <trkpt lat="45.49629" lon="5.93658">
        <ele>770.64</ele>
        <time>2016-09-09T09:07:30Z</time>
      </trkpt>
      <trkpt lat="45.49646" lon="5.9365">
        <ele>772.28</ele>
        <time>2016-09-09T09:07:38Z</time>
      </trkpt>
      <trkpt lat="45.49663" lon="5.93639">
        <ele>774.55</ele>
        <time>2016-09-09T09:07:46Z</time>
      </trkpt>
      <trkpt lat="45.49681" lon="5.93625">
        <ele>776.61</ele>
        <time>2016-09-09T09:07:54Z</time>
      </trkpt>
      <trkpt lat="45.49686" lon="5.936">
        <ele>777.97</ele>
        <time>2016-09-09T09:08:02Z</time>
      </trkpt>
      <trkpt lat="45.49675" lon="5.93578">
        <ele>778.47</ele>
        <time>2016-09-09T09:08:08Z</time>
      </trkpt>
      <trkpt lat="45.49662" lon="5.93555">
        <ele>778.43</ele>
        <time>2016-09-09T09:08:14Z</time>
      </trkpt>
      <trkpt lat="45.49651" lon="5.93535">
        <ele>778.43</ele>
        <time>2016-09-09T09:08:20Z</time>
      </trkpt>
      <trkpt lat="45.49641" lon="5.93512">
        <ele>778.07</ele>
        <time>2016-09-09T09:08:27Z</time>
      </trkpt>
      <trkpt lat="45.49631" lon="5.93487">
        <ele>778.03</ele>
        <time>2016-09-09T09:08:34Z</time>
      </trkpt>
      <trkpt lat="45.49637" lon="5.9346">
        <ele>778.41</ele>
        <time>2016-09-09T09:08:39Z</time>
      </trkpt>
      <trkpt lat="45.49645" lon="5.93433">
        <ele>780.49</ele>
        <time>2016-09-09T09:08:46Z</time>
      </trkpt>
      <trkpt lat="45.49656" lon="5.9341">
        <ele>782.07</ele>
        <time>2016-09-09T09:08:53Z</time>
      </trkpt>
      <trkpt lat="45.4966" lon="5.93385">
        <ele>783.11</ele>
        <time>2016-09-09T09:08:59Z</time>
      </trkpt>
      <trkpt lat="45.49663" lon="5.93357">
        <ele>784.06</ele>
        <time>2016-09-09T09:09:06Z</time>
      </trkpt>
      <trkpt lat="45.49662" lon="5.93331">
        <ele>785.72</ele>
        <time>2016-09-09T09:09:13Z</time>
      </trkpt>
      <trkpt lat="45.49652" lon="5.93309">
        <ele>787.24</ele>
        <time>2016-09-09T09:09:20Z</time>
      </trkpt>
      <trkpt lat="45.49637" lon="5.93291">
        <ele>788.44</ele>
        <time>2016-09-09T09:09:27Z</time>
      </trkpt>
      <trkpt lat="45.49621" lon="5.9328">
        <ele>789.52</ele>
        <time>2016-09-09T09:09:33Z</time>
      </trkpt>
      <trkpt lat="45.49604" lon="5.93267">
        <ele>791.15</ele>
        <time>2016-09-09T09:09:41Z</time>
      </trkpt>
      <trkpt lat="45.49607" lon="5.93241">
        <ele>793.11</ele>
        <time>2016-09-09T09:09:48Z</time>
      </trkpt>
      <trkpt lat="45.49617" lon="5.93216">
        <ele>794.92</ele>
        <time>2016-09-09T09:09:55Z</time>
      </trkpt>
      <trkpt lat="45.49628" lon="5.93193">
        <ele>796.73</ele>
        <time>2016-09-09T09:10:03Z</time>
      </trkpt>
      <trkpt lat="45.49639" lon="5.93169">
        <ele>797.95</ele>
        <time>2016-09-09T09:10:11Z</time>
      </trkpt>
      <trkpt lat="45.4962" lon="5.93177">
        <ele>800.68</ele>
        <time>2016-09-09T09:10:28Z</time>
      </trkpt>
      <trkpt lat="45.49608" lon="5.93197">
        <ele>801.69</ele>
        <time>2016-09-09T09:10:36Z</time>
      </trkpt>
      <trkpt lat="45.49596" lon="5.93216">
        <ele>802.12</ele>
        <time>2016-09-09T09:10:43Z</time>
      </trkpt>
      <trkpt lat="45.49577" lon="5.93226">
        <ele>802.2</ele>
        <time>2016-09-09T09:10:49Z</time>
      </trkpt>
      <trkpt lat="45.4957" lon="5.93251">
        <ele>803.14</ele>
        <time>2016-09-09T09:10:56Z</time>
      </trkpt>
      <trkpt lat="45.49579" lon="5.93274">
        <ele>805.48</ele>
        <time>2016-09-09T09:11:05Z</time>
      </trkpt>
      <trkpt lat="45.49581" lon="5.933">
        <ele>805.9</ele>
        <time>2016-09-09T09:11:11Z</time>
      </trkpt>
      <trkpt lat="45.49577" lon="5.93329">
        <ele>807.28</ele>
        <time>2016-09-09T09:11:19Z</time>
      </trkpt>
      <trkpt lat="45.49561" lon="5.93343">
        <ele>809.23</ele>
        <time>2016-09-09T09:11:28Z</time>
      </trkpt>
      <trkpt lat="45.49543" lon="5.93338">
        <ele>811.69</ele>
        <time>2016-09-09T09:11:38Z</time>
      </trkpt>
      <trkpt lat="45.49523" lon="5.93339">
        <ele>813.92</ele>
        <time>2016-09-09T09:11:47Z</time>
      </trkpt>
      <trkpt lat="45.49503" lon="5.9334">
        <ele>815.87</ele>
        <time>2016-09-09T09:11:56Z</time>
      </trkpt>
      <trkpt lat="45.49485" lon="5.93334">
        <ele>818.42</ele>
        <time>2016-09-09T09:12:05Z</time>
      </trkpt>
      <trkpt lat="45.49467" lon="5.9334">
        <ele>820.5</ele>
        <time>2016-09-09T09:12:15Z</time>
      </trkpt>
      <trkpt lat="45.4946" lon="5.93366">
        <ele>823.2</ele>
        <time>2016-09-09T09:12:25Z</time>
      </trkpt>
      <trkpt lat="45.49453" lon="5.9339">
        <ele>825.65</ele>
        <time>2016-09-09T09:12:35Z</time>
      </trkpt>
      <trkpt lat="45.49443" lon="5.93367">
        <ele>828.76</ele>
        <time>2016-09-09T09:12:48Z</time>
      </trkpt>
      <trkpt lat="45.4943" lon="5.93349">
        <ele>830.48</ele>
        <time>2016-09-09T09:12:57Z</time>
      </trkpt>
      <trkpt lat="45.49428" lon="5.93321">
        <ele>832.37</ele>
        <time>2016-09-09T09:13:06Z</time>
      </trkpt>
      <trkpt lat="45.49436" lon="5.93297">
        <ele>834.92</ele>
        <time>2016-09-09T09:13:16Z</time>
      </trkpt>
      <trkpt lat="45.49448" lon="5.93277">
        <ele>837.15</ele>
        <time>2016-09-09T09:13:25Z</time>
      </trkpt>
      <trkpt lat="45.49459" lon="5.93254">
        <ele>839.95</ele>
        <time>2016-09-09T09:13:36Z</time>
      </trkpt>
      <trkpt lat="45.4945" lon="5.93231">
        <ele>842.95</ele>
        <time>2016-09-09T09:13:47Z</time>
      </trkpt>
      <trkpt lat="45.49433" lon="5.93217">
        <ele>846.07</ele>
        <time>2016-09-09T09:13:58Z</time>
      </trkpt>
      <trkpt lat="45.49434" lon="5.93191">
        <ele>848.29</ele>
        <time>2016-09-09T09:14:09Z</time>
      </trkpt>
      <trkpt lat="45.49447" lon="5.93172">
        <ele>849.87</ele>
        <time>2016-09-09T09:14:18Z</time>
      </trkpt>
      <trkpt lat="45.49458" lon="5.9315">
        <ele>850.51</ele>
        <time>2016-09-09T09:14:25Z</time>
      </trkpt>
      <trkpt lat="45.49471" lon="5.93129">
        <ele>852.08</ele>
        <time>2016-09-09T09:14:34Z</time>
      </trkpt>
      <trkpt lat="45.4948" lon="5.93106">
        <ele>854.86</ele>
        <time>2016-09-09T09:14:45Z</time>
      </trkpt>
      <trkpt lat="45.49488" lon="5.93079">
        <ele>857.45</ele>
        <time>2016-09-09T09:14:56Z</time>
      </trkpt>
      <trkpt lat="45.49492" lon="5.93054">
        <ele>859.84</ele>
        <time>2016-09-09T09:15:06Z</time>
      </trkpt>
      <trkpt lat="45.49486" lon="5.93028">
        <ele>862.52</ele>
        <time>2016-09-09T09:15:18Z</time>
      </trkpt>
      <trkpt lat="45.4947" lon="5.93013">
        <ele>864.75</ele>
        <time>2016-09-09T09:15:27Z</time>
      </trkpt>
      <trkpt lat="45.49454" lon="5.92997">
        <ele>866.41</ele>
        <time>2016-09-09T09:15:36Z</time>
      </trkpt>
      <trkpt lat="45.49438" lon="5.92984">
        <ele>868.55</ele>
        <time>2016-09-09T09:15:46Z</time>
      </trkpt>
      <trkpt lat="45.49426" lon="5.92963">
        <ele>871.72</ele>
        <time>2016-09-09T09:15:59Z</time>
      </trkpt>
      <trkpt lat="45.49414" lon="5.92939">
        <ele>876.24</ele>
        <time>2016-09-09T09:16:14Z</time>
      </trkpt>
      <trkpt lat="45.49405" lon="5.92914">
        <ele>877.77</ele>
        <time>2016-09-09T09:18:51Z</time>
      </trkpt>
      <trkpt lat="45.49393" lon="5.92895">
        <ele>879.34</ele>
        <time>2016-09-09T09:18:59Z</time>
      </trkpt>
      <trkpt lat="45.49395" lon="5.92868">
        <ele>881.23</ele>
        <time>2016-09-09T09:19:07Z</time>
      </trkpt>
      <trkpt lat="45.49397" lon="5.92842">
        <ele>883.77</ele>
        <time>2016-09-09T09:19:16Z</time>
      </trkpt>
      <trkpt lat="45.49397" lon="5.92815">
        <ele>886.13</ele>
        <time>2016-09-09T09:19:25Z</time>
      </trkpt>
      <trkpt lat="45.49398" lon="5.92787">
        <ele>889.09</ele>
        <time>2016-09-09T09:19:43Z</time>
      </trkpt>
      <trkpt lat="45.49396" lon="5.92761">
        <ele>892.31</ele>
        <time>2016-09-09T09:19:55Z</time>
      </trkpt>
      <trkpt lat="45.49389" lon="5.92736">
        <ele>894.88</ele>
        <time>2016-09-09T09:20:05Z</time>
      </trkpt>
      <trkpt lat="45.49386" lon="5.92708">
        <ele>896.97</ele>
        <time>2016-09-09T09:20:15Z</time>
      </trkpt>
      <trkpt lat="45.49378" lon="5.92684">
        <ele>899.53</ele>
        <time>2016-09-09T09:20:25Z</time>
      </trkpt>
      <trkpt lat="45.49363" lon="5.92666">
        <ele>901.3</ele>
        <time>2016-09-09T09:20:33Z</time>
      </trkpt>
      <trkpt lat="45.49348" lon="5.92649">
        <ele>904.25</ele>
        <time>2016-09-09T09:20:44Z</time>
      </trkpt>
      <trkpt lat="45.49341" lon="5.92623">
        <ele>906.9</ele>
        <time>2016-09-09T09:20:53Z</time>
      </trkpt>
      <trkpt lat="45.49331" lon="5.926">
        <ele>909.61</ele>
        <time>2016-09-09T09:21:04Z</time>
      </trkpt>
      <trkpt lat="45.49318" lon="5.92581">
        <ele>912.41</ele>
        <time>2016-09-09T09:21:14Z</time>
      </trkpt>
      <trkpt lat="45.49319" lon="5.92553">
        <ele>914.56</ele>
        <time>2016-09-09T09:21:23Z</time>
      </trkpt>
      <trkpt lat="45.49333" lon="5.92534">
        <ele>917.47</ele>
        <time>2016-09-09T09:21:36Z</time>
      </trkpt>
      <trkpt lat="45.49351" lon="5.92525">
        <ele>920.23</ele>
        <time>2016-09-09T09:21:47Z</time>
      </trkpt>
      <trkpt lat="45.49368" lon="5.92513">
        <ele>922.09</ele>
        <time>2016-09-09T09:21:57Z</time>
      </trkpt>
      <trkpt lat="45.49386" lon="5.92499">
        <ele>924.54</ele>
        <time>2016-09-09T09:22:07Z</time>
      </trkpt>
      <trkpt lat="45.49395" lon="5.92475">
        <ele>926.59</ele>
        <time>2016-09-09T09:22:15Z</time>
      </trkpt>
      <trkpt lat="45.494" lon="5.92448">
        <ele>929.47</ele>
        <time>2016-09-09T09:22:27Z</time>
      </trkpt>
      <trkpt lat="45.49394" lon="5.92423">
        <ele>931.8</ele>
        <time>2016-09-09T09:22:38Z</time>
      </trkpt>
      <trkpt lat="45.49387" lon="5.92398">
        <ele>934.51</ele>
        <time>2016-09-09T09:22:53Z</time>
      </trkpt>
      <trkpt lat="45.49382" lon="5.9237">
        <ele>936.65</ele>
        <time>2016-09-09T09:23:02Z</time>
      </trkpt>
      <trkpt lat="45.49378" lon="5.92344">
        <ele>939.04</ele>
        <time>2016-09-09T09:23:11Z</time>
      </trkpt>
      <trkpt lat="45.49372" lon="5.92319">
        <ele>941.06</ele>
        <time>2016-09-09T09:23:20Z</time>
      </trkpt>
      <trkpt lat="45.49355" lon="5.92309">
        <ele>943.39</ele>
        <time>2016-09-09T09:23:31Z</time>
      </trkpt>
      <trkpt lat="45.49336" lon="5.92313">
        <ele>946.22</ele>
        <time>2016-09-09T09:23:43Z</time>
      </trkpt>
      <trkpt lat="45.49322" lon="5.92331">
        <ele>948.57</ele>
        <time>2016-09-09T09:23:53Z</time>
      </trkpt>
      <trkpt lat="45.4931" lon="5.9235">
        <ele>950.9</ele>
        <time>2016-09-09T09:24:03Z</time>
      </trkpt>
      <trkpt lat="45.49292" lon="5.92362">
        <ele>953.43</ele>
        <time>2016-09-09T09:24:15Z</time>
      </trkpt>
      <trkpt lat="45.49274" lon="5.9237">
        <ele>955.28</ele>
        <time>2016-09-09T09:24:24Z</time>
      </trkpt>
      <trkpt lat="45.49255" lon="5.92371">
        <ele>957.26</ele>
        <time>2016-09-09T09:24:32Z</time>
      </trkpt>
      <trkpt lat="45.49237" lon="5.92363">
        <ele>960.62</ele>
        <time>2016-09-09T09:24:46Z</time>
      </trkpt>
      <trkpt lat="45.49232" lon="5.92337">
        <ele>962.63</ele>
        <time>2016-09-09T09:24:55Z</time>
      </trkpt>
      <trkpt lat="45.49227" lon="5.9231">
        <ele>965.04</ele>
        <time>2016-09-09T09:25:05Z</time>
      </trkpt>
      <trkpt lat="45.4923" lon="5.92283">
        <ele>967.81</ele>
        <time>2016-09-09T09:25:16Z</time>
      </trkpt>
      <trkpt lat="45.49218" lon="5.92262">
        <ele>970.59</ele>
        <time>2016-09-09T09:25:27Z</time>
      </trkpt>
      <trkpt lat="45.492" lon="5.92251">
        <ele>973.38</ele>
        <time>2016-09-09T09:25:36Z</time>
      </trkpt>
      <trkpt lat="45.49184" lon="5.92236">
        <ele>976</ele>
        <time>2016-09-09T09:25:46Z</time>
      </trkpt>
      <trkpt lat="45.49174" lon="5.92216">
        <ele>978.59</ele>
        <time>2016-09-09T09:27:23Z</time>
      </trkpt>
      <trkpt lat="45.49177" lon="5.92189">
        <ele>980.59</ele>
        <time>2016-09-09T09:27:32Z</time>
      </trkpt>
      <trkpt lat="45.49181" lon="5.92164">
        <ele>982.9</ele>
        <time>2016-09-09T09:27:42Z</time>
      </trkpt>
      <trkpt lat="45.49187" lon="5.92138">
        <ele>984.7</ele>
        <time>2016-09-09T09:27:51Z</time>
      </trkpt>
      <trkpt lat="45.49191" lon="5.92112">
        <ele>987.02</ele>
        <time>2016-09-09T09:28:02Z</time>
      </trkpt>
      <trkpt lat="45.49195" lon="5.92086">
        <ele>989.22</ele>
        <time>2016-09-09T09:28:12Z</time>
      </trkpt>
      <trkpt lat="45.492" lon="5.9206">
        <ele>991.37</ele>
        <time>2016-09-09T09:28:22Z</time>
      </trkpt>
      <trkpt lat="45.49195" lon="5.92033">
        <ele>992.76</ele>
        <time>2016-09-09T09:28:31Z</time>
      </trkpt>
      <trkpt lat="45.49183" lon="5.92012">
        <ele>994.2</ele>
        <time>2016-09-09T09:28:39Z</time>
      </trkpt>
      <trkpt lat="45.49168" lon="5.91996">
        <ele>995.54</ele>
        <time>2016-09-09T09:28:47Z</time>
      </trkpt>
      <trkpt lat="45.49155" lon="5.91979">
        <ele>998.02</ele>
        <time>2016-09-09T09:28:58Z</time>
      </trkpt>
      <trkpt lat="45.49146" lon="5.91955">
        <ele>1000.43</ele>
        <time>2016-09-09T09:29:06Z</time>
      </trkpt>
      <trkpt lat="45.49133" lon="5.91928">
        <ele>1003.44</ele>
        <time>2016-09-09T09:29:17Z</time>
      </trkpt>
      <trkpt lat="45.49122" lon="5.91906">
        <ele>1005.23</ele>
        <time>2016-09-09T09:29:25Z</time>
      </trkpt>
      <trkpt lat="45.49119" lon="5.9188">
        <ele>1007.54</ele>
        <time>2016-09-09T09:29:35Z</time>
      </trkpt>
      <trkpt lat="45.49117" lon="5.91852">
        <ele>1009.93</ele>
        <time>2016-09-09T09:29:45Z</time>
      </trkpt>
      <trkpt lat="45.49121" lon="5.91825">
        <ele>1011.83</ele>
        <time>2016-09-09T09:29:54Z</time>
      </trkpt>
      <trkpt lat="45.49123" lon="5.91799">
        <ele>1014.03</ele>
        <time>2016-09-09T09:30:02Z</time>
      </trkpt>
      <trkpt lat="45.4913" lon="5.91774">
        <ele>1016.96</ele>
        <time>2016-09-09T09:30:11Z</time>
      </trkpt>
      <trkpt lat="45.49128" lon="5.91748">
        <ele>1019.74</ele>
        <time>2016-09-09T09:30:22Z</time>
      </trkpt>
      <trkpt lat="45.49115" lon="5.91768">
        <ele>1021.89</ele>
        <time>2016-09-09T09:30:35Z</time>
      </trkpt>
      <trkpt lat="45.4911" lon="5.91792">
        <ele>1023.28</ele>
        <time>2016-09-09T09:30:43Z</time>
      </trkpt>
      <trkpt lat="45.491" lon="5.91815">
        <ele>1024.58</ele>
        <time>2016-09-09T09:30:51Z</time>
      </trkpt>
      <trkpt lat="45.49091" lon="5.91837">
        <ele>1025.83</ele>
        <time>2016-09-09T09:30:59Z</time>
      </trkpt>
      <trkpt lat="45.49084" lon="5.91864">
        <ele>1027.01</ele>
        <time>2016-09-09T09:31:07Z</time>
      </trkpt>
      <trkpt lat="45.49081" lon="5.9189">
        <ele>1028.34</ele>
        <time>2016-09-09T09:31:14Z</time>
      </trkpt>
      <trkpt lat="45.49069" lon="5.91911">
        <ele>1029.6</ele>
        <time>2016-09-09T09:31:21Z</time>
      </trkpt>
      <trkpt lat="45.49061" lon="5.91934">
        <ele>1031.09</ele>
        <time>2016-09-09T09:31:29Z</time>
      </trkpt>
      <trkpt lat="45.49054" lon="5.91961">
        <ele>1032.67</ele>
        <time>2016-09-09T09:31:37Z</time>
      </trkpt>
      <trkpt lat="45.49044" lon="5.91982">
        <ele>1033.97</ele>
        <time>2016-09-09T09:31:44Z</time>
      </trkpt>
      <trkpt lat="45.49041" lon="5.9201">
        <ele>1035.18</ele>
        <time>2016-09-09T09:31:52Z</time>
      </trkpt>
      <trkpt lat="45.49034" lon="5.92034">
        <ele>1036.49</ele>
        <time>2016-09-09T09:31:59Z</time>
      </trkpt>
      <trkpt lat="45.4902" lon="5.92051">
        <ele>1037.82</ele>
        <time>2016-09-09T09:32:06Z</time>
      </trkpt>
      <trkpt lat="45.4901" lon="5.92073">
        <ele>1039.6</ele>
        <time>2016-09-09T09:32:14Z</time>
      </trkpt>
      <trkpt lat="45.49005" lon="5.92098">
        <ele>1040.78</ele>
        <time>2016-09-09T09:32:21Z</time>
      </trkpt>
      <trkpt lat="45.48999" lon="5.92125">
        <ele>1042.42</ele>
        <time>2016-09-09T09:32:29Z</time>
      </trkpt>
      <trkpt lat="45.48986" lon="5.92147">
        <ele>1043.9</ele>
        <time>2016-09-09T09:32:37Z</time>
      </trkpt>
      <trkpt lat="45.48971" lon="5.92167">
        <ele>1045.5</ele>
        <time>2016-09-09T09:32:45Z</time>
      </trkpt>
      <trkpt lat="45.48955" lon="5.9218">
        <ele>1046.53</ele>
        <time>2016-09-09T09:32:52Z</time>
      </trkpt>
      <trkpt lat="45.48936" lon="5.92172">
        <ele>1048.27</ele>
        <time>2016-09-09T09:33:00Z</time>
      </trkpt>
      <trkpt lat="45.48923" lon="5.92154">
        <ele>1049.61</ele>
        <time>2016-09-09T09:33:07Z</time>
      </trkpt>
      <trkpt lat="45.48906" lon="5.92141">
        <ele>1050.66</ele>
        <time>2016-09-09T09:33:14Z</time>
      </trkpt>
      <trkpt lat="45.48886" lon="5.92144">
        <ele>1051.49</ele>
        <time>2016-09-09T09:33:20Z</time>
      </trkpt>
      <trkpt lat="45.48866" lon="5.92142">
        <ele>1052.83</ele>
        <time>2016-09-09T09:33:27Z</time>
      </trkpt>
      <trkpt lat="45.4885" lon="5.92126">
        <ele>1055.08</ele>
        <time>2016-09-09T09:33:34Z</time>
      </trkpt>
      <trkpt lat="45.48843" lon="5.921">
        <ele>1056.9</ele>
        <time>2016-09-09T09:33:41Z</time>
      </trkpt>
      <trkpt lat="45.48837" lon="5.92072">
        <ele>1058.16</ele>
        <time>2016-09-09T09:33:48Z</time>
      </trkpt>
      <trkpt lat="45.4883" lon="5.92045">
        <ele>1059.94</ele>
        <time>2016-09-09T09:33:55Z</time>
      </trkpt>
      <trkpt lat="45.48821" lon="5.92019">
        <ele>1061.87</ele>
        <time>2016-09-09T09:34:02Z</time>
      </trkpt>
      <trkpt lat="45.48811" lon="5.91997">
        <ele>1063.54</ele>
        <time>2016-09-09T09:34:09Z</time>
      </trkpt>
      <trkpt lat="45.48801" lon="5.91973">
        <ele>1065.19</ele>
        <time>2016-09-09T09:34:16Z</time>
      </trkpt>
      <trkpt lat="45.48792" lon="5.91948">
        <ele>1066.81</ele>
        <time>2016-09-09T09:34:23Z</time>
      </trkpt>
      <trkpt lat="45.48785" lon="5.91923">
        <ele>1068.2</ele>
        <time>2016-09-09T09:34:30Z</time>
      </trkpt>
      <trkpt lat="45.48774" lon="5.91901">
        <ele>1069.67</ele>
        <time>2016-09-09T09:34:37Z</time>
      </trkpt>
      <trkpt lat="45.4876" lon="5.91882">
        <ele>1070.89</ele>
        <time>2016-09-09T09:34:44Z</time>
      </trkpt>
      <trkpt lat="45.48747" lon="5.91862">
        <ele>1072.16</ele>
        <time>2016-09-09T09:34:51Z</time>
      </trkpt>
      <trkpt lat="45.48735" lon="5.9184">
        <ele>1073.61</ele>
        <time>2016-09-09T09:34:58Z</time>
      </trkpt>
      <trkpt lat="45.48718" lon="5.91824">
        <ele>1074.97</ele>
        <time>2016-09-09T09:35:05Z</time>
      </trkpt>
      <trkpt lat="45.48702" lon="5.91808">
        <ele>1076.41</ele>
        <time>2016-09-09T09:35:12Z</time>
      </trkpt>
      <trkpt lat="45.48684" lon="5.91796">
        <ele>1078.28</ele>
        <time>2016-09-09T09:35:20Z</time>
      </trkpt>
      <trkpt lat="45.48673" lon="5.91774">
        <ele>1080.11</ele>
        <time>2016-09-09T09:35:28Z</time>
      </trkpt>
      <trkpt lat="45.48659" lon="5.91756">
        <ele>1081.32</ele>
        <time>2016-09-09T09:35:35Z</time>
      </trkpt>
      <trkpt lat="45.48643" lon="5.91739">
        <ele>1082.84</ele>
        <time>2016-09-09T09:35:42Z</time>
      </trkpt>
      <trkpt lat="45.48625" lon="5.91727">
        <ele>1084.31</ele>
        <time>2016-09-09T09:35:50Z</time>
      </trkpt>
      <trkpt lat="45.48605" lon="5.91728">
        <ele>1085.68</ele>
        <time>2016-09-09T09:35:57Z</time>
      </trkpt>
      <trkpt lat="45.48587" lon="5.9173">
        <ele>1087.06</ele>
        <time>2016-09-09T09:36:04Z</time>
      </trkpt>
      <trkpt lat="45.48568" lon="5.91738">
        <ele>1088.38</ele>
        <time>2016-09-09T09:36:12Z</time>
      </trkpt>
      <trkpt lat="45.48548" lon="5.91735">
        <ele>1089.51</ele>
        <time>2016-09-09T09:36:19Z</time>
      </trkpt>
      <trkpt lat="45.48527" lon="5.91731">
        <ele>1091.36</ele>
        <time>2016-09-09T09:36:27Z</time>
      </trkpt>
      <trkpt lat="45.4851" lon="5.91724">
        <ele>1092.87</ele>
        <time>2016-09-09T09:36:34Z</time>
      </trkpt>
      <trkpt lat="45.48493" lon="5.91711">
        <ele>1094.35</ele>
        <time>2016-09-09T09:36:41Z</time>
      </trkpt>
      <trkpt lat="45.48474" lon="5.91705">
        <ele>1095.88</ele>
        <time>2016-09-09T09:36:48Z</time>
      </trkpt>
      <trkpt lat="45.48457" lon="5.91692">
        <ele>1097.44</ele>
        <time>2016-09-09T09:36:55Z</time>
      </trkpt>
      <trkpt lat="45.4844" lon="5.91678">
        <ele>1099.13</ele>
        <time>2016-09-09T09:37:02Z</time>
      </trkpt>
      <trkpt lat="45.48423" lon="5.91662">
        <ele>1100.68</ele>
        <time>2016-09-09T09:37:09Z</time>
      </trkpt>
      <trkpt lat="45.48406" lon="5.91646">
        <ele>1102.34</ele>
        <time>2016-09-09T09:37:16Z</time>
      </trkpt>
      <trkpt lat="45.4839" lon="5.9163">
        <ele>1104.26</ele>
        <time>2016-09-09T09:37:24Z</time>
      </trkpt>
      <trkpt lat="45.48371" lon="5.91619">
        <ele>1106.13</ele>
        <time>2016-09-09T09:37:31Z</time>
      </trkpt>
      <trkpt lat="45.48352" lon="5.9162">
        <ele>1107.66</ele>
        <time>2016-09-09T09:37:38Z</time>
      </trkpt>
      <trkpt lat="45.4833" lon="5.9162">
        <ele>1109.29</ele>
        <time>2016-09-09T09:37:47Z</time>
      </trkpt>
      <trkpt lat="45.48312" lon="5.91614">
        <ele>1110.46</ele>
        <time>2016-09-09T09:37:53Z</time>
      </trkpt>
      <trkpt lat="45.48296" lon="5.91603">
        <ele>1111.83</ele>
        <time>2016-09-09T09:37:59Z</time>
      </trkpt>
      <trkpt lat="45.48284" lon="5.91583">
        <ele>1113.47</ele>
        <time>2016-09-09T09:38:06Z</time>
      </trkpt>
      <trkpt lat="45.48263" lon="5.91576">
        <ele>1114.93</ele>
        <time>2016-09-09T09:38:14Z</time>
      </trkpt>
      <trkpt lat="45.48243" lon="5.91577">
        <ele>1115.51</ele>
        <time>2016-09-09T09:38:18Z</time>
      </trkpt>
      <trkpt lat="45.48223" lon="5.91569">
        <ele>1116.08</ele>
        <time>2016-09-09T09:38:24Z</time>
      </trkpt>
      <trkpt lat="45.4821" lon="5.9155">
        <ele>1116.93</ele>
        <time>2016-09-09T09:38:30Z</time>
      </trkpt>
      <trkpt lat="45.48194" lon="5.91534">
        <ele>1118.03</ele>
        <time>2016-09-09T09:38:36Z</time>
      </trkpt>
      <trkpt lat="45.48176" lon="5.91527">
        <ele>1118.72</ele>
        <time>2016-09-09T09:38:41Z</time>
      </trkpt>
      <trkpt lat="45.48163" lon="5.9151">
        <ele>1119.66</ele>
        <time>2016-09-09T09:38:48Z</time>
      </trkpt>
      <trkpt lat="45.48144" lon="5.91506">
        <ele>1120.15</ele>
        <time>2016-09-09T09:38:53Z</time>
      </trkpt>
      <trkpt lat="45.48125" lon="5.91506">
        <ele>1120.98</ele>
        <time>2016-09-09T09:38:59Z</time>
      </trkpt>
      <trkpt lat="45.48105" lon="5.91513">
        <ele>1121.57</ele>
        <time>2016-09-09T09:39:05Z</time>
      </trkpt>
      <trkpt lat="45.48086" lon="5.91512">
        <ele>1122.48</ele>
        <time>2016-09-09T09:39:11Z</time>
      </trkpt>
      <trkpt lat="45.48067" lon="5.91504">
        <ele>1123.69</ele>
        <time>2016-09-09T09:39:18Z</time>
      </trkpt>
      <trkpt lat="45.48049" lon="5.91494">
        <ele>1124.32</ele>
        <time>2016-09-09T09:39:24Z</time>
      </trkpt>
      <trkpt lat="45.48031" lon="5.91479">
        <ele>1124.25</ele>
        <time>2016-09-09T09:39:29Z</time>
      </trkpt>
      <trkpt lat="45.48017" lon="5.9146">
        <ele>1123.85</ele>
        <time>2016-09-09T09:39:33Z</time>
      </trkpt>
      <trkpt lat="45.4801" lon="5.91432">
        <ele>1123.02</ele>
        <time>2016-09-09T09:39:37Z</time>
      </trkpt>
      <trkpt lat="45.48009" lon="5.91404">
        <ele>1123.5</ele>
        <time>2016-09-09T09:39:42Z</time>
      </trkpt>
      <trkpt lat="45.48006" lon="5.91376">
        <ele>1124.76</ele>
        <time>2016-09-09T09:39:48Z</time>
      </trkpt>
      <trkpt lat="45.48008" lon="5.91348">
        <ele>1126.61</ele>
        <time>2016-09-09T09:39:55Z</time>
      </trkpt>
      <trkpt lat="45.48011" lon="5.91323">
        <ele>1127.79</ele>
        <time>2016-09-09T09:40:02Z</time>
      </trkpt>
      <trkpt lat="45.48014" lon="5.91296">
        <ele>1129.56</ele>
        <time>2016-09-09T09:40:10Z</time>
      </trkpt>
      <trkpt lat="45.48013" lon="5.91268">
        <ele>1131.59</ele>
        <time>2016-09-09T09:40:19Z</time>
      </trkpt>
      <trkpt lat="45.4801" lon="5.91242">
        <ele>1133.69</ele>
        <time>2016-09-09T09:40:28Z</time>
      </trkpt>
      <trkpt lat="45.48011" lon="5.91216">
        <ele>1136.89</ele>
        <time>2016-09-09T09:40:39Z</time>
      </trkpt>
      <trkpt lat="45.48006" lon="5.91189">
        <ele>1139.54</ele>
        <time>2016-09-09T09:40:50Z</time>
      </trkpt>
      <trkpt lat="45.48002" lon="5.91163">
        <ele>1141.98</ele>
        <time>2016-09-09T09:41:00Z</time>
      </trkpt>
      <trkpt lat="45.47992" lon="5.91139">
        <ele>1143.34</ele>
        <time>2016-09-09T09:41:09Z</time>
      </trkpt>
      <trkpt lat="45.47979" lon="5.91117">
        <ele>1144.83</ele>
        <time>2016-09-09T09:41:18Z</time>
      </trkpt>
      <trkpt lat="45.47969" lon="5.91092">
        <ele>1145.41</ele>
        <time>2016-09-09T09:41:26Z</time>
      </trkpt>
      <trkpt lat="45.47962" lon="5.91066">
        <ele>1145.97</ele>
        <time>2016-09-09T09:41:33Z</time>
      </trkpt>
      <trkpt lat="45.47957" lon="5.91041">
        <ele>1146.81</ele>
        <time>2016-09-09T09:41:40Z</time>
      </trkpt>
      <trkpt lat="45.47951" lon="5.91013">
        <ele>1147.17</ele>
        <time>2016-09-09T09:41:47Z</time>
      </trkpt>
      <trkpt lat="45.47945" lon="5.90986">
        <ele>1147.31</ele>
        <time>2016-09-09T09:41:54Z</time>
      </trkpt>
      <trkpt lat="45.47943" lon="5.9096">
        <ele>1148.77</ele>
        <time>2016-09-09T09:42:02Z</time>
      </trkpt>
      <trkpt lat="45.47939" lon="5.90934">
        <ele>1151.62</ele>
        <time>2016-09-09T09:42:12Z</time>
      </trkpt>
      <trkpt lat="45.47933" lon="5.90909">
        <ele>1153.72</ele>
        <time>2016-09-09T09:42:22Z</time>
      </trkpt>
      <trkpt lat="45.47924" lon="5.90885">
        <ele>1156.21</ele>
        <time>2016-09-09T09:42:33Z</time>
      </trkpt>
      <trkpt lat="45.47915" lon="5.90861">
        <ele>1158.43</ele>
        <time>2016-09-09T09:42:42Z</time>
      </trkpt>
      <trkpt lat="45.47907" lon="5.90835">
        <ele>1160.68</ele>
        <time>2016-09-09T09:42:52Z</time>
      </trkpt>
      <trkpt lat="45.47906" lon="5.90809">
        <ele>1162.63</ele>
        <time>2016-09-09T09:43:01Z</time>
      </trkpt>
      <trkpt lat="45.47911" lon="5.90783">
        <ele>1165.79</ele>
        <time>2016-09-09T09:43:11Z</time>
      </trkpt>
      <trkpt lat="45.47911" lon="5.90755">
        <ele>1167.97</ele>
        <time>2016-09-09T09:43:21Z</time>
      </trkpt>
      <trkpt lat="45.4791" lon="5.90728">
        <ele>1169.63</ele>
        <time>2016-09-09T09:43:28Z</time>
      </trkpt>
      <trkpt lat="45.47899" lon="5.90702">
        <ele>1170.2</ele>
        <time>2016-09-09T09:43:36Z</time>
      </trkpt>
      <trkpt lat="45.47888" lon="5.90681">
        <ele>1171.04</ele>
        <time>2016-09-09T09:43:44Z</time>
      </trkpt>
      <trkpt lat="45.4788" lon="5.90656">
        <ele>1172.31</ele>
        <time>2016-09-09T09:43:52Z</time>
      </trkpt>
      <trkpt lat="45.4788" lon="5.90628">
        <ele>1173.98</ele>
        <time>2016-09-09T09:43:59Z</time>
      </trkpt>
      <trkpt lat="45.47883" lon="5.90599">
        <ele>1175.38</ele>
        <time>2016-09-09T09:44:08Z</time>
      </trkpt>
      <trkpt lat="45.47878" lon="5.90572">
        <ele>1174.6</ele>
        <time>2016-09-09T09:44:13Z</time>
      </trkpt>
      <trkpt lat="45.47875" lon="5.90546">
        <ele>1173.57</ele>
        <time>2016-09-09T09:44:17Z</time>
      </trkpt>
      <trkpt lat="45.4787" lon="5.9052">
        <ele>1173.53</ele>
        <time>2016-09-09T09:44:21Z</time>
      </trkpt>
      <trkpt lat="45.47868" lon="5.90494">
        <ele>1174.04</ele>
        <time>2016-09-09T09:44:27Z</time>
      </trkpt>
      <trkpt lat="45.4787" lon="5.90465">
        <ele>1174.51</ele>
        <time>2016-09-09T09:44:33Z</time>
      </trkpt>
      <trkpt lat="45.47872" lon="5.90437">
        <ele>1174.98</ele>
        <time>2016-09-09T09:44:39Z</time>
      </trkpt>
      <trkpt lat="45.47877" lon="5.90408">
        <ele>1176.13</ele>
        <time>2016-09-09T09:44:46Z</time>
      </trkpt>
      <trkpt lat="45.47876" lon="5.9038">
        <ele>1178.17</ele>
        <time>2016-09-09T09:44:54Z</time>
      </trkpt>
      <trkpt lat="45.47875" lon="5.90354">
        <ele>1180.91</ele>
        <time>2016-09-09T09:45:02Z</time>
      </trkpt>
      <trkpt lat="45.47875" lon="5.90325">
        <ele>1181.33</ele>
        <time>2016-09-09T09:45:09Z</time>
      </trkpt>
      <trkpt lat="45.47879" lon="5.90297">
        <ele>1181.82</ele>
        <time>2016-09-09T09:45:16Z</time>
      </trkpt>
      <trkpt lat="45.47882" lon="5.90269">
        <ele>1181.67</ele>
        <time>2016-09-09T09:45:22Z</time>
      </trkpt>
      <trkpt lat="45.47887" lon="5.90244">
        <ele>1182.93</ele>
        <time>2016-09-09T09:45:30Z</time>
      </trkpt>
      <trkpt lat="45.47888" lon="5.90216">
        <ele>1186.02</ele>
        <time>2016-09-09T09:45:41Z</time>
      </trkpt>
      <trkpt lat="45.47887" lon="5.9019">
        <ele>1187.23</ele>
        <time>2016-09-09T09:46:45Z</time>
      </trkpt>
      <trkpt lat="45.47891" lon="5.9016">
        <ele>1186.82</ele>
        <time>2016-09-09T09:46:54Z</time>
      </trkpt>
      <trkpt lat="45.47891" lon="5.90134">
        <ele>1186.73</ele>
        <time>2016-09-09T09:47:02Z</time>
      </trkpt>
      <trkpt lat="45.47898" lon="5.90109">
        <ele>1186.31</ele>
        <time>2016-09-09T09:47:08Z</time>
      </trkpt>
      <trkpt lat="45.47903" lon="5.9008">
        <ele>1185.94</ele>
        <time>2016-09-09T09:47:14Z</time>
      </trkpt>
      <trkpt lat="45.47914" lon="5.90056">
        <ele>1185.98</ele>
        <time>2016-09-09T09:47:21Z</time>
      </trkpt>
      <trkpt lat="45.47931" lon="5.90044">
        <ele>1184.95</ele>
        <time>2016-09-09T09:47:32Z</time>
      </trkpt>
      <trkpt lat="45.4795" lon="5.90033">
        <ele>1184.25</ele>
        <time>2016-09-09T09:47:37Z</time>
      </trkpt>
      <trkpt lat="45.47972" lon="5.90038">
        <ele>1183.83</ele>
        <time>2016-09-09T09:47:43Z</time>
      </trkpt>
      <trkpt lat="45.47992" lon="5.90031">
        <ele>1183.3</ele>
        <time>2016-09-09T09:47:50Z</time>
      </trkpt>
      <trkpt lat="45.4801" lon="5.90019">
        <ele>1183.39</ele>
        <time>2016-09-09T09:47:59Z</time>
      </trkpt>
      <trkpt lat="45.48028" lon="5.90014">
        <ele>1183.03</ele>
        <time>2016-09-09T09:48:05Z</time>
      </trkpt>
      <trkpt lat="45.48047" lon="5.90005">
        <ele>1182.6</ele>
        <time>2016-09-09T09:49:51Z</time>
      </trkpt>
      <trkpt lat="45.48065" lon="5.90005">
        <ele>1181.79</ele>
        <time>2016-09-09T09:49:55Z</time>
      </trkpt>
      <trkpt lat="45.48086" lon="5.89992">
        <ele>1180.01</ele>
        <time>2016-09-09T09:49:59Z</time>
      </trkpt>
      <trkpt lat="45.48106" lon="5.89981">
        <ele>1177.9</ele>
        <time>2016-09-09T09:50:02Z</time>
      </trkpt>
      <trkpt lat="45.48127" lon="5.89974">
        <ele>1176.72</ele>
        <time>2016-09-09T09:50:05Z</time>
      </trkpt>
      <trkpt lat="45.48145" lon="5.89963">
        <ele>1176.63</ele>
        <time>2016-09-09T09:50:08Z</time>
      </trkpt>
      <trkpt lat="45.48166" lon="5.89952">
        <ele>1177.07</ele>
        <time>2016-09-09T09:50:12Z</time>
      </trkpt>
      <trkpt lat="45.48187" lon="5.89946">
        <ele>1177.16</ele>
        <time>2016-09-09T09:50:17Z</time>
      </trkpt>
      <trkpt lat="45.48205" lon="5.89937">
        <ele>1176.81</ele>
        <time>2016-09-09T09:50:21Z</time>
      </trkpt>
      <trkpt lat="45.48224" lon="5.89924">
        <ele>1176.57</ele>
        <time>2016-09-09T09:50:26Z</time>
      </trkpt>
      <trkpt lat="45.48242" lon="5.89915">
        <ele>1176.48</ele>
        <time>2016-09-09T09:50:31Z</time>
      </trkpt>
      <trkpt lat="45.48259" lon="5.89905">
        <ele>1176.71</ele>
        <time>2016-09-09T09:50:36Z</time>
      </trkpt>
      <trkpt lat="45.48276" lon="5.89891">
        <ele>1176.82</ele>
        <time>2016-09-09T09:50:42Z</time>
      </trkpt>
      <trkpt lat="45.48292" lon="5.89875">
        <ele>1177.52</ele>
        <time>2016-09-09T09:50:49Z</time>
      </trkpt>
      <trkpt lat="45.48309" lon="5.8986">
        <ele>1178.45</ele>
        <time>2016-09-09T09:50:57Z</time>
      </trkpt>
      <trkpt lat="45.48323" lon="5.89843">
        <ele>1179.59</ele>
        <time>2016-09-09T09:51:04Z</time>
      </trkpt>
      <trkpt lat="45.48335" lon="5.89822">
        <ele>1180.05</ele>
        <time>2016-09-09T09:51:10Z</time>
      </trkpt>
      <trkpt lat="45.48351" lon="5.89809">
        <ele>1180.39</ele>
        <time>2016-09-09T09:51:16Z</time>
      </trkpt>
      <trkpt lat="45.48368" lon="5.89794">
        <ele>1181.01</ele>
        <time>2016-09-09T09:51:22Z</time>
      </trkpt>
      <trkpt lat="45.48387" lon="5.89786">
        <ele>1181.45</ele>
        <time>2016-09-09T09:51:28Z</time>
      </trkpt>
      <trkpt lat="45.48397" lon="5.89764">
        <ele>1184.09</ele>
        <time>2016-09-09T09:51:36Z</time>
      </trkpt>
      <trkpt lat="45.48407" lon="5.89741">
        <ele>1186.83</ele>
        <time>2016-09-09T09:51:47Z</time>
      </trkpt>
      <trkpt lat="45.48414" lon="5.89717">
        <ele>1187.84</ele>
        <time>2016-09-09T09:51:58Z</time>
      </trkpt>
      <trkpt lat="45.48426" lon="5.89697">
        <ele>1188.39</ele>
        <time>2016-09-09T09:52:07Z</time>
      </trkpt>
      <trkpt lat="45.48413" lon="5.89716">
        <ele>1188.27</ele>
        <time>2016-09-09T09:52:53Z</time>
      </trkpt>
      <trkpt lat="45.48405" lon="5.89741">
        <ele>1186.86</ele>
        <time>2016-09-09T09:53:01Z</time>
      </trkpt>
      <trkpt lat="45.48397" lon="5.89764">
        <ele>1184.97</ele>
        <time>2016-09-09T09:53:14Z</time>
      </trkpt>
      <trkpt lat="45.48385" lon="5.89784">
        <ele>1182.24</ele>
        <time>2016-09-09T09:54:01Z</time>
      </trkpt>
      <trkpt lat="45.48365" lon="5.89793">
        <ele>1181.25</ele>
        <time>2016-09-09T09:54:05Z</time>
      </trkpt>
      <trkpt lat="45.48349" lon="5.89811">
        <ele>1180.84</ele>
        <time>2016-09-09T09:54:10Z</time>
      </trkpt>
      <trkpt lat="45.48334" lon="5.89829">
        <ele>1180.22</ele>
        <time>2016-09-09T09:54:15Z</time>
      </trkpt>
      <trkpt lat="45.48319" lon="5.89852">
        <ele>1179.78</ele>
        <time>2016-09-09T09:54:21Z</time>
      </trkpt>
      <trkpt lat="45.48303" lon="5.89867">
        <ele>1178.77</ele>
        <time>2016-09-09T09:54:35Z</time>
      </trkpt>
      <trkpt lat="45.48287" lon="5.89882">
        <ele>1178</ele>
        <time>2016-09-09T09:54:40Z</time>
      </trkpt>
      <trkpt lat="45.48271" lon="5.89897">
        <ele>1177.06</ele>
        <time>2016-09-09T09:54:44Z</time>
      </trkpt>
      <trkpt lat="45.48253" lon="5.8991">
        <ele>1177.01</ele>
        <time>2016-09-09T09:54:49Z</time>
      </trkpt>
      <trkpt lat="45.48233" lon="5.89921">
        <ele>1176.86</ele>
        <time>2016-09-09T09:54:55Z</time>
      </trkpt>
      <trkpt lat="45.48215" lon="5.89932">
        <ele>1176.96</ele>
        <time>2016-09-09T09:55:01Z</time>
      </trkpt>
      <trkpt lat="45.48198" lon="5.89942">
        <ele>1177.21</ele>
        <time>2016-09-09T09:55:07Z</time>
      </trkpt>
      <trkpt lat="45.4818" lon="5.89951">
        <ele>1177.53</ele>
        <time>2016-09-09T09:55:14Z</time>
      </trkpt>
      <trkpt lat="45.48162" lon="5.89954">
        <ele>1177.7</ele>
        <time>2016-09-09T09:55:21Z</time>
      </trkpt>
      <trkpt lat="45.48142" lon="5.89964">
        <ele>1177.61</ele>
        <time>2016-09-09T09:55:27Z</time>
      </trkpt>
      <trkpt lat="45.48125" lon="5.89973">
        <ele>1177.23</ele>
        <time>2016-09-09T09:55:32Z</time>
      </trkpt>
      <trkpt lat="45.48106" lon="5.89981">
        <ele>1177.4</ele>
        <time>2016-09-09T09:55:37Z</time>
      </trkpt>
      <trkpt lat="45.48087" lon="5.89991">
        <ele>1178.5</ele>
        <time>2016-09-09T09:55:43Z</time>
      </trkpt>
      <trkpt lat="45.48068" lon="5.89999">
        <ele>1180.1</ele>
        <time>2016-09-09T09:55:50Z</time>
      </trkpt>
      <trkpt lat="45.48049" lon="5.90004">
        <ele>1181.5</ele>
        <time>2016-09-09T09:55:57Z</time>
      </trkpt>
      <trkpt lat="45.4803" lon="5.9001">
        <ele>1183.04</ele>
        <time>2016-09-09T09:56:04Z</time>
      </trkpt>
      <trkpt lat="45.48011" lon="5.90017">
        <ele>1184.17</ele>
        <time>2016-09-09T09:56:10Z</time>
      </trkpt>
      <trkpt lat="45.47994" lon="5.90034">
        <ele>1183.99</ele>
        <time>2016-09-09T09:57:56Z</time>
      </trkpt>
      <trkpt lat="45.47975" lon="5.90033">
        <ele>1184.36</ele>
        <time>2016-09-09T09:58:02Z</time>
      </trkpt>
      <trkpt lat="45.47957" lon="5.90042">
        <ele>1184.89</ele>
        <time>2016-09-09T09:58:10Z</time>
      </trkpt>
      <trkpt lat="45.47939" lon="5.9005">
        <ele>1185.37</ele>
        <time>2016-09-09T09:58:16Z</time>
      </trkpt>
      <trkpt lat="45.47921" lon="5.90055">
        <ele>1186.14</ele>
        <time>2016-09-09T09:58:24Z</time>
      </trkpt>
      <trkpt lat="45.47899" lon="5.90048">
        <ele>1183.84</ele>
        <time>2016-09-09T09:58:29Z</time>
      </trkpt>
      <trkpt lat="45.47882" lon="5.90032">
        <ele>1180.17</ele>
        <time>2016-09-09T09:58:35Z</time>
      </trkpt>
      <trkpt lat="45.47858" lon="5.90025">
        <ele>1177.4</ele>
        <time>2016-09-09T09:58:42Z</time>
      </trkpt>
      <trkpt lat="45.47839" lon="5.90019">
        <ele>1175.66</ele>
        <time>2016-09-09T09:58:45Z</time>
      </trkpt>
      <trkpt lat="45.47827" lon="5.89998">
        <ele>1174.37</ele>
        <time>2016-09-09T09:58:49Z</time>
      </trkpt>
      <trkpt lat="45.47812" lon="5.8998">
        <ele>1173</ele>
        <time>2016-09-09T09:58:54Z</time>
      </trkpt>
      <trkpt lat="45.47792" lon="5.89973">
        <ele>1171.64</ele>
        <time>2016-09-09T09:58:58Z</time>
      </trkpt>
      <trkpt lat="45.47772" lon="5.89963">
        <ele>1170.53</ele>
        <time>2016-09-09T09:59:02Z</time>
      </trkpt>
      <trkpt lat="45.47755" lon="5.89956">
        <ele>1169.2</ele>
        <time>2016-09-09T09:59:05Z</time>
      </trkpt>
      <trkpt lat="45.4774" lon="5.8994">
        <ele>1166.84</ele>
        <time>2016-09-09T09:59:09Z</time>
      </trkpt>
      <trkpt lat="45.47722" lon="5.8993">
        <ele>1161.96</ele>
        <time>2016-09-09T09:59:14Z</time>
      </trkpt>
      <trkpt lat="45.47701" lon="5.89923">
        <ele>1155.45</ele>
        <time>2016-09-09T09:59:19Z</time>
      </trkpt>
      <trkpt lat="45.47687" lon="5.89906">
        <ele>1149.7</ele>
        <time>2016-09-09T09:59:24Z</time>
      </trkpt>
      <trkpt lat="45.47668" lon="5.89892">
        <ele>1143.49</ele>
        <time>2016-09-09T09:59:30Z</time>
      </trkpt>
      <trkpt lat="45.47656" lon="5.89874">
        <ele>1140.45</ele>
        <time>2016-09-09T10:00:19Z</time>
      </trkpt>
      <trkpt lat="45.47642" lon="5.89857">
        <ele>1138.83</ele>
        <time>2016-09-09T10:00:26Z</time>
      </trkpt>
      <trkpt lat="45.4763" lon="5.89834">
        <ele>1134.14</ele>
        <time>2016-09-09T10:00:31Z</time>
      </trkpt>
      <trkpt lat="45.47616" lon="5.89813">
        <ele>1129.19</ele>
        <time>2016-09-09T10:00:36Z</time>
      </trkpt>
      <trkpt lat="45.47602" lon="5.89795">
        <ele>1126.05</ele>
        <time>2016-09-09T10:00:39Z</time>
      </trkpt>
      <trkpt lat="45.47586" lon="5.89776">
        <ele>1120.85</ele>
        <time>2016-09-09T10:00:45Z</time>
      </trkpt>
      <trkpt lat="45.47565" lon="5.89766">
        <ele>1118.58</ele>
        <time>2016-09-09T10:00:49Z</time>
      </trkpt>
      <trkpt lat="45.47545" lon="5.89754">
        <ele>1116.77</ele>
        <time>2016-09-09T10:00:52Z</time>
      </trkpt>
      <trkpt lat="45.47525" lon="5.8975">
        <ele>1114.39</ele>
        <time>2016-09-09T10:00:54Z</time>
      </trkpt>
      <trkpt lat="45.47503" lon="5.89745">
        <ele>1111.72</ele>
        <time>2016-09-09T10:00:58Z</time>
      </trkpt>
      <trkpt lat="45.47489" lon="5.89723">
        <ele>1106.82</ele>
        <time>2016-09-09T10:01:02Z</time>
      </trkpt>
      <trkpt lat="45.47472" lon="5.89712">
        <ele>1099.5</ele>
        <time>2016-09-09T10:01:08Z</time>
      </trkpt>
      <trkpt lat="45.47457" lon="5.89695">
        <ele>1092.92</ele>
        <time>2016-09-09T10:01:14Z</time>
      </trkpt>
      <trkpt lat="45.47442" lon="5.8968">
        <ele>1087.15</ele>
        <time>2016-09-09T10:01:20Z</time>
      </trkpt>
      <trkpt lat="45.47424" lon="5.89673">
        <ele>1084.82</ele>
        <time>2016-09-09T10:01:24Z</time>
      </trkpt>
      <trkpt lat="45.47404" lon="5.89686">
        <ele>1084.36</ele>
        <time>2016-09-09T10:01:29Z</time>
      </trkpt>
      <trkpt lat="45.47383" lon="5.89696">
        <ele>1082.94</ele>
        <time>2016-09-09T10:01:34Z</time>
      </trkpt>
      <trkpt lat="45.47366" lon="5.89706">
        <ele>1075.59</ele>
        <time>2016-09-09T10:01:39Z</time>
      </trkpt>
      <trkpt lat="45.4737" lon="5.89732">
        <ele>1070.67</ele>
        <time>2016-09-09T10:01:43Z</time>
      </trkpt>
      <trkpt lat="45.47381" lon="5.89759">
        <ele>1065.13</ele>
        <time>2016-09-09T10:01:47Z</time>
      </trkpt>
      <trkpt lat="45.47381" lon="5.89793">
        <ele>1058.21</ele>
        <time>2016-09-09T10:01:53Z</time>
      </trkpt>
      <trkpt lat="45.47375" lon="5.89824">
        <ele>1053.4</ele>
        <time>2016-09-09T10:01:56Z</time>
      </trkpt>
      <trkpt lat="45.4737" lon="5.89851">
        <ele>1046.99</ele>
        <time>2016-09-09T10:01:59Z</time>
      </trkpt>
      <trkpt lat="45.4736" lon="5.89876">
        <ele>1041.55</ele>
        <time>2016-09-09T10:02:04Z</time>
      </trkpt>
      <trkpt lat="45.4734" lon="5.89876">
        <ele>1039.1</ele>
        <time>2016-09-09T10:02:07Z</time>
      </trkpt>
      <trkpt lat="45.47319" lon="5.89885">
        <ele>1038.07</ele>
        <time>2016-09-09T10:02:11Z</time>
      </trkpt>
      <trkpt lat="45.473" lon="5.89896">
        <ele>1037.72</ele>
        <time>2016-09-09T10:02:16Z</time>
      </trkpt>
      <trkpt lat="45.47278" lon="5.89895">
        <ele>1034.09</ele>
        <time>2016-09-09T10:02:21Z</time>
      </trkpt>
      <trkpt lat="45.4726" lon="5.89907">
        <ele>1029.54</ele>
        <time>2016-09-09T10:03:21Z</time>
      </trkpt>
      <trkpt lat="45.47248" lon="5.89926">
        <ele>1026.49</ele>
        <time>2016-09-09T10:03:26Z</time>
      </trkpt>
      <trkpt lat="45.47238" lon="5.89949">
        <ele>1021.78</ele>
        <time>2016-09-09T10:03:32Z</time>
      </trkpt>
      <trkpt lat="45.47232" lon="5.89979">
        <ele>1016.22</ele>
        <time>2016-09-09T10:03:37Z</time>
      </trkpt>
      <trkpt lat="45.47232" lon="5.90006">
        <ele>1011.08</ele>
        <time>2016-09-09T10:03:43Z</time>
      </trkpt>
      <trkpt lat="45.47235" lon="5.90035">
        <ele>1005.54</ele>
        <time>2016-09-09T10:03:49Z</time>
      </trkpt>
      <trkpt lat="45.47217" lon="5.90041">
        <ele>997.41</ele>
        <time>2016-09-09T10:04:00Z</time>
      </trkpt>
      <trkpt lat="45.47199" lon="5.90034">
        <ele>999.93</ele>
        <time>2016-09-09T10:04:05Z</time>
      </trkpt>
      <trkpt lat="45.47181" lon="5.9005">
        <ele>1002.48</ele>
        <time>2016-09-09T10:04:37Z</time>
      </trkpt>
      <trkpt lat="45.47162" lon="5.90057">
        <ele>1002.03</ele>
        <time>2016-09-09T10:04:43Z</time>
      </trkpt>
      <trkpt lat="45.47143" lon="5.90064">
        <ele>1000.05</ele>
        <time>2016-09-09T10:04:47Z</time>
      </trkpt>
      <trkpt lat="45.47124" lon="5.9007">
        <ele>1000.96</ele>
        <time>2016-09-09T10:04:53Z</time>
      </trkpt>
      <trkpt lat="45.47106" lon="5.90077">
        <ele>1002.52</ele>
        <time>2016-09-09T10:05:00Z</time>
      </trkpt>
      <trkpt lat="45.47089" lon="5.90084">
        <ele>1003.11</ele>
        <time>2016-09-09T10:05:07Z</time>
      </trkpt>
      <trkpt lat="45.47069" lon="5.90089">
        <ele>1003.81</ele>
        <time>2016-09-09T10:05:14Z</time>
      </trkpt>
      <trkpt lat="45.47049" lon="5.90094">
        <ele>1006.18</ele>
        <time>2016-09-09T10:05:22Z</time>
      </trkpt>
      <trkpt lat="45.47049" lon="5.9012">
        <ele>1010.46</ele>
        <time>2016-09-09T10:05:34Z</time>
      </trkpt>
      <trkpt lat="45.47057" lon="5.90143">
        <ele>1014.55</ele>
        <time>2016-09-09T10:05:43Z</time>
      </trkpt>
      <trkpt lat="45.47068" lon="5.90163">
        <ele>1017.07</ele>
        <time>2016-09-09T10:05:52Z</time>
      </trkpt>
      <trkpt lat="45.47083" lon="5.90178">
        <ele>1019.08</ele>
        <time>2016-09-09T10:06:02Z</time>
      </trkpt>
      <trkpt lat="45.471" lon="5.90189">
        <ele>1021.04</ele>
        <time>2016-09-09T10:06:14Z</time>
      </trkpt>
      <trkpt lat="45.47119" lon="5.90197">
        <ele>1022.43</ele>
        <time>2016-09-09T10:06:23Z</time>
      </trkpt>
      <trkpt lat="45.47138" lon="5.90204">
        <ele>1024.23</ele>
        <time>2016-09-09T10:06:33Z</time>
      </trkpt>
      <trkpt lat="45.47154" lon="5.90219">
        <ele>1026.28</ele>
        <time>2016-09-09T10:06:42Z</time>
      </trkpt>
      <trkpt lat="45.47168" lon="5.90237">
        <ele>1027.41</ele>
        <time>2016-09-09T10:06:51Z</time>
      </trkpt>
      <trkpt lat="45.47178" lon="5.9026">
        <ele>1029.6</ele>
        <time>2016-09-09T10:07:00Z</time>
      </trkpt>
      <trkpt lat="45.47186" lon="5.90284">
        <ele>1031.6</ele>
        <time>2016-09-09T10:07:09Z</time>
      </trkpt>
      <trkpt lat="45.47192" lon="5.9031">
        <ele>1033.47</ele>
        <time>2016-09-09T10:07:17Z</time>
      </trkpt>
      <trkpt lat="45.47197" lon="5.90337">
        <ele>1035.3</ele>
        <time>2016-09-09T10:07:26Z</time>
      </trkpt>
      <trkpt lat="45.47204" lon="5.90363">
        <ele>1036.74</ele>
        <time>2016-09-09T10:07:35Z</time>
      </trkpt>
      <trkpt lat="45.47201" lon="5.90389">
        <ele>1038.21</ele>
        <time>2016-09-09T10:07:46Z</time>
      </trkpt>
      <trkpt lat="45.47189" lon="5.90413">
        <ele>1040.61</ele>
        <time>2016-09-09T10:07:55Z</time>
      </trkpt>
      <trkpt lat="45.47183" lon="5.90439">
        <ele>1043.51</ele>
        <time>2016-09-09T10:08:05Z</time>
      </trkpt>
      <trkpt lat="45.4718" lon="5.90467">
        <ele>1045.86</ele>
        <time>2016-09-09T10:08:14Z</time>
      </trkpt>
      <trkpt lat="45.47181" lon="5.90493">
        <ele>1048.34</ele>
        <time>2016-09-09T10:08:24Z</time>
      </trkpt>
      <trkpt lat="45.47179" lon="5.90518">
        <ele>1051.2</ele>
        <time>2016-09-09T10:08:34Z</time>
      </trkpt>
      <trkpt lat="45.47186" lon="5.90542">
        <ele>1053.88</ele>
        <time>2016-09-09T10:08:43Z</time>
      </trkpt>
      <trkpt lat="45.47201" lon="5.90557">
        <ele>1054.74</ele>
        <time>2016-09-09T10:08:50Z</time>
      </trkpt>
      <trkpt lat="45.47219" lon="5.90566">
        <ele>1056.07</ele>
        <time>2016-09-09T10:08:57Z</time>
      </trkpt>
      <trkpt lat="45.47239" lon="5.90572">
        <ele>1056.49</ele>
        <time>2016-09-09T10:09:04Z</time>
      </trkpt>
      <trkpt lat="45.47259" lon="5.90583">
        <ele>1056.84</ele>
        <time>2016-09-09T10:09:11Z</time>
      </trkpt>
      <trkpt lat="45.47274" lon="5.90599">
        <ele>1056.99</ele>
        <time>2016-09-09T10:09:17Z</time>
      </trkpt>
      <trkpt lat="45.47289" lon="5.90616">
        <ele>1057.04</ele>
        <time>2016-09-09T10:09:23Z</time>
      </trkpt>
      <trkpt lat="45.47304" lon="5.9063">
        <ele>1057.47</ele>
        <time>2016-09-09T10:09:28Z</time>
      </trkpt>
      <trkpt lat="45.47322" lon="5.90646">
        <ele>1057.89</ele>
        <time>2016-09-09T10:09:34Z</time>
      </trkpt>
      <trkpt lat="45.47339" lon="5.90657">
        <ele>1058.05</ele>
        <time>2016-09-09T10:09:39Z</time>
      </trkpt>
      <trkpt lat="45.47358" lon="5.9067">
        <ele>1057.91</ele>
        <time>2016-09-09T10:09:45Z</time>
      </trkpt>
      <trkpt lat="45.47377" lon="5.90682">
        <ele>1058.29</ele>
        <time>2016-09-09T10:09:51Z</time>
      </trkpt>
      <trkpt lat="45.47398" lon="5.90688">
        <ele>1058.52</ele>
        <time>2016-09-09T10:09:57Z</time>
      </trkpt>
      <trkpt lat="45.47417" lon="5.90684">
        <ele>1059.07</ele>
        <time>2016-09-09T10:10:02Z</time>
      </trkpt>
      <trkpt lat="45.47437" lon="5.90677">
        <ele>1060.1</ele>
        <time>2016-09-09T10:10:08Z</time>
      </trkpt>
      <trkpt lat="45.47455" lon="5.90668">
        <ele>1060.96</ele>
        <time>2016-09-09T10:10:14Z</time>
      </trkpt>
      <trkpt lat="45.47471" lon="5.90651">
        <ele>1061.61</ele>
        <time>2016-09-09T10:10:20Z</time>
      </trkpt>
      <trkpt lat="45.47485" lon="5.90634">
        <ele>1062.01</ele>
        <time>2016-09-09T10:11:04Z</time>
      </trkpt>
      <trkpt lat="45.47504" lon="5.90629">
        <ele>1062.78</ele>
        <time>2016-09-09T10:11:10Z</time>
      </trkpt>
      <trkpt lat="45.47519" lon="5.90647">
        <ele>1065.41</ele>
        <time>2016-09-09T10:11:20Z</time>
      </trkpt>
      <trkpt lat="45.47532" lon="5.90668">
        <ele>1066.82</ele>
        <time>2016-09-09T10:11:28Z</time>
      </trkpt>
      <trkpt lat="45.47543" lon="5.90693">
        <ele>1068.69</ele>
        <time>2016-09-09T10:11:36Z</time>
      </trkpt>
      <trkpt lat="45.47552" lon="5.90718">
        <ele>1070.34</ele>
        <time>2016-09-09T10:11:44Z</time>
      </trkpt>
      <trkpt lat="45.47561" lon="5.90743">
        <ele>1072.59</ele>
        <time>2016-09-09T10:11:53Z</time>
      </trkpt>
      <trkpt lat="45.47573" lon="5.90763">
        <ele>1073.95</ele>
        <time>2016-09-09T10:12:01Z</time>
      </trkpt>
      <trkpt lat="45.47587" lon="5.9078">
        <ele>1075.88</ele>
        <time>2016-09-09T10:12:09Z</time>
      </trkpt>
      <trkpt lat="45.47601" lon="5.90797">
        <ele>1077.53</ele>
        <time>2016-09-09T10:12:17Z</time>
      </trkpt>
      <trkpt lat="45.47615" lon="5.90818">
        <ele>1079.46</ele>
        <time>2016-09-09T10:12:26Z</time>
      </trkpt>
      <trkpt lat="45.47629" lon="5.90838">
        <ele>1081.04</ele>
        <time>2016-09-09T10:12:34Z</time>
      </trkpt>
      <trkpt lat="45.47644" lon="5.90855">
        <ele>1082.78</ele>
        <time>2016-09-09T10:12:42Z</time>
      </trkpt>
      <trkpt lat="45.47658" lon="5.90871">
        <ele>1084.19</ele>
        <time>2016-09-09T10:12:50Z</time>
      </trkpt>
      <trkpt lat="45.47673" lon="5.90888">
        <ele>1085.9</ele>
        <time>2016-09-09T10:12:58Z</time>
      </trkpt>
      <trkpt lat="45.47688" lon="5.90907">
        <ele>1087.56</ele>
        <time>2016-09-09T10:13:06Z</time>
      </trkpt>
      <trkpt lat="45.47701" lon="5.90928">
        <ele>1089.32</ele>
        <time>2016-09-09T10:13:13Z</time>
      </trkpt>
      <trkpt lat="45.47712" lon="5.9095">
        <ele>1091.39</ele>
        <time>2016-09-09T10:13:21Z</time>
      </trkpt>
      <trkpt lat="45.47725" lon="5.9097">
        <ele>1093.11</ele>
        <time>2016-09-09T10:13:30Z</time>
      </trkpt>
      <trkpt lat="45.47741" lon="5.90983">
        <ele>1094.53</ele>
        <time>2016-09-09T10:13:39Z</time>
      </trkpt>
      <trkpt lat="45.47757" lon="5.90996">
        <ele>1096.71</ele>
        <time>2016-09-09T10:13:50Z</time>
      </trkpt>
      <trkpt lat="45.47772" lon="5.91012">
        <ele>1098.03</ele>
        <time>2016-09-09T10:13:58Z</time>
      </trkpt>
      <trkpt lat="45.47783" lon="5.91035">
        <ele>1099.6</ele>
        <time>2016-09-09T10:14:06Z</time>
      </trkpt>
      <trkpt lat="45.47793" lon="5.91058">
        <ele>1100.97</ele>
        <time>2016-09-09T10:14:14Z</time>
      </trkpt>
      <trkpt lat="45.47802" lon="5.91082">
        <ele>1102.71</ele>
        <time>2016-09-09T10:14:22Z</time>
      </trkpt>
      <trkpt lat="45.47811" lon="5.91105">
        <ele>1104.21</ele>
        <time>2016-09-09T10:14:30Z</time>
      </trkpt>
      <trkpt lat="45.47821" lon="5.91128">
        <ele>1106.07</ele>
        <time>2016-09-09T10:14:38Z</time>
      </trkpt>
      <trkpt lat="45.4783" lon="5.91153">
        <ele>1107.75</ele>
        <time>2016-09-09T10:14:47Z</time>
      </trkpt>
      <trkpt lat="45.4784" lon="5.91176">
        <ele>1109.25</ele>
        <time>2016-09-09T10:14:55Z</time>
      </trkpt>
      <trkpt lat="45.47852" lon="5.912">
        <ele>1111.02</ele>
        <time>2016-09-09T10:15:04Z</time>
      </trkpt>
      <trkpt lat="45.47862" lon="5.91222">
        <ele>1112.56</ele>
        <time>2016-09-09T10:15:12Z</time>
      </trkpt>
      <trkpt lat="45.47874" lon="5.91243">
        <ele>1114.1</ele>
        <time>2016-09-09T10:15:20Z</time>
      </trkpt>
      <trkpt lat="45.47886" lon="5.91265">
        <ele>1116.09</ele>
        <time>2016-09-09T10:15:29Z</time>
      </trkpt>
      <trkpt lat="45.47901" lon="5.91283">
        <ele>1117.3</ele>
        <time>2016-09-09T10:15:37Z</time>
      </trkpt>
      <trkpt lat="45.47914" lon="5.913">
        <ele>1118.09</ele>
        <time>2016-09-09T10:15:44Z</time>
      </trkpt>
      <trkpt lat="45.47927" lon="5.91319">
        <ele>1119.15</ele>
        <time>2016-09-09T10:15:51Z</time>
      </trkpt>
      <trkpt lat="45.4794" lon="5.91342">
        <ele>1120.16</ele>
        <time>2016-09-09T10:15:59Z</time>
      </trkpt>
      <trkpt lat="45.47954" lon="5.91363">
        <ele>1121.02</ele>
        <time>2016-09-09T10:16:06Z</time>
      </trkpt>
      <trkpt lat="45.47967" lon="5.91383">
        <ele>1121.46</ele>
        <time>2016-09-09T10:16:13Z</time>
      </trkpt>
      <trkpt lat="45.47979" lon="5.91404">
        <ele>1122.48</ele>
        <time>2016-09-09T10:16:20Z</time>
      </trkpt>
      <trkpt lat="45.47993" lon="5.91425">
        <ele>1123.28</ele>
        <time>2016-09-09T10:16:27Z</time>
      </trkpt>
      <trkpt lat="45.48005" lon="5.91445">
        <ele>1124.21</ele>
        <time>2016-09-09T10:16:34Z</time>
      </trkpt>
      <trkpt lat="45.48019" lon="5.91466">
        <ele>1124.89</ele>
        <time>2016-09-09T10:16:42Z</time>
      </trkpt>
      <trkpt lat="45.48032" lon="5.91485">
        <ele>1125.71</ele>
        <time>2016-09-09T10:16:50Z</time>
      </trkpt>
      <trkpt lat="45.48048" lon="5.91501">
        <ele>1126.07</ele>
        <time>2016-09-09T10:16:58Z</time>
      </trkpt>
      <trkpt lat="45.48065" lon="5.91517">
        <ele>1124.52</ele>
        <time>2016-09-09T10:17:08Z</time>
      </trkpt>
      <trkpt lat="45.48085" lon="5.91526">
        <ele>1123.06</ele>
        <time>2016-09-09T10:17:13Z</time>
      </trkpt>
      <trkpt lat="45.48103" lon="5.91529">
        <ele>1121.32</ele>
        <time>2016-09-09T10:17:36Z</time>
      </trkpt>
      <trkpt lat="45.48123" lon="5.91524">
        <ele>1120.13</ele>
        <time>2016-09-09T10:17:42Z</time>
      </trkpt>
      <trkpt lat="45.48142" lon="5.91527">
        <ele>1118.4</ele>
        <time>2016-09-09T10:17:45Z</time>
      </trkpt>
      <trkpt lat="45.48163" lon="5.91548">
        <ele>1116.07</ele>
        <time>2016-09-09T10:17:48Z</time>
      </trkpt>
      <trkpt lat="45.48173" lon="5.91574">
        <ele>1113.88</ele>
        <time>2016-09-09T10:17:50Z</time>
      </trkpt>
      <trkpt lat="45.48184" lon="5.91598">
        <ele>1111.69</ele>
        <time>2016-09-09T10:17:52Z</time>
      </trkpt>
      <trkpt lat="45.482" lon="5.91621">
        <ele>1109.6</ele>
        <time>2016-09-09T10:17:54Z</time>
      </trkpt>
      <trkpt lat="45.48209" lon="5.91648">
        <ele>1107.45</ele>
        <time>2016-09-09T10:17:56Z</time>
      </trkpt>
      <trkpt lat="45.48211" lon="5.91679">
        <ele>1105.13</ele>
        <time>2016-09-09T10:17:58Z</time>
      </trkpt>
      <trkpt lat="45.48203" lon="5.91708">
        <ele>1102.78</ele>
        <time>2016-09-09T10:18:00Z</time>
      </trkpt>
      <trkpt lat="45.48193" lon="5.91731">
        <ele>1100.59</ele>
        <time>2016-09-09T10:18:02Z</time>
      </trkpt>
      <trkpt lat="45.48176" lon="5.91749">
        <ele>1098.23</ele>
        <time>2016-09-09T10:18:05Z</time>
      </trkpt>
      <trkpt lat="45.48157" lon="5.91732">
        <ele>1096.41</ele>
        <time>2016-09-09T10:18:07Z</time>
      </trkpt>
      <trkpt lat="45.4813" lon="5.91729">
        <ele>1094.15</ele>
        <time>2016-09-09T10:18:10Z</time>
      </trkpt>
      <trkpt lat="45.4811" lon="5.91731">
        <ele>1092.42</ele>
        <time>2016-09-09T10:18:12Z</time>
      </trkpt>
      <trkpt lat="45.48089" lon="5.91734">
        <ele>1090.3</ele>
        <time>2016-09-09T10:18:14Z</time>
      </trkpt>
      <trkpt lat="45.48065" lon="5.91745">
        <ele>1088.01</ele>
        <time>2016-09-09T10:18:17Z</time>
      </trkpt>
      <trkpt lat="45.48054" lon="5.91767">
        <ele>1086.64</ele>
        <time>2016-09-09T10:18:19Z</time>
      </trkpt>
      <trkpt lat="45.48039" lon="5.91798">
        <ele>1084.11</ele>
        <time>2016-09-09T10:18:22Z</time>
      </trkpt>
      <trkpt lat="45.4802" lon="5.91806">
        <ele>1082.41</ele>
        <time>2016-09-09T10:18:24Z</time>
      </trkpt>
      <trkpt lat="45.48003" lon="5.9182">
        <ele>1081.05</ele>
        <time>2016-09-09T10:18:26Z</time>
      </trkpt>
      <trkpt lat="45.48007" lon="5.91852">
        <ele>1078.78</ele>
        <time>2016-09-09T10:18:29Z</time>
      </trkpt>
      <trkpt lat="45.48028" lon="5.91865">
        <ele>1075.61</ele>
        <time>2016-09-09T10:18:32Z</time>
      </trkpt>
      <trkpt lat="45.48051" lon="5.9186">
        <ele>1073.71</ele>
        <time>2016-09-09T10:18:34Z</time>
      </trkpt>
      <trkpt lat="45.48075" lon="5.91866">
        <ele>1071.35</ele>
        <time>2016-09-09T10:18:36Z</time>
      </trkpt>
      <trkpt lat="45.48098" lon="5.91873">
        <ele>1068.45</ele>
        <time>2016-09-09T10:18:38Z</time>
      </trkpt>
      <trkpt lat="45.48117" lon="5.91882">
        <ele>1065.83</ele>
        <time>2016-09-09T10:18:40Z</time>
      </trkpt>
      <trkpt lat="45.48142" lon="5.91888">
        <ele>1062.75</ele>
        <time>2016-09-09T10:18:43Z</time>
      </trkpt>
      <trkpt lat="45.48146" lon="5.91918">
        <ele>1058.88</ele>
        <time>2016-09-09T10:18:47Z</time>
      </trkpt>
      <trkpt lat="45.48129" lon="5.91944">
        <ele>1055.23</ele>
        <time>2016-09-09T10:18:50Z</time>
      </trkpt>
      <trkpt lat="45.48119" lon="5.91966">
        <ele>1052.61</ele>
        <time>2016-09-09T10:18:52Z</time>
      </trkpt>
      <trkpt lat="45.48103" lon="5.91987">
        <ele>1049.58</ele>
        <time>2016-09-09T10:18:54Z</time>
      </trkpt>
      <trkpt lat="45.48085" lon="5.92005">
        <ele>1046.21</ele>
        <time>2016-09-09T10:18:56Z</time>
      </trkpt>
      <trkpt lat="45.48062" lon="5.92025">
        <ele>1042.93</ele>
        <time>2016-09-09T10:18:59Z</time>
      </trkpt>
      <trkpt lat="45.48035" lon="5.92021">
        <ele>1039.88</ele>
        <time>2016-09-09T10:19:02Z</time>
      </trkpt>
      <trkpt lat="45.48015" lon="5.92013">
        <ele>1037.19</ele>
        <time>2016-09-09T10:19:04Z</time>
      </trkpt>
      <trkpt lat="45.47993" lon="5.92003">
        <ele>1034.78</ele>
        <time>2016-09-09T10:19:06Z</time>
      </trkpt>
      <trkpt lat="45.47967" lon="5.92007">
        <ele>1031.21</ele>
        <time>2016-09-09T10:19:09Z</time>
      </trkpt>
      <trkpt lat="45.47949" lon="5.92029">
        <ele>1028.21</ele>
        <time>2016-09-09T10:19:12Z</time>
      </trkpt>
      <trkpt lat="45.47936" lon="5.92051">
        <ele>1024.66</ele>
        <time>2016-09-09T10:19:31Z</time>
      </trkpt>
      <trkpt lat="45.4792" lon="5.92076">
        <ele>1022.37</ele>
        <time>2016-09-09T10:19:35Z</time>
      </trkpt>
      <trkpt lat="45.479" lon="5.92089">
        <ele>1020.51</ele>
        <time>2016-09-09T10:19:38Z</time>
      </trkpt>
      <trkpt lat="45.4788" lon="5.92102">
        <ele>1018.57</ele>
        <time>2016-09-09T10:19:40Z</time>
      </trkpt>
      <trkpt lat="45.47856" lon="5.92119">
        <ele>1015.4</ele>
        <time>2016-09-09T10:19:43Z</time>
      </trkpt>
      <trkpt lat="45.47831" lon="5.92128">
        <ele>1012.37</ele>
        <time>2016-09-09T10:19:46Z</time>
      </trkpt>
      <trkpt lat="45.47812" lon="5.92134">
        <ele>1009.82</ele>
        <time>2016-09-09T10:19:48Z</time>
      </trkpt>
      <trkpt lat="45.47791" lon="5.92144">
        <ele>1006.55</ele>
        <time>2016-09-09T10:19:50Z</time>
      </trkpt>
      <trkpt lat="45.4777" lon="5.92148">
        <ele>1003.51</ele>
        <time>2016-09-09T10:19:52Z</time>
      </trkpt>
      <trkpt lat="45.47746" lon="5.92159">
        <ele>1000.09</ele>
        <time>2016-09-09T10:19:54Z</time>
      </trkpt>
      <trkpt lat="45.47726" lon="5.92179">
        <ele>997.52</ele>
        <time>2016-09-09T10:19:57Z</time>
      </trkpt>
      <trkpt lat="45.47717" lon="5.92206">
        <ele>995.31</ele>
        <time>2016-09-09T10:19:59Z</time>
      </trkpt>
      <trkpt lat="45.47711" lon="5.92236">
        <ele>992.47</ele>
        <time>2016-09-09T10:20:01Z</time>
      </trkpt>
      <trkpt lat="45.47707" lon="5.92264">
        <ele>990.05</ele>
        <time>2016-09-09T10:20:03Z</time>
      </trkpt>
      <trkpt lat="45.47713" lon="5.9229">
        <ele>988.17</ele>
        <time>2016-09-09T10:20:05Z</time>
      </trkpt>
      <trkpt lat="45.47722" lon="5.92313">
        <ele>986.38</ele>
        <time>2016-09-09T10:20:07Z</time>
      </trkpt>
      <trkpt lat="45.47728" lon="5.92339">
        <ele>984.34</ele>
        <time>2016-09-09T10:20:09Z</time>
      </trkpt>
      <trkpt lat="45.47736" lon="5.92372">
        <ele>980.66</ele>
        <time>2016-09-09T10:20:12Z</time>
      </trkpt>
      <trkpt lat="45.47745" lon="5.92401">
        <ele>978.05</ele>
        <time>2016-09-09T10:20:15Z</time>
      </trkpt>
      <trkpt lat="45.47745" lon="5.92432">
        <ele>975.92</ele>
        <time>2016-09-09T10:20:18Z</time>
      </trkpt>
      <trkpt lat="45.47735" lon="5.92469">
        <ele>973.51</ele>
        <time>2016-09-09T10:20:21Z</time>
      </trkpt>
      <trkpt lat="45.47728" lon="5.92495">
        <ele>971.44</ele>
        <time>2016-09-09T10:20:23Z</time>
      </trkpt>
      <trkpt lat="45.47725" lon="5.92522">
        <ele>969.16</ele>
        <time>2016-09-09T10:20:25Z</time>
      </trkpt>
      <trkpt lat="45.47733" lon="5.92553">
        <ele>965.84</ele>
        <time>2016-09-09T10:20:28Z</time>
      </trkpt>
      <trkpt lat="45.4774" lon="5.92583">
        <ele>962.5</ele>
        <time>2016-09-09T10:20:32Z</time>
      </trkpt>
      <trkpt lat="45.4774" lon="5.92613">
        <ele>960.64</ele>
        <time>2016-09-09T10:20:35Z</time>
      </trkpt>
      <trkpt lat="45.47739" lon="5.92643">
        <ele>958.52</ele>
        <time>2016-09-09T10:20:38Z</time>
      </trkpt>
      <trkpt lat="45.47745" lon="5.92675">
        <ele>956.21</ele>
        <time>2016-09-09T10:20:41Z</time>
      </trkpt>
      <trkpt lat="45.47748" lon="5.92703">
        <ele>953.63</ele>
        <time>2016-09-09T10:20:44Z</time>
      </trkpt>
      <trkpt lat="45.47752" lon="5.92736">
        <ele>950.96</ele>
        <time>2016-09-09T10:20:47Z</time>
      </trkpt>
      <trkpt lat="45.47752" lon="5.92766">
        <ele>948.44</ele>
        <time>2016-09-09T10:20:50Z</time>
      </trkpt>
      <trkpt lat="45.47749" lon="5.92794">
        <ele>945.61</ele>
        <time>2016-09-09T10:20:54Z</time>
      </trkpt>
      <trkpt lat="45.47756" lon="5.92823">
        <ele>943.47</ele>
        <time>2016-09-09T10:20:58Z</time>
      </trkpt>
      <trkpt lat="45.47771" lon="5.9285">
        <ele>941.34</ele>
        <time>2016-09-09T10:21:01Z</time>
      </trkpt>
      <trkpt lat="45.47778" lon="5.92877">
        <ele>938.98</ele>
        <time>2016-09-09T10:21:04Z</time>
      </trkpt>
      <trkpt lat="45.47778" lon="5.92903">
        <ele>936.25</ele>
        <time>2016-09-09T10:21:10Z</time>
      </trkpt>
      <trkpt lat="45.47794" lon="5.92886">
        <ele>930.6</ele>
        <time>2016-09-09T10:21:29Z</time>
      </trkpt>
      <trkpt lat="45.4781" lon="5.9287">
        <ele>922.55</ele>
        <time>2016-09-09T10:21:39Z</time>
      </trkpt>
      <trkpt lat="45.47828" lon="5.92874">
        <ele>920.51</ele>
        <time>2016-09-09T10:21:46Z</time>
      </trkpt>
      <trkpt lat="45.47839" lon="5.92898">
        <ele>919.46</ele>
        <time>2016-09-09T10:21:51Z</time>
      </trkpt>
      <trkpt lat="45.47843" lon="5.92924">
        <ele>919.04</ele>
        <time>2016-09-09T10:22:02Z</time>
      </trkpt>
      <trkpt lat="45.47859" lon="5.92951">
        <ele>917.98</ele>
        <time>2016-09-09T10:22:10Z</time>
      </trkpt>
      <trkpt lat="45.47873" lon="5.92977">
        <ele>915.29</ele>
        <time>2016-09-09T10:22:14Z</time>
      </trkpt>
      <trkpt lat="45.4789" lon="5.92964">
        <ele>907.1</ele>
        <time>2016-09-09T10:22:23Z</time>
      </trkpt>
      <trkpt lat="45.47908" lon="5.92973">
        <ele>900.65</ele>
        <time>2016-09-09T10:22:28Z</time>
      </trkpt>
      <trkpt lat="45.47918" lon="5.92995">
        <ele>897.76</ele>
        <time>2016-09-09T10:22:32Z</time>
      </trkpt>
      <trkpt lat="45.47932" lon="5.93016">
        <ele>891.32</ele>
        <time>2016-09-09T10:22:37Z</time>
      </trkpt>
      <trkpt lat="45.47949" lon="5.93027">
        <ele>886</ele>
        <time>2016-09-09T10:22:41Z</time>
      </trkpt>
      <trkpt lat="45.47969" lon="5.93044">
        <ele>880.71</ele>
        <time>2016-09-09T10:22:45Z</time>
      </trkpt>
      <trkpt lat="45.47983" lon="5.93062">
        <ele>877.3</ele>
        <time>2016-09-09T10:22:53Z</time>
      </trkpt>
      <trkpt lat="45.47989" lon="5.93086">
        <ele>874.67</ele>
        <time>2016-09-09T10:22:57Z</time>
      </trkpt>
      <trkpt lat="45.47994" lon="5.93112">
        <ele>871.68</ele>
        <time>2016-09-09T10:23:02Z</time>
      </trkpt>
      <trkpt lat="45.47997" lon="5.9314">
        <ele>865.8</ele>
        <time>2016-09-09T10:23:13Z</time>
      </trkpt>
      <trkpt lat="45.4801" lon="5.93161">
        <ele>860.18</ele>
        <time>2016-09-09T10:23:21Z</time>
      </trkpt>
      <trkpt lat="45.48021" lon="5.93182">
        <ele>853.06</ele>
        <time>2016-09-09T10:23:32Z</time>
      </trkpt>
      <trkpt lat="45.48039" lon="5.93196">
        <ele>846.42</ele>
        <time>2016-09-09T10:23:40Z</time>
      </trkpt>
      <trkpt lat="45.48056" lon="5.93189">
        <ele>842.88</ele>
        <time>2016-09-09T10:23:52Z</time>
      </trkpt>
      <trkpt lat="45.48063" lon="5.93215">
        <ele>835.71</ele>
        <time>2016-09-09T10:24:04Z</time>
      </trkpt>
      <trkpt lat="45.4807" lon="5.93245">
        <ele>832.39</ele>
        <time>2016-09-09T10:24:11Z</time>
      </trkpt>
      <trkpt lat="45.48062" lon="5.93269">
        <ele>828.07</ele>
        <time>2016-09-09T10:24:18Z</time>
      </trkpt>
      <trkpt lat="45.48064" lon="5.93295">
        <ele>823.47</ele>
        <time>2016-09-09T10:24:25Z</time>
      </trkpt>
      <trkpt lat="45.48075" lon="5.93323">
        <ele>818.41</ele>
        <time>2016-09-09T10:24:32Z</time>
      </trkpt>
      <trkpt lat="45.48089" lon="5.93341">
        <ele>814.25</ele>
        <time>2016-09-09T10:24:38Z</time>
      </trkpt>
      <trkpt lat="45.48102" lon="5.93359">
        <ele>809.13</ele>
        <time>2016-09-09T10:24:43Z</time>
      </trkpt>
      <trkpt lat="45.48123" lon="5.93369">
        <ele>802.59</ele>
        <time>2016-09-09T10:25:43Z</time>
      </trkpt>
      <trkpt lat="45.48141" lon="5.93371">
        <ele>799.22</ele>
        <time>2016-09-09T10:25:46Z</time>
      </trkpt>
      <trkpt lat="45.48162" lon="5.93378">
        <ele>795.27</ele>
        <time>2016-09-09T10:25:51Z</time>
      </trkpt>
      <trkpt lat="45.4818" lon="5.93379">
        <ele>796.23</ele>
        <time>2016-09-09T10:25:58Z</time>
      </trkpt>
      <trkpt lat="45.48199" lon="5.93371">
        <ele>798.24</ele>
        <time>2016-09-09T10:26:06Z</time>
      </trkpt>
      <trkpt lat="45.48216" lon="5.93361">
        <ele>793.44</ele>
        <time>2016-09-09T10:26:18Z</time>
      </trkpt>
      <trkpt lat="45.4823" lon="5.93378">
        <ele>790.69</ele>
        <time>2016-09-09T10:26:39Z</time>
      </trkpt>
      <trkpt lat="45.4825" lon="5.93369">
        <ele>791.26</ele>
        <time>2016-09-09T10:28:09Z</time>
      </trkpt>
      <trkpt lat="45.48273" lon="5.93364">
        <ele>786.42</ele>
        <time>2016-09-09T10:28:13Z</time>
      </trkpt>
      <trkpt lat="45.48292" lon="5.93376">
        <ele>782.51</ele>
        <time>2016-09-09T10:28:17Z</time>
      </trkpt>
      <trkpt lat="45.48315" lon="5.93382">
        <ele>777.21</ele>
        <time>2016-09-09T10:28:21Z</time>
      </trkpt>
      <trkpt lat="45.48339" lon="5.93385">
        <ele>774.87</ele>
        <time>2016-09-09T10:28:24Z</time>
      </trkpt>
      <trkpt lat="45.48355" lon="5.93372">
        <ele>774.34</ele>
        <time>2016-09-09T10:28:27Z</time>
      </trkpt>
      <trkpt lat="45.48375" lon="5.93366">
        <ele>776.29</ele>
        <time>2016-09-09T10:28:35Z</time>
      </trkpt>
      <trkpt lat="45.48394" lon="5.93365">
        <ele>774.13</ele>
        <time>2016-09-09T10:28:40Z</time>
      </trkpt>
      <trkpt lat="45.48413" lon="5.93381">
        <ele>770.99</ele>
        <time>2016-09-09T10:28:45Z</time>
      </trkpt>
      <trkpt lat="45.48402" lon="5.93407">
        <ele>763.78</ele>
        <time>2016-09-09T10:28:53Z</time>
      </trkpt>
      <trkpt lat="45.48407" lon="5.93433">
        <ele>756.63</ele>
        <time>2016-09-09T10:29:04Z</time>
      </trkpt>
      <trkpt lat="45.48423" lon="5.93447">
        <ele>751.5</ele>
        <time>2016-09-09T10:29:09Z</time>
      </trkpt>
      <trkpt lat="45.48438" lon="5.93465">
        <ele>747.6</ele>
        <time>2016-09-09T10:29:12Z</time>
      </trkpt>
      <trkpt lat="45.48453" lon="5.93488">
        <ele>745.75</ele>
        <time>2016-09-09T10:29:16Z</time>
      </trkpt>
      <trkpt lat="45.4846" lon="5.93517">
        <ele>744.08</ele>
        <time>2016-09-09T10:29:20Z</time>
      </trkpt>
      <trkpt lat="45.48445" lon="5.9354">
        <ele>742.54</ele>
        <time>2016-09-09T10:29:26Z</time>
      </trkpt>
      <trkpt lat="45.48447" lon="5.93566">
        <ele>742.9</ele>
        <time>2016-09-09T10:32:06Z</time>
      </trkpt>
      <trkpt lat="45.48429" lon="5.93573">
        <ele>743.54</ele>
        <time>2016-09-09T10:32:23Z</time>
      </trkpt>
      <trkpt lat="45.48418" lon="5.93594">
        <ele>745.11</ele>
        <time>2016-09-09T10:32:34Z</time>
      </trkpt>
      <trkpt lat="45.48399" lon="5.93589">
        <ele>746.55</ele>
        <time>2016-09-09T10:32:54Z</time>
      </trkpt>
      <trkpt lat="45.4838" lon="5.93586">
        <ele>749.85</ele>
        <time>2016-09-09T10:33:05Z</time>
      </trkpt>
      <trkpt lat="45.48362" lon="5.93581">
        <ele>751.94</ele>
        <time>2016-09-09T10:33:16Z</time>
      </trkpt>
      <trkpt lat="45.48343" lon="5.93581">
        <ele>752.65</ele>
        <time>2016-09-09T10:33:25Z</time>
      </trkpt>
      <trkpt lat="45.48324" lon="5.93581">
        <ele>751.82</ele>
        <time>2016-09-09T10:33:33Z</time>
      </trkpt>
      <trkpt lat="45.48306" lon="5.93581">
        <ele>749.16</ele>
        <time>2016-09-09T10:33:40Z</time>
      </trkpt>
      <trkpt lat="45.48292" lon="5.93597">
        <ele>749.37</ele>
        <time>2016-09-09T10:33:50Z</time>
      </trkpt>
      <trkpt lat="45.48303" lon="5.93618">
        <ele>747.16</ele>
        <time>2016-09-09T10:34:00Z</time>
      </trkpt>
      <trkpt lat="45.48316" lon="5.93638">
        <ele>746.05</ele>
        <time>2016-09-09T10:34:03Z</time>
      </trkpt>
      <trkpt lat="45.48332" lon="5.9365">
        <ele>744.27</ele>
        <time>2016-09-09T10:34:06Z</time>
      </trkpt>
      <trkpt lat="45.48354" lon="5.93656">
        <ele>741.61</ele>
        <time>2016-09-09T10:34:11Z</time>
      </trkpt>
      <trkpt lat="45.48374" lon="5.93668">
        <ele>737.82</ele>
        <time>2016-09-09T10:34:15Z</time>
      </trkpt>
      <trkpt lat="45.48391" lon="5.93691">
        <ele>733.76</ele>
        <time>2016-09-09T10:34:19Z</time>
      </trkpt>
      <trkpt lat="45.48413" lon="5.93701">
        <ele>728.96</ele>
        <time>2016-09-09T10:34:24Z</time>
      </trkpt>
      <trkpt lat="45.48433" lon="5.93701">
        <ele>728</ele>
        <time>2016-09-09T10:34:28Z</time>
      </trkpt>
      <trkpt lat="45.48452" lon="5.93691">
        <ele>728.28</ele>
        <time>2016-09-09T10:34:33Z</time>
      </trkpt>
      <trkpt lat="45.4847" lon="5.93684">
        <ele>730.99</ele>
        <time>2016-09-09T10:34:41Z</time>
      </trkpt>
      <trkpt lat="45.48465" lon="5.93711">
        <ele>726.87</ele>
        <time>2016-09-09T10:34:48Z</time>
      </trkpt>
      <trkpt lat="45.48468" lon="5.93738">
        <ele>725.01</ele>
        <time>2016-09-09T10:34:52Z</time>
      </trkpt>
      <trkpt lat="45.48465" lon="5.93768">
        <ele>725.12</ele>
        <time>2016-09-09T10:34:57Z</time>
      </trkpt>
      <trkpt lat="45.48465" lon="5.93796">
        <ele>724.95</ele>
        <time>2016-09-09T10:35:02Z</time>
      </trkpt>
      <trkpt lat="45.48466" lon="5.93824">
        <ele>724.61</ele>
        <time>2016-09-09T10:35:08Z</time>
      </trkpt>
      <trkpt lat="45.48458" lon="5.9385">
        <ele>724.05</ele>
        <time>2016-09-09T10:35:14Z</time>
      </trkpt>
      <trkpt lat="45.48447" lon="5.93875">
        <ele>727.78</ele>
        <time>2016-09-09T10:35:26Z</time>
      </trkpt>
      <trkpt lat="45.48443" lon="5.939">
        <ele>723.87</ele>
        <time>2016-09-09T10:35:30Z</time>
      </trkpt>
      <trkpt lat="45.48456" lon="5.93923">
        <ele>719.17</ele>
        <time>2016-09-09T10:35:37Z</time>
      </trkpt>
      <trkpt lat="45.48463" lon="5.9395">
        <ele>713.52</ele>
        <time>2016-09-09T10:35:44Z</time>
      </trkpt>
      <trkpt lat="45.48452" lon="5.93977">
        <ele>709.29</ele>
        <time>2016-09-09T10:35:49Z</time>
      </trkpt>
      <trkpt lat="45.48449" lon="5.94003">
        <ele>704.18</ele>
        <time>2016-09-09T10:35:58Z</time>
      </trkpt>
      <trkpt lat="45.48444" lon="5.9403">
        <ele>698.8</ele>
        <time>2016-09-09T10:36:05Z</time>
      </trkpt>
      <trkpt lat="45.48449" lon="5.94057">
        <ele>696.38</ele>
        <time>2016-09-09T10:36:11Z</time>
      </trkpt>
      <trkpt lat="45.48455" lon="5.94082">
        <ele>694.94</ele>
        <time>2016-09-09T10:36:15Z</time>
      </trkpt>
      <trkpt lat="45.48459" lon="5.94111">
        <ele>694.77</ele>
        <time>2016-09-09T10:36:20Z</time>
      </trkpt>
      <trkpt lat="45.48462" lon="5.94143">
        <ele>695.28</ele>
        <time>2016-09-09T10:36:26Z</time>
      </trkpt>
      <trkpt lat="45.48459" lon="5.94172">
        <ele>695.54</ele>
        <time>2016-09-09T10:36:31Z</time>
      </trkpt>
      <trkpt lat="45.48459" lon="5.94199">
        <ele>696.2</ele>
        <time>2016-09-09T10:36:37Z</time>
      </trkpt>
      <trkpt lat="45.48453" lon="5.94227">
        <ele>696.01</ele>
        <time>2016-09-09T10:36:43Z</time>
      </trkpt>
      <trkpt lat="45.48447" lon="5.94257">
        <ele>695.88</ele>
        <time>2016-09-09T10:36:48Z</time>
      </trkpt>
      <trkpt lat="45.48444" lon="5.9429">
        <ele>694.23</ele>
        <time>2016-09-09T10:36:52Z</time>
      </trkpt>
      <trkpt lat="45.48441" lon="5.94324">
        <ele>692.31</ele>
        <time>2016-09-09T10:36:55Z</time>
      </trkpt>
      <trkpt lat="45.48431" lon="5.94347">
        <ele>691.5</ele>
        <time>2016-09-09T10:36:57Z</time>
      </trkpt>
      <trkpt lat="45.48424" lon="5.94374">
        <ele>691.03</ele>
        <time>2016-09-09T10:37:00Z</time>
      </trkpt>
      <trkpt lat="45.48419" lon="5.94402">
        <ele>691.88</ele>
        <time>2016-09-09T10:37:05Z</time>
      </trkpt>
      <trkpt lat="45.48415" lon="5.94429">
        <ele>690.69</ele>
        <time>2016-09-09T10:37:08Z</time>
      </trkpt>
      <trkpt lat="45.48403" lon="5.94454">
        <ele>686.77</ele>
        <time>2016-09-09T10:37:12Z</time>
      </trkpt>
      <trkpt lat="45.4839" lon="5.94476">
        <ele>682.73</ele>
        <time>2016-09-09T10:37:16Z</time>
      </trkpt>
      <trkpt lat="45.4837" lon="5.94475">
        <ele>678.43</ele>
        <time>2016-09-09T10:37:20Z</time>
      </trkpt>
      <trkpt lat="45.48348" lon="5.94495">
        <ele>674.38</ele>
        <time>2016-09-09T10:37:23Z</time>
      </trkpt>
      <trkpt lat="45.48326" lon="5.94512">
        <ele>673.05</ele>
        <time>2016-09-09T10:37:26Z</time>
      </trkpt>
      <trkpt lat="45.48306" lon="5.94513">
        <ele>672.98</ele>
        <time>2016-09-09T10:37:29Z</time>
      </trkpt>
      <trkpt lat="45.48285" lon="5.94518">
        <ele>674.78</ele>
        <time>2016-09-09T10:37:34Z</time>
      </trkpt>
      <trkpt lat="45.4827" lon="5.94536">
        <ele>673.99</ele>
        <time>2016-09-09T10:37:39Z</time>
      </trkpt>
      <trkpt lat="45.48254" lon="5.94555">
        <ele>670.75</ele>
        <time>2016-09-09T10:37:43Z</time>
      </trkpt>
      <trkpt lat="45.48236" lon="5.94579">
        <ele>667.47</ele>
        <time>2016-09-09T10:37:47Z</time>
      </trkpt>
      <trkpt lat="45.48224" lon="5.94599">
        <ele>664.66</ele>
        <time>2016-09-09T10:37:50Z</time>
      </trkpt>
      <trkpt lat="45.48217" lon="5.94623">
        <ele>663.98</ele>
        <time>2016-09-09T10:37:54Z</time>
      </trkpt>
      <trkpt lat="45.48202" lon="5.94645">
        <ele>664.01</ele>
        <time>2016-09-09T10:37:58Z</time>
      </trkpt>
      <trkpt lat="45.48185" lon="5.94657">
        <ele>663.97</ele>
        <time>2016-09-09T10:38:02Z</time>
      </trkpt>
      <trkpt lat="45.48169" lon="5.94676">
        <ele>664.17</ele>
        <time>2016-09-09T10:38:07Z</time>
      </trkpt>
      <trkpt lat="45.48153" lon="5.94689">
        <ele>665.95</ele>
        <time>2016-09-09T10:38:14Z</time>
      </trkpt>
      <trkpt lat="45.4814" lon="5.94709">
        <ele>666.77</ele>
        <time>2016-09-09T10:38:22Z</time>
      </trkpt>
      <trkpt lat="45.48125" lon="5.94727">
        <ele>668.26</ele>
        <time>2016-09-09T10:38:32Z</time>
      </trkpt>
      <trkpt lat="45.48106" lon="5.94737">
        <ele>668.93</ele>
        <time>2016-09-09T10:38:39Z</time>
      </trkpt>
      <trkpt lat="45.48087" lon="5.94742">
        <ele>671.27</ele>
        <time>2016-09-09T10:38:48Z</time>
      </trkpt>
      <trkpt lat="45.48069" lon="5.94753">
        <ele>671.79</ele>
        <time>2016-09-09T10:38:57Z</time>
      </trkpt>
      <trkpt lat="45.48057" lon="5.94774">
        <ele>671.09</ele>
        <time>2016-09-09T10:39:02Z</time>
      </trkpt>
      <trkpt lat="45.48056" lon="5.948">
        <ele>669.51</ele>
        <time>2016-09-09T10:39:07Z</time>
      </trkpt>
      <trkpt lat="45.48063" lon="5.94829">
        <ele>667.16</ele>
        <time>2016-09-09T10:39:12Z</time>
      </trkpt>
      <trkpt lat="45.4807" lon="5.94852">
        <ele>664.86</ele>
        <time>2016-09-09T10:39:20Z</time>
      </trkpt>
      <trkpt lat="45.48079" lon="5.94874">
        <ele>664.31</ele>
        <time>2016-09-09T10:39:25Z</time>
      </trkpt>
      <trkpt lat="45.48087" lon="5.949">
        <ele>664.51</ele>
        <time>2016-09-09T10:39:32Z</time>
      </trkpt>
      <trkpt lat="45.481" lon="5.94921">
        <ele>663.09</ele>
        <time>2016-09-09T10:39:38Z</time>
      </trkpt>
      <trkpt lat="45.48099" lon="5.94947">
        <ele>666.01</ele>
        <time>2016-09-09T10:39:47Z</time>
      </trkpt>
      <trkpt lat="45.48106" lon="5.94972">
        <ele>667.6</ele>
        <time>2016-09-09T10:39:55Z</time>
      </trkpt>
      <trkpt lat="45.48108" lon="5.94997">
        <ele>668.17</ele>
        <time>2016-09-09T10:40:03Z</time>
      </trkpt>
      <trkpt lat="45.48117" lon="5.95022">
        <ele>667.57</ele>
        <time>2016-09-09T10:40:10Z</time>
      </trkpt>
      <trkpt lat="45.48127" lon="5.95044">
        <ele>664.89</ele>
        <time>2016-09-09T10:40:14Z</time>
      </trkpt>
      <trkpt lat="45.48138" lon="5.95065">
        <ele>662.1</ele>
        <time>2016-09-09T10:40:18Z</time>
      </trkpt>
      <trkpt lat="45.48134" lon="5.95092">
        <ele>660.8</ele>
        <time>2016-09-09T10:40:22Z</time>
      </trkpt>
      <trkpt lat="45.48128" lon="5.95124">
        <ele>658.15</ele>
        <time>2016-09-09T10:40:27Z</time>
      </trkpt>
      <trkpt lat="45.48123" lon="5.95149">
        <ele>654.9</ele>
        <time>2016-09-09T10:40:32Z</time>
      </trkpt>
      <trkpt lat="45.48111" lon="5.95172">
        <ele>651.01</ele>
        <time>2016-09-09T10:40:39Z</time>
      </trkpt>
      <trkpt lat="45.48117" lon="5.95198">
        <ele>650.3</ele>
        <time>2016-09-09T10:40:46Z</time>
      </trkpt>
      <trkpt lat="45.48119" lon="5.95225">
        <ele>648.12</ele>
        <time>2016-09-09T10:40:54Z</time>
      </trkpt>
      <trkpt lat="45.48123" lon="5.9525">
        <ele>646.3</ele>
        <time>2016-09-09T10:40:59Z</time>
      </trkpt>
      <trkpt lat="45.48132" lon="5.95273">
        <ele>645.78</ele>
        <time>2016-09-09T10:41:07Z</time>
      </trkpt>
      <trkpt lat="45.48115" lon="5.9529">
        <ele>643.67</ele>
        <time>2016-09-09T10:41:36Z</time>
      </trkpt>
      <trkpt lat="45.48096" lon="5.95306">
        <ele>641.22</ele>
        <time>2016-09-09T10:41:44Z</time>
      </trkpt>
      <trkpt lat="45.48084" lon="5.95329">
        <ele>639.07</ele>
        <time>2016-09-09T10:41:47Z</time>
      </trkpt>
      <trkpt lat="45.48071" lon="5.95353">
        <ele>636.73</ele>
        <time>2016-09-09T10:41:51Z</time>
      </trkpt>
      <trkpt lat="45.48052" lon="5.95363">
        <ele>637.37</ele>
        <time>2016-09-09T10:41:54Z</time>
      </trkpt>
      <trkpt lat="45.48029" lon="5.95371">
        <ele>636.64</ele>
        <time>2016-09-09T10:41:58Z</time>
      </trkpt>
      <trkpt lat="45.4803" lon="5.95402">
        <ele>633.6</ele>
        <time>2016-09-09T10:42:08Z</time>
      </trkpt>
      <trkpt lat="45.48039" lon="5.95428">
        <ele>627.76</ele>
        <time>2016-09-09T10:42:16Z</time>
      </trkpt>
      <trkpt lat="45.48034" lon="5.95459">
        <ele>624.13</ele>
        <time>2016-09-09T10:42:22Z</time>
      </trkpt>
      <trkpt lat="45.48014" lon="5.95471">
        <ele>621.35</ele>
        <time>2016-09-09T10:42:28Z</time>
      </trkpt>
      <trkpt lat="45.48019" lon="5.95498">
        <ele>618.72</ele>
        <time>2016-09-09T10:42:32Z</time>
      </trkpt>
      <trkpt lat="45.48018" lon="5.95524">
        <ele>615.68</ele>
        <time>2016-09-09T10:42:36Z</time>
      </trkpt>
      <trkpt lat="45.48012" lon="5.9555">
        <ele>613.05</ele>
        <time>2016-09-09T10:42:40Z</time>
      </trkpt>
      <trkpt lat="45.47995" lon="5.95572">
        <ele>611.41</ele>
        <time>2016-09-09T10:42:44Z</time>
      </trkpt>
      <trkpt lat="45.47995" lon="5.95605">
        <ele>608.42</ele>
        <time>2016-09-09T10:42:48Z</time>
      </trkpt>
      <trkpt lat="45.47985" lon="5.95628">
        <ele>605.32</ele>
        <time>2016-09-09T10:42:52Z</time>
      </trkpt>
      <trkpt lat="45.4798" lon="5.95653">
        <ele>601.45</ele>
        <time>2016-09-09T10:42:56Z</time>
      </trkpt>
      <trkpt lat="45.47972" lon="5.95677">
        <ele>598.57</ele>
        <time>2016-09-09T10:43:00Z</time>
      </trkpt>
      <trkpt lat="45.4796" lon="5.95703">
        <ele>594.15</ele>
        <time>2016-09-09T10:43:04Z</time>
      </trkpt>
      <trkpt lat="45.47968" lon="5.95731">
        <ele>588.87</ele>
        <time>2016-09-09T10:43:09Z</time>
      </trkpt>
      <trkpt lat="45.47981" lon="5.95753">
        <ele>586.13</ele>
        <time>2016-09-09T10:43:12Z</time>
      </trkpt>
      <trkpt lat="45.47982" lon="5.9578">
        <ele>583.8</ele>
        <time>2016-09-09T10:43:15Z</time>
      </trkpt>
      <trkpt lat="45.47969" lon="5.95802">
        <ele>582.57</ele>
        <time>2016-09-09T10:43:18Z</time>
      </trkpt>
      <trkpt lat="45.47969" lon="5.95828">
        <ele>583.43</ele>
        <time>2016-09-09T10:43:28Z</time>
      </trkpt>
      <trkpt lat="45.47965" lon="5.95855">
        <ele>583.14</ele>
        <time>2016-09-09T10:43:38Z</time>
      </trkpt>
      <trkpt lat="45.47955" lon="5.95879">
        <ele>582.4</ele>
        <time>2016-09-09T10:43:43Z</time>
      </trkpt>
      <trkpt lat="45.47944" lon="5.95904">
        <ele>580.78</ele>
        <time>2016-09-09T10:43:47Z</time>
      </trkpt>
      <trkpt lat="45.47932" lon="5.95937">
        <ele>577.26</ele>
        <time>2016-09-09T10:43:50Z</time>
      </trkpt>
      <trkpt lat="45.47922" lon="5.95962">
        <ele>573.62</ele>
        <time>2016-09-09T10:43:53Z</time>
      </trkpt>
      <trkpt lat="45.47904" lon="5.95974">
        <ele>572.84</ele>
        <time>2016-09-09T10:44:39Z</time>
      </trkpt>
      <trkpt lat="45.47885" lon="5.95969">
        <ele>573.69</ele>
        <time>2016-09-09T10:44:46Z</time>
      </trkpt>
      <trkpt lat="45.47866" lon="5.95966">
        <ele>574.21</ele>
        <time>2016-09-09T10:44:53Z</time>
      </trkpt>
      <trkpt lat="45.47846" lon="5.95971">
        <ele>574.71</ele>
        <time>2016-09-09T10:45:01Z</time>
      </trkpt>
      <trkpt lat="45.47827" lon="5.95975">
        <ele>575.99</ele>
        <time>2016-09-09T10:45:09Z</time>
      </trkpt>
      <trkpt lat="45.47807" lon="5.95977">
        <ele>576.82</ele>
        <time>2016-09-09T10:45:16Z</time>
      </trkpt>
      <trkpt lat="45.47789" lon="5.95981">
        <ele>577.61</ele>
        <time>2016-09-09T10:45:23Z</time>
      </trkpt>
      <trkpt lat="45.47775" lon="5.96">
        <ele>579.88</ele>
        <time>2016-09-09T10:45:33Z</time>
      </trkpt>
      <trkpt lat="45.47767" lon="5.9603">
        <ele>579.53</ele>
        <time>2016-09-09T10:45:40Z</time>
      </trkpt>
      <trkpt lat="45.4776" lon="5.96058">
        <ele>577.81</ele>
        <time>2016-09-09T10:45:44Z</time>
      </trkpt>
      <trkpt lat="45.47739" lon="5.96068">
        <ele>575.67</ele>
        <time>2016-09-09T10:45:49Z</time>
      </trkpt>
      <trkpt lat="45.47721" lon="5.96072">
        <ele>574.18</ele>
        <time>2016-09-09T10:45:52Z</time>
      </trkpt>
      <trkpt lat="45.47703" lon="5.96075">
        <ele>573.39</ele>
        <time>2016-09-09T10:45:55Z</time>
      </trkpt>
      <trkpt lat="45.4768" lon="5.96078">
        <ele>572.49</ele>
        <time>2016-09-09T10:45:59Z</time>
      </trkpt>
      <trkpt lat="45.47659" lon="5.96081">
        <ele>572.13</ele>
        <time>2016-09-09T10:46:03Z</time>
      </trkpt>
      <trkpt lat="45.47641" lon="5.96074">
        <ele>571.92</ele>
        <time>2016-09-09T10:46:07Z</time>
      </trkpt>
      <trkpt lat="45.47621" lon="5.96065">
        <ele>572.2</ele>
        <time>2016-09-09T10:46:12Z</time>
      </trkpt>
      <trkpt lat="45.47602" lon="5.96054">
        <ele>572.58</ele>
        <time>2016-09-09T10:46:18Z</time>
      </trkpt>
      <trkpt lat="45.47585" lon="5.96044">
        <ele>573.6</ele>
        <time>2016-09-09T10:46:24Z</time>
      </trkpt>
      <trkpt lat="45.47566" lon="5.96044">
        <ele>574.71</ele>
        <time>2016-09-09T10:46:32Z</time>
      </trkpt>
      <trkpt lat="45.47548" lon="5.96042">
        <ele>575.88</ele>
        <time>2016-09-09T10:46:39Z</time>
      </trkpt>
      <trkpt lat="45.47531" lon="5.96058">
        <ele>577.24</ele>
        <time>2016-09-09T10:46:48Z</time>
      </trkpt>
      <trkpt lat="45.47517" lon="5.96076">
        <ele>579.5</ele>
        <time>2016-09-09T10:46:58Z</time>
      </trkpt>
      <trkpt lat="45.475" lon="5.9609">
        <ele>581.38</ele>
        <time>2016-09-09T10:47:07Z</time>
      </trkpt>
      <trkpt lat="45.47481" lon="5.96102">
        <ele>583.63</ele>
        <time>2016-09-09T10:47:18Z</time>
      </trkpt>
      <trkpt lat="45.47463" lon="5.96113">
        <ele>585.07</ele>
        <time>2016-09-09T10:47:26Z</time>
      </trkpt>
      <trkpt lat="45.47447" lon="5.96128">
        <ele>586.92</ele>
        <time>2016-09-09T10:47:34Z</time>
      </trkpt>
      <trkpt lat="45.4743" lon="5.96137">
        <ele>589.32</ele>
        <time>2016-09-09T10:47:43Z</time>
      </trkpt>
      <trkpt lat="45.47413" lon="5.96146">
        <ele>591.73</ele>
        <time>2016-09-09T10:47:52Z</time>
      </trkpt>
      <trkpt lat="45.47397" lon="5.9616">
        <ele>593.72</ele>
        <time>2016-09-09T10:48:02Z</time>
      </trkpt>
      <trkpt lat="45.47382" lon="5.96178">
        <ele>594.99</ele>
        <time>2016-09-09T10:48:10Z</time>
      </trkpt>
      <trkpt lat="45.47369" lon="5.96196">
        <ele>595.38</ele>
        <time>2016-09-09T10:48:17Z</time>
      </trkpt>
      <trkpt lat="45.47353" lon="5.96209">
        <ele>595.45</ele>
        <time>2016-09-09T10:48:23Z</time>
      </trkpt>
      <trkpt lat="45.47336" lon="5.96222">
        <ele>596.7</ele>
        <time>2016-09-09T10:48:31Z</time>
      </trkpt>
      <trkpt lat="45.47318" lon="5.96232">
        <ele>598.13</ele>
        <time>2016-09-09T10:48:39Z</time>
      </trkpt>
      <trkpt lat="45.473" lon="5.96238">
        <ele>599.45</ele>
        <time>2016-09-09T10:48:47Z</time>
      </trkpt>
      <trkpt lat="45.47281" lon="5.96242">
        <ele>600.53</ele>
        <time>2016-09-09T10:48:55Z</time>
      </trkpt>
      <trkpt lat="45.47264" lon="5.96246">
        <ele>601.87</ele>
        <time>2016-09-09T10:49:03Z</time>
      </trkpt>
      <trkpt lat="45.47246" lon="5.96248">
        <ele>603.56</ele>
        <time>2016-09-09T10:49:11Z</time>
      </trkpt>
      <trkpt lat="45.47227" lon="5.96247">
        <ele>605.63</ele>
        <time>2016-09-09T10:49:19Z</time>
      </trkpt>
      <trkpt lat="45.47209" lon="5.96246">
        <ele>607.82</ele>
        <time>2016-09-09T10:49:28Z</time>
      </trkpt>
      <trkpt lat="45.47191" lon="5.96238">
        <ele>609.51</ele>
        <time>2016-09-09T10:49:38Z</time>
      </trkpt>
      <trkpt lat="45.47172" lon="5.96231">
        <ele>611.13</ele>
        <time>2016-09-09T10:49:48Z</time>
      </trkpt>
      <trkpt lat="45.47152" lon="5.96232">
        <ele>612.3</ele>
        <time>2016-09-09T10:49:56Z</time>
      </trkpt>
      <trkpt lat="45.47134" lon="5.96235">
        <ele>613.23</ele>
        <time>2016-09-09T10:50:04Z</time>
      </trkpt>
      <trkpt lat="45.47115" lon="5.96237">
        <ele>613.8</ele>
        <time>2016-09-09T10:50:11Z</time>
      </trkpt>
      <trkpt lat="45.47096" lon="5.96242">
        <ele>614.73</ele>
        <time>2016-09-09T10:50:18Z</time>
      </trkpt>
      <trkpt lat="45.47077" lon="5.96246">
        <ele>615.94</ele>
        <time>2016-09-09T10:50:25Z</time>
      </trkpt>
      <trkpt lat="45.47057" lon="5.96252">
        <ele>617.86</ele>
        <time>2016-09-09T10:50:33Z</time>
      </trkpt>
      <trkpt lat="45.47039" lon="5.96255">
        <ele>619.86</ele>
        <time>2016-09-09T10:50:41Z</time>
      </trkpt>
      <trkpt lat="45.47019" lon="5.96259">
        <ele>622</ele>
        <time>2016-09-09T10:50:50Z</time>
      </trkpt>
      <trkpt lat="45.47001" lon="5.96268">
        <ele>624.29</ele>
        <time>2016-09-09T10:50:59Z</time>
      </trkpt>
      <trkpt lat="45.46982" lon="5.96271">
        <ele>626.41</ele>
        <time>2016-09-09T10:51:09Z</time>
      </trkpt>
      <trkpt lat="45.46985" lon="5.96244">
        <ele>628.5</ele>
        <time>2016-09-09T10:51:23Z</time>
      </trkpt>
      <trkpt lat="45.46998" lon="5.96226">
        <ele>630.14</ele>
        <time>2016-09-09T10:53:46Z</time>
      </trkpt>
      <trkpt lat="45.46985" lon="5.96207">
        <ele>631.9</ele>
        <time>2016-09-09T10:54:15Z</time>
      </trkpt>
      <trkpt lat="45.46974" lon="5.96183">
        <ele>636.27</ele>
        <time>2016-09-09T10:54:27Z</time>
      </trkpt>
      <trkpt lat="45.46963" lon="5.96161">
        <ele>640.2</ele>
        <time>2016-09-09T10:54:38Z</time>
      </trkpt>
      <trkpt lat="45.46944" lon="5.9615">
        <ele>642.53</ele>
        <time>2016-09-09T10:54:47Z</time>
      </trkpt>
      <trkpt lat="45.46928" lon="5.96167">
        <ele>644.86</ele>
        <time>2016-09-09T10:54:58Z</time>
      </trkpt>
      <trkpt lat="45.4691" lon="5.96177">
        <ele>643.42</ele>
        <time>2016-09-09T10:55:06Z</time>
      </trkpt>
      <trkpt lat="45.46893" lon="5.96189">
        <ele>644.04</ele>
        <time>2016-09-09T10:55:14Z</time>
      </trkpt>
      <trkpt lat="45.46874" lon="5.96195">
        <ele>645.68</ele>
        <time>2016-09-09T10:55:22Z</time>
      </trkpt>
      <trkpt lat="45.46862" lon="5.96214">
        <ele>649.21</ele>
        <time>2016-09-09T10:55:31Z</time>
      </trkpt>
      <trkpt lat="45.46844" lon="5.96224">
        <ele>650.98</ele>
        <time>2016-09-09T10:55:38Z</time>
      </trkpt>
      <trkpt lat="45.46823" lon="5.96224">
        <ele>650.31</ele>
        <time>2016-09-09T10:55:45Z</time>
      </trkpt>
      <trkpt lat="45.46804" lon="5.96216">
        <ele>648.29</ele>
        <time>2016-09-09T10:55:48Z</time>
      </trkpt>
      <trkpt lat="45.46786" lon="5.96218">
        <ele>646.84</ele>
        <time>2016-09-09T10:55:51Z</time>
      </trkpt>
      <trkpt lat="45.46765" lon="5.96214">
        <ele>647.45</ele>
        <time>2016-09-09T10:55:55Z</time>
      </trkpt>
      <trkpt lat="45.46746" lon="5.96214">
        <ele>649.63</ele>
        <time>2016-09-09T10:56:03Z</time>
      </trkpt>
      <trkpt lat="45.46725" lon="5.96217">
        <ele>646.94</ele>
        <time>2016-09-09T10:56:09Z</time>
      </trkpt>
      <trkpt lat="45.46719" lon="5.96244">
        <ele>645.87</ele>
        <time>2016-09-09T10:56:15Z</time>
      </trkpt>
      <trkpt lat="45.46708" lon="5.96273">
        <ele>644.12</ele>
        <time>2016-09-09T10:56:19Z</time>
      </trkpt>
      <trkpt lat="45.467" lon="5.96306">
        <ele>642.01</ele>
        <time>2016-09-09T10:56:22Z</time>
      </trkpt>
      <trkpt lat="45.46694" lon="5.96334">
        <ele>638.45</ele>
        <time>2016-09-09T10:56:25Z</time>
      </trkpt>
      <trkpt lat="45.46686" lon="5.96363">
        <ele>636.53</ele>
        <time>2016-09-09T10:56:27Z</time>
      </trkpt>
      <trkpt lat="45.46685" lon="5.96392">
        <ele>634.62</ele>
        <time>2016-09-09T10:56:29Z</time>
      </trkpt>
      <trkpt lat="45.46683" lon="5.96424">
        <ele>632.69</ele>
        <time>2016-09-09T10:56:32Z</time>
      </trkpt>
      <trkpt lat="45.46674" lon="5.96452">
        <ele>632.45</ele>
        <time>2016-09-09T10:56:35Z</time>
      </trkpt>
      <trkpt lat="45.46671" lon="5.96478">
        <ele>632.32</ele>
        <time>2016-09-09T10:56:39Z</time>
      </trkpt>
      <trkpt lat="45.46675" lon="5.96504">
        <ele>631.77</ele>
        <time>2016-09-09T10:56:44Z</time>
      </trkpt>
      <trkpt lat="45.46667" lon="5.96529">
        <ele>631.03</ele>
        <time>2016-09-09T10:56:48Z</time>
      </trkpt>
      <trkpt lat="45.46657" lon="5.96555">
        <ele>630.17</ele>
        <time>2016-09-09T10:56:52Z</time>
      </trkpt>
      <trkpt lat="45.46652" lon="5.9658">
        <ele>629.37</ele>
        <time>2016-09-09T10:56:55Z</time>
      </trkpt>
      <trkpt lat="45.46646" lon="5.96606">
        <ele>628.19</ele>
        <time>2016-09-09T10:56:58Z</time>
      </trkpt>
      <trkpt lat="45.4664" lon="5.96632">
        <ele>627.02</ele>
        <time>2016-09-09T10:57:01Z</time>
      </trkpt>
      <trkpt lat="45.46624" lon="5.9665">
        <ele>626.47</ele>
        <time>2016-09-09T10:57:06Z</time>
      </trkpt>
      <trkpt lat="45.46603" lon="5.96649">
        <ele>627.26</ele>
        <time>2016-09-09T10:57:12Z</time>
      </trkpt>
      <trkpt lat="45.46585" lon="5.96643">
        <ele>628.35</ele>
        <time>2016-09-09T10:57:17Z</time>
      </trkpt>
      <trkpt lat="45.46564" lon="5.96637">
        <ele>629.73</ele>
        <time>2016-09-09T10:57:23Z</time>
      </trkpt>
      <trkpt lat="45.46544" lon="5.96642">
        <ele>631.06</ele>
        <time>2016-09-09T10:57:29Z</time>
      </trkpt>
      <trkpt lat="45.46525" lon="5.96651">
        <ele>632.68</ele>
        <time>2016-09-09T10:57:35Z</time>
      </trkpt>
      <trkpt lat="45.46505" lon="5.96653">
        <ele>635.05</ele>
        <time>2016-09-09T10:57:42Z</time>
      </trkpt>
      <trkpt lat="45.46487" lon="5.96651">
        <ele>637.38</ele>
        <time>2016-09-09T10:57:49Z</time>
      </trkpt>
      <trkpt lat="45.46468" lon="5.96648">
        <ele>639.81</ele>
        <time>2016-09-09T10:57:57Z</time>
      </trkpt>
      <trkpt lat="45.4645" lon="5.96642">
        <ele>642.45</ele>
        <time>2016-09-09T10:58:06Z</time>
      </trkpt>
      <trkpt lat="45.46431" lon="5.96638">
        <ele>645.05</ele>
        <time>2016-09-09T10:58:15Z</time>
      </trkpt>
      <trkpt lat="45.46413" lon="5.96631">
        <ele>648.18</ele>
        <time>2016-09-09T10:58:26Z</time>
      </trkpt>
      <trkpt lat="45.46394" lon="5.96633">
        <ele>650.1</ele>
        <time>2016-09-09T10:58:35Z</time>
      </trkpt>
      <trkpt lat="45.46375" lon="5.96633">
        <ele>652.24</ele>
        <time>2016-09-09T10:58:45Z</time>
      </trkpt>
      <trkpt lat="45.46357" lon="5.96638">
        <ele>653.68</ele>
        <time>2016-09-09T10:58:54Z</time>
      </trkpt>
      <trkpt lat="45.46339" lon="5.96644">
        <ele>655.37</ele>
        <time>2016-09-09T10:59:03Z</time>
      </trkpt>
      <trkpt lat="45.4632" lon="5.9664">
        <ele>657.12</ele>
        <time>2016-09-09T10:59:13Z</time>
      </trkpt>
      <trkpt lat="45.46302" lon="5.96632">
        <ele>658.68</ele>
        <time>2016-09-09T10:59:22Z</time>
      </trkpt>
      <trkpt lat="45.46282" lon="5.9663">
        <ele>660.13</ele>
        <time>2016-09-09T10:59:31Z</time>
      </trkpt>
      <trkpt lat="45.46264" lon="5.96627">
        <ele>661.68</ele>
        <time>2016-09-09T10:59:39Z</time>
      </trkpt>
      <trkpt lat="45.46245" lon="5.96621">
        <ele>663.71</ele>
        <time>2016-09-09T10:59:48Z</time>
      </trkpt>
      <trkpt lat="45.46226" lon="5.96619">
        <ele>665.48</ele>
        <time>2016-09-09T10:59:57Z</time>
      </trkpt>
      <trkpt lat="45.46208" lon="5.96615">
        <ele>667.52</ele>
        <time>2016-09-09T11:00:06Z</time>
      </trkpt>
      <trkpt lat="45.46189" lon="5.96614">
        <ele>669.66</ele>
        <time>2016-09-09T11:00:15Z</time>
      </trkpt>
      <trkpt lat="45.46172" lon="5.96622">
        <ele>671.52</ele>
        <time>2016-09-09T11:00:23Z</time>
      </trkpt>
      <trkpt lat="45.46154" lon="5.96633">
        <ele>673.41</ele>
        <time>2016-09-09T11:00:33Z</time>
      </trkpt>
      <trkpt lat="45.46137" lon="5.96645">
        <ele>675.27</ele>
        <time>2016-09-09T11:00:42Z</time>
      </trkpt>
      <trkpt lat="45.46121" lon="5.96658">
        <ele>677.29</ele>
        <time>2016-09-09T11:00:51Z</time>
      </trkpt>
      <trkpt lat="45.46104" lon="5.9667">
        <ele>679.59</ele>
        <time>2016-09-09T11:01:00Z</time>
      </trkpt>
      <trkpt lat="45.46088" lon="5.9668">
        <ele>681.55</ele>
        <time>2016-09-09T11:01:08Z</time>
      </trkpt>
      <trkpt lat="45.4607" lon="5.96693">
        <ele>683.7</ele>
        <time>2016-09-09T11:01:18Z</time>
      </trkpt>
      <trkpt lat="45.46053" lon="5.96703">
        <ele>685.81</ele>
        <time>2016-09-09T11:01:27Z</time>
      </trkpt>
      <trkpt lat="45.46036" lon="5.96715">
        <ele>688.02</ele>
        <time>2016-09-09T11:01:36Z</time>
      </trkpt>
      <trkpt lat="45.46019" lon="5.96726">
        <ele>690.58</ele>
        <time>2016-09-09T11:01:45Z</time>
      </trkpt>
      <trkpt lat="45.46001" lon="5.96736">
        <ele>693.05</ele>
        <time>2016-09-09T11:01:55Z</time>
      </trkpt>
      <trkpt lat="45.45985" lon="5.96747">
        <ele>695.42</ele>
        <time>2016-09-09T11:02:04Z</time>
      </trkpt>
      <trkpt lat="45.45966" lon="5.9675">
        <ele>698.08</ele>
        <time>2016-09-09T11:02:13Z</time>
      </trkpt>
      <trkpt lat="45.45948" lon="5.96746">
        <ele>701.19</ele>
        <time>2016-09-09T11:02:23Z</time>
      </trkpt>
      <trkpt lat="45.4593" lon="5.96742">
        <ele>703.73</ele>
        <time>2016-09-09T11:02:33Z</time>
      </trkpt>
      <trkpt lat="45.45913" lon="5.9673">
        <ele>706.02</ele>
        <time>2016-09-09T11:02:44Z</time>
      </trkpt>
      <trkpt lat="45.45905" lon="5.96706">
        <ele>706.86</ele>
        <time>2016-09-09T11:02:55Z</time>
      </trkpt>
      <trkpt lat="45.45898" lon="5.9668">
        <ele>706.57</ele>
        <time>2016-09-09T11:03:04Z</time>
      </trkpt>
      <trkpt lat="45.45891" lon="5.96654">
        <ele>706.09</ele>
        <time>2016-09-09T11:03:11Z</time>
      </trkpt>
      <trkpt lat="45.45882" lon="5.96628">
        <ele>706.41</ele>
        <time>2016-09-09T11:03:19Z</time>
      </trkpt>
      <trkpt lat="45.45869" lon="5.96608">
        <ele>706.73</ele>
        <time>2016-09-09T11:03:26Z</time>
      </trkpt>
      <trkpt lat="45.45849" lon="5.96587">
        <ele>706.36</ele>
        <time>2016-09-09T11:03:49Z</time>
      </trkpt>
      <trkpt lat="45.45831" lon="5.96567">
        <ele>702.89</ele>
        <time>2016-09-09T11:03:53Z</time>
      </trkpt>
      <trkpt lat="45.45814" lon="5.96552">
        <ele>700.83</ele>
        <time>2016-09-09T11:03:56Z</time>
      </trkpt>
      <trkpt lat="45.45798" lon="5.96529">
        <ele>696.51</ele>
        <time>2016-09-09T11:04:01Z</time>
      </trkpt>
      <trkpt lat="45.45788" lon="5.96501">
        <ele>693.44</ele>
        <time>2016-09-09T11:04:05Z</time>
      </trkpt>
      <trkpt lat="45.45774" lon="5.96472">
        <ele>689.2</ele>
        <time>2016-09-09T11:04:09Z</time>
      </trkpt>
      <trkpt lat="45.45767" lon="5.96447">
        <ele>686.46</ele>
        <time>2016-09-09T11:04:12Z</time>
      </trkpt>
      <trkpt lat="45.4576" lon="5.96417">
        <ele>684.16</ele>
        <time>2016-09-09T11:04:15Z</time>
      </trkpt>
      <trkpt lat="45.45749" lon="5.96392">
        <ele>682.12</ele>
        <time>2016-09-09T11:04:18Z</time>
      </trkpt>
      <trkpt lat="45.45733" lon="5.96369">
        <ele>679.4</ele>
        <time>2016-09-09T11:04:22Z</time>
      </trkpt>
      <trkpt lat="45.45725" lon="5.9634">
        <ele>678.8</ele>
        <time>2016-09-09T11:04:25Z</time>
      </trkpt>
      <trkpt lat="45.45716" lon="5.9631">
        <ele>678.88</ele>
        <time>2016-09-09T11:04:29Z</time>
      </trkpt>
      <trkpt lat="45.45708" lon="5.96285">
        <ele>679.28</ele>
        <time>2016-09-09T11:04:33Z</time>
      </trkpt>
      <trkpt lat="45.45703" lon="5.96259">
        <ele>680.53</ele>
        <time>2016-09-09T11:04:39Z</time>
      </trkpt>
      <trkpt lat="45.45696" lon="5.96236">
        <ele>682.2</ele>
        <time>2016-09-09T11:04:46Z</time>
      </trkpt>
      <trkpt lat="45.45695" lon="5.9621">
        <ele>684.36</ele>
        <time>2016-09-09T11:04:53Z</time>
      </trkpt>
      <trkpt lat="45.45696" lon="5.96184">
        <ele>685.76</ele>
        <time>2016-09-09T11:05:00Z</time>
      </trkpt>
      <trkpt lat="45.45701" lon="5.96156">
        <ele>685.94</ele>
        <time>2016-09-09T11:05:06Z</time>
      </trkpt>
      <trkpt lat="45.45688" lon="5.96136">
        <ele>685.39</ele>
        <time>2016-09-09T11:05:12Z</time>
      </trkpt>
      <trkpt lat="45.45672" lon="5.96118">
        <ele>684.03</ele>
        <time>2016-09-09T11:05:17Z</time>
      </trkpt>
      <trkpt lat="45.45665" lon="5.96093">
        <ele>682.52</ele>
        <time>2016-09-09T11:05:21Z</time>
      </trkpt>
      <trkpt lat="45.45659" lon="5.96065">
        <ele>680.37</ele>
        <time>2016-09-09T11:05:24Z</time>
      </trkpt>
      <trkpt lat="45.45643" lon="5.96044">
        <ele>678.8</ele>
        <time>2016-09-09T11:05:27Z</time>
      </trkpt>
      <trkpt lat="45.4563" lon="5.96017">
        <ele>677.73</ele>
        <time>2016-09-09T11:05:31Z</time>
      </trkpt>
      <trkpt lat="45.45618" lon="5.95996">
        <ele>678.12</ele>
        <time>2016-09-09T11:05:37Z</time>
      </trkpt>
      <trkpt lat="45.45599" lon="5.96">
        <ele>678.89</ele>
        <time>2016-09-09T11:05:45Z</time>
      </trkpt>
      <trkpt lat="45.45587" lon="5.96023">
        <ele>681.6</ele>
        <time>2016-09-09T11:05:55Z</time>
      </trkpt>
      <trkpt lat="45.45581" lon="5.96048">
        <ele>683.57</ele>
        <time>2016-09-09T11:06:03Z</time>
      </trkpt>
      <trkpt lat="45.45576" lon="5.96074">
        <ele>686.35</ele>
        <time>2016-09-09T11:06:12Z</time>
      </trkpt>
      <trkpt lat="45.45559" lon="5.96089">
        <ele>689.69</ele>
        <time>2016-09-09T11:06:21Z</time>
      </trkpt>
      <trkpt lat="45.45544" lon="5.96104">
        <ele>693.15</ele>
        <time>2016-09-09T11:06:31Z</time>
      </trkpt>
      <trkpt lat="45.45528" lon="5.96118">
        <ele>696.03</ele>
        <time>2016-09-09T11:06:42Z</time>
      </trkpt>
      <trkpt lat="45.45509" lon="5.96125">
        <ele>697.76</ele>
        <time>2016-09-09T11:06:52Z</time>
      </trkpt>
      <trkpt lat="45.455" lon="5.9615">
        <ele>697.95</ele>
        <time>2016-09-09T11:06:59Z</time>
      </trkpt>
      <trkpt lat="45.45504" lon="5.96175">
        <ele>700.97</ele>
        <time>2016-09-09T11:07:08Z</time>
      </trkpt>
      <trkpt lat="45.45501" lon="5.96201">
        <ele>703.36</ele>
        <time>2016-09-09T11:07:17Z</time>
      </trkpt>
      <trkpt lat="45.45493" lon="5.96229">
        <ele>704.73</ele>
        <time>2016-09-09T11:07:25Z</time>
      </trkpt>
      <trkpt lat="45.45479" lon="5.96245">
        <ele>706.71</ele>
        <time>2016-09-09T11:07:34Z</time>
      </trkpt>
      <trkpt lat="45.45468" lon="5.96268">
        <ele>708.42</ele>
        <time>2016-09-09T11:07:43Z</time>
      </trkpt>
      <trkpt lat="45.45453" lon="5.96283">
        <ele>710.4</ele>
        <time>2016-09-09T11:07:52Z</time>
      </trkpt>
      <trkpt lat="45.4544" lon="5.96305">
        <ele>712.59</ele>
        <time>2016-09-09T11:08:00Z</time>
      </trkpt>
      <trkpt lat="45.45426" lon="5.9632">
        <ele>714.74</ele>
        <time>2016-09-09T11:08:09Z</time>
      </trkpt>
      <trkpt lat="45.45411" lon="5.96339">
        <ele>717.04</ele>
        <time>2016-09-09T11:08:18Z</time>
      </trkpt>
      <trkpt lat="45.454" lon="5.9636">
        <ele>719.67</ele>
        <time>2016-09-09T11:08:28Z</time>
      </trkpt>
      <trkpt lat="45.45389" lon="5.96381">
        <ele>721.64</ele>
        <time>2016-09-09T11:08:37Z</time>
      </trkpt>
      <trkpt lat="45.45393" lon="5.96406">
        <ele>722.36</ele>
        <time>2016-09-09T11:08:44Z</time>
      </trkpt>
      <trkpt lat="45.45402" lon="5.96433">
        <ele>724.09</ele>
        <time>2016-09-09T11:08:51Z</time>
      </trkpt>
      <trkpt lat="45.45413" lon="5.96458">
        <ele>726.48</ele>
        <time>2016-09-09T11:08:59Z</time>
      </trkpt>
      <trkpt lat="45.45411" lon="5.96485">
        <ele>727.85</ele>
        <time>2016-09-09T11:09:07Z</time>
      </trkpt>
      <trkpt lat="45.45412" lon="5.9651">
        <ele>728.84</ele>
        <time>2016-09-09T11:09:14Z</time>
      </trkpt>
      <trkpt lat="45.45413" lon="5.96538">
        <ele>731.14</ele>
        <time>2016-09-09T11:09:22Z</time>
      </trkpt>
      <trkpt lat="45.45404" lon="5.96561">
        <ele>734.09</ele>
        <time>2016-09-09T11:09:32Z</time>
      </trkpt>
      <trkpt lat="45.45387" lon="5.96572">
        <ele>737.04</ele>
        <time>2016-09-09T11:09:42Z</time>
      </trkpt>
      <trkpt lat="45.45368" lon="5.96573">
        <ele>740.25</ele>
        <time>2016-09-09T11:09:51Z</time>
      </trkpt>
      <trkpt lat="45.45349" lon="5.96575">
        <ele>743.67</ele>
        <time>2016-09-09T11:10:00Z</time>
      </trkpt>
      <trkpt lat="45.4533" lon="5.96577">
        <ele>747.28</ele>
        <time>2016-09-09T11:10:10Z</time>
      </trkpt>
      <trkpt lat="45.45312" lon="5.96583">
        <ele>750.44</ele>
        <time>2016-09-09T11:10:20Z</time>
      </trkpt>
      <trkpt lat="45.45294" lon="5.96587">
        <ele>753.46</ele>
        <time>2016-09-09T11:10:30Z</time>
      </trkpt>
      <trkpt lat="45.45274" lon="5.96588">
        <ele>756.5</ele>
        <time>2016-09-09T11:10:40Z</time>
      </trkpt>
      <trkpt lat="45.45255" lon="5.96588">
        <ele>759.68</ele>
        <time>2016-09-09T11:10:52Z</time>
      </trkpt>
      <trkpt lat="45.45237" lon="5.96593">
        <ele>761.8</ele>
        <time>2016-09-09T11:11:00Z</time>
      </trkpt>
      <trkpt lat="45.45217" lon="5.9659">
        <ele>765.17</ele>
        <time>2016-09-09T11:11:11Z</time>
      </trkpt>
      <trkpt lat="45.45198" lon="5.96587">
        <ele>769.22</ele>
        <time>2016-09-09T11:11:22Z</time>
      </trkpt>
      <trkpt lat="45.45179" lon="5.96586">
        <ele>774.12</ele>
        <time>2016-09-09T11:11:33Z</time>
      </trkpt>
      <trkpt lat="45.45164" lon="5.96568">
        <ele>778.28</ele>
        <time>2016-09-09T11:11:46Z</time>
      </trkpt>
      <trkpt lat="45.45151" lon="5.96547">
        <ele>781.66</ele>
        <time>2016-09-09T11:11:57Z</time>
      </trkpt>
      <trkpt lat="45.45142" lon="5.96522">
        <ele>782.92</ele>
        <time>2016-09-09T11:12:06Z</time>
      </trkpt>
      <trkpt lat="45.4513" lon="5.96502">
        <ele>784.39</ele>
        <time>2016-09-09T11:12:16Z</time>
      </trkpt>
      <trkpt lat="45.45114" lon="5.96491">
        <ele>785.24</ele>
        <time>2016-09-09T11:12:24Z</time>
      </trkpt>
      <trkpt lat="45.45103" lon="5.96469">
        <ele>786.75</ele>
        <time>2016-09-09T11:12:32Z</time>
      </trkpt>
      <trkpt lat="45.45093" lon="5.96445">
        <ele>788.56</ele>
        <time>2016-09-09T11:19:16Z</time>
      </trkpt>
      <trkpt lat="45.45082" lon="5.96422">
        <ele>789.94</ele>
        <time>2016-09-09T11:19:24Z</time>
      </trkpt>
      <trkpt lat="45.45072" lon="5.96396">
        <ele>791.58</ele>
        <time>2016-09-09T11:19:30Z</time>
      </trkpt>
      <trkpt lat="45.45059" lon="5.96374">
        <ele>793.29</ele>
        <time>2016-09-09T11:19:37Z</time>
      </trkpt>
      <trkpt lat="45.45045" lon="5.96358">
        <ele>795.07</ele>
        <time>2016-09-09T11:19:44Z</time>
      </trkpt>
      <trkpt lat="45.45035" lon="5.96335">
        <ele>796.46</ele>
        <time>2016-09-09T11:19:51Z</time>
      </trkpt>
      <trkpt lat="45.4502" lon="5.96318">
        <ele>797.94</ele>
        <time>2016-09-09T11:19:58Z</time>
      </trkpt>
      <trkpt lat="45.45007" lon="5.96297">
        <ele>799.64</ele>
        <time>2016-09-09T11:20:06Z</time>
      </trkpt>
      <trkpt lat="45.4499" lon="5.96288">
        <ele>801.2</ele>
        <time>2016-09-09T11:20:13Z</time>
      </trkpt>
      <trkpt lat="45.44977" lon="5.96306">
        <ele>802.96</ele>
        <time>2016-09-09T11:20:21Z</time>
      </trkpt>
      <trkpt lat="45.44962" lon="5.96326">
        <ele>804.89</ele>
        <time>2016-09-09T11:20:29Z</time>
      </trkpt>
      <trkpt lat="45.44945" lon="5.96344">
        <ele>806.89</ele>
        <time>2016-09-09T11:20:37Z</time>
      </trkpt>
      <trkpt lat="45.44929" lon="5.96361">
        <ele>808.35</ele>
        <time>2016-09-09T11:20:43Z</time>
      </trkpt>
      <trkpt lat="45.4492" lon="5.96383">
        <ele>810.04</ele>
        <time>2016-09-09T11:20:50Z</time>
      </trkpt>
      <trkpt lat="45.44913" lon="5.96409">
        <ele>811.72</ele>
        <time>2016-09-09T11:20:57Z</time>
      </trkpt>
      <trkpt lat="45.44919" lon="5.96437">
        <ele>813.32</ele>
        <time>2016-09-09T11:21:05Z</time>
      </trkpt>
      <trkpt lat="45.44929" lon="5.96459">
        <ele>814.61</ele>
        <time>2016-09-09T11:21:11Z</time>
      </trkpt>
      <trkpt lat="45.44934" lon="5.96486">
        <ele>816.11</ele>
        <time>2016-09-09T11:21:18Z</time>
      </trkpt>
      <trkpt lat="45.44923" lon="5.96507">
        <ele>817.68</ele>
        <time>2016-09-09T11:21:25Z</time>
      </trkpt>
      <trkpt lat="45.44917" lon="5.96532">
        <ele>819.59</ele>
        <time>2016-09-09T11:21:32Z</time>
      </trkpt>
      <trkpt lat="45.44905" lon="5.96555">
        <ele>821.26</ele>
        <time>2016-09-09T11:22:33Z</time>
      </trkpt>
      <trkpt lat="45.44893" lon="5.96574">
        <ele>822.77</ele>
        <time>2016-09-09T11:22:40Z</time>
      </trkpt>
      <trkpt lat="45.44879" lon="5.96592">
        <ele>824.52</ele>
        <time>2016-09-09T11:22:47Z</time>
      </trkpt>
      <trkpt lat="45.44862" lon="5.96607">
        <ele>826.19</ele>
        <time>2016-09-09T11:22:54Z</time>
      </trkpt>
      <trkpt lat="45.44846" lon="5.96624">
        <ele>827.79</ele>
        <time>2016-09-09T11:23:01Z</time>
      </trkpt>
      <trkpt lat="45.44831" lon="5.96641">
        <ele>829.42</ele>
        <time>2016-09-09T11:23:08Z</time>
      </trkpt>
      <trkpt lat="45.44814" lon="5.96657">
        <ele>831.08</ele>
        <time>2016-09-09T11:23:15Z</time>
      </trkpt>
      <trkpt lat="45.44796" lon="5.96669">
        <ele>833.9</ele>
        <time>2016-09-09T11:23:23Z</time>
      </trkpt>
      <trkpt lat="45.44791" lon="5.96698">
        <ele>833.35</ele>
        <time>2016-09-09T11:24:16Z</time>
      </trkpt>
      <trkpt lat="45.44796" lon="5.96726">
        <ele>830.41</ele>
        <time>2016-09-09T11:24:21Z</time>
      </trkpt>
      <trkpt lat="45.44794" lon="5.96752">
        <ele>828.2</ele>
        <time>2016-09-09T11:24:25Z</time>
      </trkpt>
      <trkpt lat="45.4481" lon="5.96769">
        <ele>823.84</ele>
        <time>2016-09-09T11:24:30Z</time>
      </trkpt>
      <trkpt lat="45.4483" lon="5.96765">
        <ele>820.45</ele>
        <time>2016-09-09T11:24:36Z</time>
      </trkpt>
      <trkpt lat="45.44833" lon="5.9679">
        <ele>816.18</ele>
        <time>2016-09-09T11:24:45Z</time>
      </trkpt>
      <trkpt lat="45.4482" lon="5.96815">
        <ele>809.05</ele>
        <time>2016-09-09T11:24:53Z</time>
      </trkpt>
      <trkpt lat="45.44805" lon="5.96833">
        <ele>802.43</ele>
        <time>2016-09-09T11:24:59Z</time>
      </trkpt>
      <trkpt lat="45.44789" lon="5.96851">
        <ele>797.44</ele>
        <time>2016-09-09T11:25:05Z</time>
      </trkpt>
      <trkpt lat="45.44769" lon="5.96859">
        <ele>793.18</ele>
        <time>2016-09-09T11:25:10Z</time>
      </trkpt>
      <trkpt lat="45.4475" lon="5.96865">
        <ele>790.19</ele>
        <time>2016-09-09T11:25:13Z</time>
      </trkpt>
      <trkpt lat="45.44732" lon="5.96884">
        <ele>786.16</ele>
        <time>2016-09-09T11:25:17Z</time>
      </trkpt>
      <trkpt lat="45.44712" lon="5.96903">
        <ele>782.06</ele>
        <time>2016-09-09T11:25:21Z</time>
      </trkpt>
      <trkpt lat="45.44703" lon="5.96926">
        <ele>770.32</ele>
        <time>2016-09-09T11:25:36Z</time>
      </trkpt>
      <trkpt lat="45.44688" lon="5.96942">
        <ele>765.03</ele>
        <time>2016-09-09T11:25:40Z</time>
      </trkpt>
      <trkpt lat="45.44672" lon="5.9696">
        <ele>756.99</ele>
        <time>2016-09-09T11:25:46Z</time>
      </trkpt>
      <trkpt lat="45.44653" lon="5.96964">
        <ele>753.46</ele>
        <time>2016-09-09T11:25:49Z</time>
      </trkpt>
      <trkpt lat="45.44633" lon="5.96966">
        <ele>751.46</ele>
        <time>2016-09-09T11:25:52Z</time>
      </trkpt>
      <trkpt lat="45.44613" lon="5.96972">
        <ele>747.83</ele>
        <time>2016-09-09T11:25:55Z</time>
      </trkpt>
      <trkpt lat="45.44594" lon="5.96972">
        <ele>744.76</ele>
        <time>2016-09-09T11:25:58Z</time>
      </trkpt>
      <trkpt lat="45.44577" lon="5.96982">
        <ele>741.31</ele>
        <time>2016-09-09T11:26:01Z</time>
      </trkpt>
      <trkpt lat="45.44556" lon="5.9699">
        <ele>737.75</ele>
        <time>2016-09-09T11:26:05Z</time>
      </trkpt>
      <trkpt lat="45.44535" lon="5.96991">
        <ele>734.51</ele>
        <time>2016-09-09T11:26:09Z</time>
      </trkpt>
      <trkpt lat="45.44515" lon="5.96987">
        <ele>732.8</ele>
        <time>2016-09-09T11:26:15Z</time>
      </trkpt>
      <trkpt lat="45.44499" lon="5.96974">
        <ele>730.14</ele>
        <time>2016-09-09T11:26:22Z</time>
      </trkpt>
      <trkpt lat="45.4448" lon="5.96966">
        <ele>727.82</ele>
        <time>2016-09-09T11:26:28Z</time>
      </trkpt>
      <trkpt lat="45.4446" lon="5.96957">
        <ele>725.36</ele>
        <time>2016-09-09T11:26:32Z</time>
      </trkpt>
      <trkpt lat="45.44439" lon="5.96953">
        <ele>720.13</ele>
        <time>2016-09-09T11:26:37Z</time>
      </trkpt>
      <trkpt lat="45.44418" lon="5.96942">
        <ele>714.53</ele>
        <time>2016-09-09T11:26:41Z</time>
      </trkpt>
      <trkpt lat="45.44396" lon="5.96928">
        <ele>707.73</ele>
        <time>2016-09-09T11:26:45Z</time>
      </trkpt>
      <trkpt lat="45.44378" lon="5.96931">
        <ele>699.31</ele>
        <time>2016-09-09T11:26:50Z</time>
      </trkpt>
      <trkpt lat="45.44359" lon="5.96931">
        <ele>691.01</ele>
        <time>2016-09-09T11:26:56Z</time>
      </trkpt>
      <trkpt lat="45.44343" lon="5.96913">
        <ele>683.96</ele>
        <time>2016-09-09T11:27:01Z</time>
      </trkpt>
      <trkpt lat="45.44342" lon="5.96944">
        <ele>668.92</ele>
        <time>2016-09-09T11:27:16Z</time>
      </trkpt>
      <trkpt lat="45.44336" lon="5.96969">
        <ele>661.17</ele>
        <time>2016-09-09T11:27:21Z</time>
      </trkpt>
      <trkpt lat="45.44325" lon="5.9699">
        <ele>653.27</ele>
        <time>2016-09-09T11:27:26Z</time>
      </trkpt>
      <trkpt lat="45.44318" lon="5.97015">
        <ele>647.92</ele>
        <time>2016-09-09T11:27:31Z</time>
      </trkpt>
      <trkpt lat="45.44329" lon="5.97038">
        <ele>644.01</ele>
        <time>2016-09-09T11:27:35Z</time>
      </trkpt>
      <trkpt lat="45.4434" lon="5.97059">
        <ele>639.63</ele>
        <time>2016-09-09T11:27:39Z</time>
      </trkpt>
      <trkpt lat="45.4435" lon="5.97085">
        <ele>635.34</ele>
        <time>2016-09-09T11:27:43Z</time>
      </trkpt>
      <trkpt lat="45.44365" lon="5.9711">
        <ele>629.01</ele>
        <time>2016-09-09T11:27:48Z</time>
      </trkpt>
      <trkpt lat="45.44372" lon="5.97134">
        <ele>622.04</ele>
        <time>2016-09-09T11:27:55Z</time>
      </trkpt>
      <trkpt lat="45.44363" lon="5.97159">
        <ele>612.47</ele>
        <time>2016-09-09T11:28:02Z</time>
      </trkpt>
      <trkpt lat="45.44353" lon="5.97181">
        <ele>603.96</ele>
        <time>2016-09-09T11:28:08Z</time>
      </trkpt>
      <trkpt lat="45.44334" lon="5.97189">
        <ele>598.2</ele>
        <time>2016-09-09T11:28:13Z</time>
      </trkpt>
      <trkpt lat="45.44316" lon="5.97189">
        <ele>591.45</ele>
        <time>2016-09-09T11:28:19Z</time>
      </trkpt>
      <trkpt lat="45.44298" lon="5.97196">
        <ele>583.06</ele>
        <time>2016-09-09T11:28:41Z</time>
      </trkpt>
      <trkpt lat="45.44302" lon="5.97222">
        <ele>573.31</ele>
        <time>2016-09-09T11:30:59Z</time>
      </trkpt>
      <trkpt lat="45.44311" lon="5.97247">
        <ele>568.63</ele>
        <time>2016-09-09T11:31:03Z</time>
      </trkpt>
      <trkpt lat="45.44321" lon="5.97272">
        <ele>563.46</ele>
        <time>2016-09-09T11:31:07Z</time>
      </trkpt>
      <trkpt lat="45.44333" lon="5.97292">
        <ele>557.29</ele>
        <time>2016-09-09T11:31:12Z</time>
      </trkpt>
      <trkpt lat="45.44342" lon="5.97316">
        <ele>550.34</ele>
        <time>2016-09-09T11:31:18Z</time>
      </trkpt>
      <trkpt lat="45.44356" lon="5.97335">
        <ele>543.75</ele>
        <time>2016-09-09T11:31:23Z</time>
      </trkpt>
      <trkpt lat="45.44376" lon="5.97344">
        <ele>537.55</ele>
        <time>2016-09-09T11:31:28Z</time>
      </trkpt>
      <trkpt lat="45.44396" lon="5.97355">
        <ele>531.44</ele>
        <time>2016-09-09T11:31:34Z</time>
      </trkpt>
      <trkpt lat="45.44415" lon="5.97365">
        <ele>524.91</ele>
        <time>2016-09-09T11:31:41Z</time>
      </trkpt>
      <trkpt lat="45.4443" lon="5.97386">
        <ele>519.31</ele>
        <time>2016-09-09T11:31:47Z</time>
      </trkpt>
      <trkpt lat="45.44432" lon="5.97416">
        <ele>510.33</ele>
        <time>2016-09-09T11:31:57Z</time>
      </trkpt>
      <trkpt lat="45.44417" lon="5.97437">
        <ele>501.54</ele>
        <time>2016-09-09T11:32:03Z</time>
      </trkpt>
      <trkpt lat="45.44401" lon="5.97453">
        <ele>494.44</ele>
        <time>2016-09-09T11:32:08Z</time>
      </trkpt>
      <trkpt lat="45.44386" lon="5.97468">
        <ele>489.64</ele>
        <time>2016-09-09T11:32:13Z</time>
      </trkpt>
      <trkpt lat="45.44371" lon="5.97484">
        <ele>484.52</ele>
        <time>2016-09-09T11:32:18Z</time>
      </trkpt>
      <trkpt lat="45.44357" lon="5.97504">
        <ele>480.54</ele>
        <time>2016-09-09T11:32:22Z</time>
      </trkpt>
      <trkpt lat="45.44339" lon="5.9752">
        <ele>475.34</ele>
        <time>2016-09-09T11:32:26Z</time>
      </trkpt>
      <trkpt lat="45.44326" lon="5.97542">
        <ele>470.61</ele>
        <time>2016-09-09T11:32:30Z</time>
      </trkpt>
      <trkpt lat="45.44307" lon="5.9756">
        <ele>464.91</ele>
        <time>2016-09-09T11:32:39Z</time>
      </trkpt>
      <trkpt lat="45.44287" lon="5.97568">
        <ele>462.68</ele>
        <time>2016-09-09T11:33:19Z</time>
      </trkpt>
      <trkpt lat="45.44264" lon="5.97571">
        <ele>460.85</ele>
        <time>2016-09-09T11:33:23Z</time>
      </trkpt>
      <trkpt lat="45.44242" lon="5.9757">
        <ele>458.14</ele>
        <time>2016-09-09T11:33:26Z</time>
      </trkpt>
      <trkpt lat="45.44217" lon="5.97568">
        <ele>454.54</ele>
        <time>2016-09-09T11:33:29Z</time>
      </trkpt>
      <trkpt lat="45.44197" lon="5.9757">
        <ele>451.32</ele>
        <time>2016-09-09T11:33:31Z</time>
      </trkpt>
      <trkpt lat="45.44172" lon="5.97569">
        <ele>448.17</ele>
        <time>2016-09-09T11:33:33Z</time>
      </trkpt>
      <trkpt lat="45.4415" lon="5.9757">
        <ele>444.25</ele>
        <time>2016-09-09T11:33:35Z</time>
      </trkpt>
      <trkpt lat="45.4413" lon="5.97571">
        <ele>439.03</ele>
        <time>2016-09-09T11:33:38Z</time>
      </trkpt>
      <trkpt lat="45.44111" lon="5.97571">
        <ele>435.7</ele>
        <time>2016-09-09T11:33:41Z</time>
      </trkpt>
      <trkpt lat="45.44084" lon="5.97576">
        <ele>431.81</ele>
        <time>2016-09-09T11:33:44Z</time>
      </trkpt>
      <trkpt lat="45.44064" lon="5.97582">
        <ele>429.14</ele>
        <time>2016-09-09T11:33:46Z</time>
      </trkpt>
      <trkpt lat="45.44042" lon="5.97594">
        <ele>425.9</ele>
        <time>2016-09-09T11:33:48Z</time>
      </trkpt>
      <trkpt lat="45.4402" lon="5.97609">
        <ele>422.97</ele>
        <time>2016-09-09T11:33:50Z</time>
      </trkpt>
      <trkpt lat="45.43999" lon="5.97625">
        <ele>418.96</ele>
        <time>2016-09-09T11:33:53Z</time>
      </trkpt>
      <trkpt lat="45.43985" lon="5.97648">
        <ele>416.87</ele>
        <time>2016-09-09T11:33:56Z</time>
      </trkpt>
      <trkpt lat="45.43969" lon="5.97663">
        <ele>415.24</ele>
        <time>2016-09-09T11:33:59Z</time>
      </trkpt>
      <trkpt lat="45.43946" lon="5.97672">
        <ele>413.14</ele>
        <time>2016-09-09T11:34:02Z</time>
      </trkpt>
      <trkpt lat="45.43928" lon="5.97676">
        <ele>411.26</ele>
        <time>2016-09-09T11:34:04Z</time>
      </trkpt>
      <trkpt lat="45.43907" lon="5.97682">
        <ele>409.32</ele>
        <time>2016-09-09T11:34:06Z</time>
      </trkpt>
      <trkpt lat="45.43886" lon="5.97686">
        <ele>407.32</ele>
        <time>2016-09-09T11:34:08Z</time>
      </trkpt>
      <trkpt lat="45.43864" lon="5.97695">
        <ele>405.13</ele>
        <time>2016-09-09T11:34:10Z</time>
      </trkpt>
      <trkpt lat="45.43843" lon="5.97705">
        <ele>403.04</ele>
        <time>2016-09-09T11:34:12Z</time>
      </trkpt>
      <trkpt lat="45.43821" lon="5.97717">
        <ele>400.88</ele>
        <time>2016-09-09T11:34:14Z</time>
      </trkpt>
      <trkpt lat="45.43796" lon="5.97727">
        <ele>398.74</ele>
        <time>2016-09-09T11:34:16Z</time>
      </trkpt>
      <trkpt lat="45.43769" lon="5.97736">
        <ele>396.54</ele>
        <time>2016-09-09T11:34:18Z</time>
      </trkpt>
      <trkpt lat="45.43748" lon="5.9774">
        <ele>394.67</ele>
        <time>2016-09-09T11:34:20Z</time>
      </trkpt>
      <trkpt lat="45.43728" lon="5.97744">
        <ele>392.8</ele>
        <time>2016-09-09T11:34:22Z</time>
      </trkpt>
      <trkpt lat="45.43707" lon="5.97751">
        <ele>390.66</ele>
        <time>2016-09-09T11:34:25Z</time>
      </trkpt>
      <trkpt lat="45.43684" lon="5.97766">
        <ele>388.88</ele>
        <time>2016-09-09T11:34:28Z</time>
      </trkpt>
      <trkpt lat="45.43667" lon="5.97781">
        <ele>387.98</ele>
        <time>2016-09-09T11:34:30Z</time>
      </trkpt>
      <trkpt lat="45.43647" lon="5.97793">
        <ele>386.78</ele>
        <time>2016-09-09T11:34:33Z</time>
      </trkpt>
      <trkpt lat="45.43634" lon="5.97815">
        <ele>385.78</ele>
        <time>2016-09-09T11:34:37Z</time>
      </trkpt>
      <trkpt lat="45.43626" lon="5.97842">
        <ele>384.94</ele>
        <time>2016-09-09T11:34:42Z</time>
      </trkpt>
      <trkpt lat="45.43604" lon="5.97842">
        <ele>384.75</ele>
        <time>2016-09-09T11:34:48Z</time>
      </trkpt>
      <trkpt lat="45.43584" lon="5.97842">
        <ele>384.54</ele>
        <time>2016-09-09T11:34:52Z</time>
      </trkpt>
      <trkpt lat="45.43563" lon="5.97841">
        <ele>384.5</ele>
        <time>2016-09-09T11:34:57Z</time>
      </trkpt>
      <trkpt lat="45.43544" lon="5.97843">
        <ele>384.37</ele>
        <time>2016-09-09T11:35:01Z</time>
      </trkpt>
      <trkpt lat="45.43526" lon="5.97844">
        <ele>384.38</ele>
        <time>2016-09-09T11:35:05Z</time>
      </trkpt>
      <trkpt lat="45.43503" lon="5.97848">
        <ele>384.23</ele>
        <time>2016-09-09T11:35:10Z</time>
      </trkpt>
      <trkpt lat="45.43486" lon="5.97842">
        <ele>384.38</ele>
        <time>2016-09-09T11:35:14Z</time>
      </trkpt>
      <trkpt lat="45.43468" lon="5.97835">
        <ele>384.48</ele>
        <time>2016-09-09T11:35:18Z</time>
      </trkpt>
      <trkpt lat="45.43455" lon="5.97855">
        <ele>384.59</ele>
        <time>2016-09-09T11:35:27Z</time>
      </trkpt>
      <trkpt lat="45.43454" lon="5.97882">
        <ele>383.4</ele>
        <time>2016-09-09T11:35:30Z</time>
      </trkpt>
      <trkpt lat="45.4345" lon="5.97913">
        <ele>382.01</ele>
        <time>2016-09-09T11:35:33Z</time>
      </trkpt>
      <trkpt lat="45.43443" lon="5.97943">
        <ele>380.71</ele>
        <time>2016-09-09T11:35:36Z</time>
      </trkpt>
      <trkpt lat="45.43433" lon="5.97975">
        <ele>379.33</ele>
        <time>2016-09-09T11:35:39Z</time>
      </trkpt>
      <trkpt lat="45.43427" lon="5.98011">
        <ele>377.64</ele>
        <time>2016-09-09T11:35:42Z</time>
      </trkpt>
      <trkpt lat="45.43421" lon="5.98036">
        <ele>376.53</ele>
        <time>2016-09-09T11:35:44Z</time>
      </trkpt>
      <trkpt lat="45.43416" lon="5.98061">
        <ele>375.39</ele>
        <time>2016-09-09T11:35:46Z</time>
      </trkpt>
      <trkpt lat="45.43409" lon="5.98088">
        <ele>374.18</ele>
        <time>2016-09-09T11:35:49Z</time>
      </trkpt>
      <trkpt lat="45.43393" lon="5.981">
        <ele>372.66</ele>
        <time>2016-09-09T11:35:56Z</time>
      </trkpt>
      <trkpt lat="45.43373" lon="5.9809">
        <ele>371.47</ele>
        <time>2016-09-09T11:36:04Z</time>
      </trkpt>
      <trkpt lat="45.43356" lon="5.98079">
        <ele>371.32</ele>
        <time>2016-09-09T11:36:09Z</time>
      </trkpt>
      <trkpt lat="45.43338" lon="5.9807">
        <ele>371.24</ele>
        <time>2016-09-09T11:36:14Z</time>
      </trkpt>
      <trkpt lat="45.4332" lon="5.9806">
        <ele>370.88</ele>
        <time>2016-09-09T11:36:19Z</time>
      </trkpt>
      <trkpt lat="45.43302" lon="5.98057">
        <ele>370.36</ele>
        <time>2016-09-09T11:36:23Z</time>
      </trkpt>
      <trkpt lat="45.43283" lon="5.98074">
        <ele>369.79</ele>
        <time>2016-09-09T11:36:27Z</time>
      </trkpt>
      <trkpt lat="45.43269" lon="5.98097">
        <ele>368.66</ele>
        <time>2016-09-09T11:36:31Z</time>
      </trkpt>
      <trkpt lat="45.43253" lon="5.98121">
        <ele>366.75</ele>
        <time>2016-09-09T11:36:35Z</time>
      </trkpt>
      <trkpt lat="45.43236" lon="5.98132">
        <ele>365.96</ele>
        <time>2016-09-09T11:36:38Z</time>
      </trkpt>
      <trkpt lat="45.43217" lon="5.98144">
        <ele>366.09</ele>
        <time>2016-09-09T11:36:42Z</time>
      </trkpt>
      <trkpt lat="45.43199" lon="5.98152">
        <ele>365.91</ele>
        <time>2016-09-09T11:36:46Z</time>
      </trkpt>
      <trkpt lat="45.43181" lon="5.98153">
        <ele>365.22</ele>
        <time>2016-09-09T11:36:50Z</time>
      </trkpt>
      <trkpt lat="45.4316" lon="5.9815">
        <ele>363.84</ele>
        <time>2016-09-09T11:36:54Z</time>
      </trkpt>
      <trkpt lat="45.4314" lon="5.98152">
        <ele>362.78</ele>
        <time>2016-09-09T11:37:01Z</time>
      </trkpt>
      <trkpt lat="45.43121" lon="5.98148">
        <ele>362.47</ele>
        <time>2016-09-09T11:37:05Z</time>
      </trkpt>
      <trkpt lat="45.43102" lon="5.98149">
        <ele>361.82</ele>
        <time>2016-09-09T11:37:09Z</time>
      </trkpt>
      <trkpt lat="45.43082" lon="5.98152">
        <ele>361.66</ele>
        <time>2016-09-09T11:37:13Z</time>
      </trkpt>
      <trkpt lat="45.43064" lon="5.9815">
        <ele>361.5</ele>
        <time>2016-09-09T11:37:17Z</time>
      </trkpt>
      <trkpt lat="45.43046" lon="5.98155">
        <ele>361.34</ele>
        <time>2016-09-09T11:37:21Z</time>
      </trkpt>
      <trkpt lat="45.43029" lon="5.98168">
        <ele>361.15</ele>
        <time>2016-09-09T11:37:25Z</time>
      </trkpt>
      <trkpt lat="45.43014" lon="5.98184">
        <ele>360.51</ele>
        <time>2016-09-09T11:37:29Z</time>
      </trkpt>
      <trkpt lat="45.43003" lon="5.98204">
        <ele>359.83</ele>
        <time>2016-09-09T11:37:33Z</time>
      </trkpt>
      <trkpt lat="45.42992" lon="5.98227">
        <ele>359.45</ele>
        <time>2016-09-09T11:37:37Z</time>
      </trkpt>
      <trkpt lat="45.42978" lon="5.9825">
        <ele>358.99</ele>
        <time>2016-09-09T11:37:42Z</time>
      </trkpt>
      <trkpt lat="45.42966" lon="5.98275">
        <ele>358.89</ele>
        <time>2016-09-09T11:37:47Z</time>
      </trkpt>
      <trkpt lat="45.42952" lon="5.98297">
        <ele>359.23</ele>
        <time>2016-09-09T11:37:52Z</time>
      </trkpt>
      <trkpt lat="45.4294" lon="5.98318">
        <ele>359.42</ele>
        <time>2016-09-09T11:37:58Z</time>
      </trkpt>
      <trkpt lat="45.42933" lon="5.98344">
        <ele>360.37</ele>
        <time>2016-09-09T11:38:05Z</time>
      </trkpt>
      <trkpt lat="45.42923" lon="5.98367">
        <ele>361.63</ele>
        <time>2016-09-09T11:38:12Z</time>
      </trkpt>
      <trkpt lat="45.42913" lon="5.98389">
        <ele>360.83</ele>
        <time>2016-09-09T11:38:32Z</time>
      </trkpt>
    </trkseg>
  </trk>
</gpx>